<?xml version="1.0" encoding="UTF-8" standalone="yes"?>
<gpx
 xmlns="http://www.topografix.com/GPX/1/1"
 creator="OziExplorer Version 3956f - http://www.oziexplorer.com"
 version="1.1"
 xmlns:xsi="http://www.w3.org/2001/XMLSchema-instance"
 xsi:schemaLocation="http://www.topografix.com/GPX/1/1 http://www.topografix.com/GPX/1/1/gpx.xsd">
<metadata>
 <time>2021-04-28T09:17:17Z</time>
 <bounds minlat="31.769570" minlon="35.003790" maxlat="31.822060" maxlon="35.088250"/>
</metadata>
<trk>
 <name>Mishlatim-Raziel_35km_New2-1</name>
 <desc>Mishlatim-Raziel_35km_New2-1</desc>
<trkseg>
<trkpt lat="31.8109800" lon="35.0141200">
<ele>276.490021</ele>
<time>2021-04-28T12:17:17.248Z</time>
</trkpt>
<trkpt lat="31.8107300" lon="35.0145500">
<ele>277.730011</ele>
<time>2021-04-28T12:17:17.248Z</time>
</trkpt>
<trkpt lat="31.8105200" lon="35.0149600">
<ele>283.519989</ele>
<time>2021-04-28T12:17:17.248Z</time>
</trkpt>
<trkpt lat="31.8104900" lon="35.0150900">
<ele>284.589996</ele>
<time>2021-04-28T12:17:17.248Z</time>
</trkpt>
<trkpt lat="31.8104600" lon="35.0152000">
<ele>285.289978</ele>
<time>2021-04-28T12:17:17.248Z</time>
</trkpt>
<trkpt lat="31.8103500" lon="35.0154900">
<ele>284.700012</ele>
<time>2021-04-28T12:17:17.248Z</time>
</trkpt>
<trkpt lat="31.8102800" lon="35.0157700">
<ele>283.239990</ele>
<time>2021-04-28T12:17:17.248Z</time>
</trkpt>
<trkpt lat="31.8101500" lon="35.0161100">
<ele>284.540009</ele>
<time>2021-04-28T12:17:17.248Z</time>
</trkpt>
<trkpt lat="31.8100100" lon="35.0165600">
<ele>284.130005</ele>
<time>2021-04-28T12:17:17.248Z</time>
</trkpt>
<trkpt lat="31.8098100" lon="35.0170900">
<ele>286.140015</ele>
<time>2021-04-28T12:17:17.248Z</time>
</trkpt>
<trkpt lat="31.8097500" lon="35.0173500">
<ele>286.509979</ele>
<time>2021-04-28T12:17:17.248Z</time>
</trkpt>
<trkpt lat="31.8097500" lon="35.0174600">
<ele>286.869995</ele>
<time>2021-04-28T12:17:17.248Z</time>
</trkpt>
<trkpt lat="31.8097900" lon="35.0175100">
<ele>287.029999</ele>
<time>2021-04-28T12:17:17.248Z</time>
</trkpt>
<trkpt lat="31.8098900" lon="35.0175200">
<ele>287.029999</ele>
<time>2021-04-28T12:17:17.248Z</time>
</trkpt>
<trkpt lat="31.8099600" lon="35.0176100">
<ele>287.059998</ele>
<time>2021-04-28T12:17:17.248Z</time>
</trkpt>
<trkpt lat="31.8099800" lon="35.0177200">
<ele>287.059998</ele>
<time>2021-04-28T12:17:17.248Z</time>
</trkpt>
<trkpt lat="31.8100100" lon="35.0178300">
<ele>287.279999</ele>
<time>2021-04-28T12:17:17.248Z</time>
</trkpt>
<trkpt lat="31.8101100" lon="35.0180000">
<ele>288.350006</ele>
<time>2021-04-28T12:17:17.248Z</time>
</trkpt>
<trkpt lat="31.8103300" lon="35.0182400">
<ele>291.079987</ele>
<time>2021-04-28T12:17:17.250Z</time>
</trkpt>
<trkpt lat="31.8106800" lon="35.0185600">
<ele>293.550018</ele>
<time>2021-04-28T12:17:17.250Z</time>
</trkpt>
<trkpt lat="31.8107000" lon="35.0185900">
<ele>293.480011</ele>
<time>2021-04-28T12:17:17.250Z</time>
</trkpt>
<trkpt lat="31.8107300" lon="35.0186200">
<ele>293.440002</ele>
<time>2021-04-28T12:17:17.250Z</time>
</trkpt>
<trkpt lat="31.8107600" lon="35.0187100">
<ele>294.140015</ele>
<time>2021-04-28T12:17:17.250Z</time>
</trkpt>
<trkpt lat="31.8107800" lon="35.0189500">
<ele>296.070007</ele>
<time>2021-04-28T12:17:17.250Z</time>
</trkpt>
<trkpt lat="31.8108300" lon="35.0191900">
<ele>297.339996</ele>
<time>2021-04-28T12:17:17.250Z</time>
</trkpt>
<trkpt lat="31.8108800" lon="35.0193000">
<ele>299.359985</ele>
<time>2021-04-28T12:17:17.250Z</time>
</trkpt>
<trkpt lat="31.8109200" lon="35.0194000">
<ele>300.610016</ele>
<time>2021-04-28T12:17:17.250Z</time>
</trkpt>
<trkpt lat="31.8109900" lon="35.0194700">
<ele>301.369995</ele>
<time>2021-04-28T12:17:17.250Z</time>
</trkpt>
<trkpt lat="31.8110600" lon="35.0195100">
<ele>301.940002</ele>
<time>2021-04-28T12:17:17.250Z</time>
</trkpt>
<trkpt lat="31.8111400" lon="35.0195700">
<ele>303.470001</ele>
<time>2021-04-28T12:17:17.250Z</time>
</trkpt>
<trkpt lat="31.8114000" lon="35.0197000">
<ele>307.429993</ele>
<time>2021-04-28T12:17:17.250Z</time>
</trkpt>
<trkpt lat="31.8115400" lon="35.0197800">
<ele>308.929993</ele>
<time>2021-04-28T12:17:17.250Z</time>
</trkpt>
<trkpt lat="31.8116100" lon="35.0197900">
<ele>309.679993</ele>
<time>2021-04-28T12:17:17.250Z</time>
</trkpt>
<trkpt lat="31.8117100" lon="35.0197900">
<ele>312.119995</ele>
<time>2021-04-28T12:17:17.250Z</time>
</trkpt>
<trkpt lat="31.8118000" lon="35.0197900">
<ele>316.019989</ele>
<time>2021-04-28T12:17:17.250Z</time>
</trkpt>
<trkpt lat="31.8118800" lon="35.0197500">
<ele>319.779999</ele>
<time>2021-04-28T12:17:17.250Z</time>
</trkpt>
<trkpt lat="31.8119200" lon="35.0196200">
<ele>320.579987</ele>
<time>2021-04-28T12:17:17.250Z</time>
</trkpt>
<trkpt lat="31.8121400" lon="35.0187500">
<ele>321.080017</ele>
<time>2021-04-28T12:17:17.250Z</time>
</trkpt>
<trkpt lat="31.8121800" lon="35.0187200">
<ele>322.000000</ele>
<time>2021-04-28T12:17:17.250Z</time>
</trkpt>
<trkpt lat="31.8122400" lon="35.0187100">
<ele>323.109985</ele>
<time>2021-04-28T12:17:17.250Z</time>
</trkpt>
<trkpt lat="31.8123200" lon="35.0186800">
<ele>323.529968</ele>
<time>2021-04-28T12:17:17.250Z</time>
</trkpt>
<trkpt lat="31.8126000" lon="35.0190300">
<ele>328.589996</ele>
<time>2021-04-28T12:17:17.250Z</time>
</trkpt>
<trkpt lat="31.8128600" lon="35.0191600">
<ele>329.750000</ele>
<time>2021-04-28T12:17:17.250Z</time>
</trkpt>
<trkpt lat="31.8133600" lon="35.0194600">
<ele>327.230011</ele>
<time>2021-04-28T12:17:17.250Z</time>
</trkpt>
<trkpt lat="31.8136700" lon="35.0195300">
<ele>328.289978</ele>
<time>2021-04-28T12:17:17.250Z</time>
</trkpt>
<trkpt lat="31.8139800" lon="35.0196700">
<ele>320.010010</ele>
<time>2021-04-28T12:17:17.251Z</time>
</trkpt>
<trkpt lat="31.8146200" lon="35.0195700">
<ele>316.639984</ele>
<time>2021-04-28T12:17:17.251Z</time>
</trkpt>
<trkpt lat="31.8148200" lon="35.0194200">
<ele>319.200012</ele>
<time>2021-04-28T12:17:17.251Z</time>
</trkpt>
<trkpt lat="31.8149800" lon="35.0193900">
<ele>318.439972</ele>
<time>2021-04-28T12:17:17.251Z</time>
</trkpt>
<trkpt lat="31.8155800" lon="35.0192900">
<ele>303.720001</ele>
<time>2021-04-28T12:17:17.251Z</time>
</trkpt>
<trkpt lat="31.8158200" lon="35.0191700">
<ele>302.290009</ele>
<time>2021-04-28T12:17:17.251Z</time>
</trkpt>
<trkpt lat="31.8160500" lon="35.0191100">
<ele>297.420013</ele>
<time>2021-04-28T12:17:17.251Z</time>
</trkpt>
<trkpt lat="31.8164900" lon="35.0191000">
<ele>294.890015</ele>
<time>2021-04-28T12:17:17.251Z</time>
</trkpt>
<trkpt lat="31.8167300" lon="35.0190700">
<ele>291.440002</ele>
<time>2021-04-28T12:17:17.251Z</time>
</trkpt>
<trkpt lat="31.8168800" lon="35.0189700">
<ele>289.639984</ele>
<time>2021-04-28T12:17:17.251Z</time>
</trkpt>
<trkpt lat="31.8173700" lon="35.0186100">
<ele>292.019989</ele>
<time>2021-04-28T12:17:17.251Z</time>
</trkpt>
<trkpt lat="31.8175400" lon="35.0185600">
<ele>291.529999</ele>
<time>2021-04-28T12:17:17.251Z</time>
</trkpt>
<trkpt lat="31.8178700" lon="35.0183000">
<ele>287.809998</ele>
<time>2021-04-28T12:17:17.251Z</time>
</trkpt>
<trkpt lat="31.8181800" lon="35.0182300">
<ele>285.570007</ele>
<time>2021-04-28T12:17:17.251Z</time>
</trkpt>
<trkpt lat="31.8189600" lon="35.0181700">
<ele>276.000000</ele>
<time>2021-04-28T12:17:17.251Z</time>
</trkpt>
<trkpt lat="31.8192500" lon="35.0179300">
<ele>272.459991</ele>
<time>2021-04-28T12:17:17.251Z</time>
</trkpt>
<trkpt lat="31.8196000" lon="35.0176100">
<ele>274.390015</ele>
<time>2021-04-28T12:17:17.251Z</time>
</trkpt>
<trkpt lat="31.8196100" lon="35.0176400">
<ele>274.390015</ele>
<time>2021-04-28T12:17:17.251Z</time>
</trkpt>
<trkpt lat="31.8196500" lon="35.0176600">
<ele>274.589996</ele>
<time>2021-04-28T12:17:17.251Z</time>
</trkpt>
<trkpt lat="31.8202900" lon="35.0180200">
<ele>260.170013</ele>
<time>2021-04-28T12:17:17.251Z</time>
</trkpt>
<trkpt lat="31.8203500" lon="35.0180800">
<ele>258.790009</ele>
<time>2021-04-28T12:17:17.251Z</time>
</trkpt>
<trkpt lat="31.8203800" lon="35.0181900">
<ele>258.640015</ele>
<time>2021-04-28T12:17:17.251Z</time>
</trkpt>
<trkpt lat="31.8204000" lon="35.0184300">
<ele>259.110016</ele>
<time>2021-04-28T12:17:17.251Z</time>
</trkpt>
<trkpt lat="31.8204100" lon="35.0185400">
<ele>259.329987</ele>
<time>2021-04-28T12:17:17.251Z</time>
</trkpt>
<trkpt lat="31.8204300" lon="35.0187000">
<ele>259.559998</ele>
<time>2021-04-28T12:17:17.251Z</time>
</trkpt>
<trkpt lat="31.8204900" lon="35.0188200">
<ele>259.679993</ele>
<time>2021-04-28T12:17:17.252Z</time>
</trkpt>
<trkpt lat="31.8206700" lon="35.0190800">
<ele>260.250000</ele>
<time>2021-04-28T12:17:17.252Z</time>
</trkpt>
<trkpt lat="31.8208800" lon="35.0192600">
<ele>259.450012</ele>
<time>2021-04-28T12:17:17.252Z</time>
</trkpt>
<trkpt lat="31.8210000" lon="35.0194100">
<ele>260.930023</ele>
<time>2021-04-28T12:17:17.252Z</time>
</trkpt>
<trkpt lat="31.8213300" lon="35.0196700">
<ele>263.479980</ele>
<time>2021-04-28T12:17:17.252Z</time>
</trkpt>
<trkpt lat="31.8215800" lon="35.0197200">
<ele>263.990021</ele>
<time>2021-04-28T12:17:17.252Z</time>
</trkpt>
<trkpt lat="31.8217200" lon="35.0196800">
<ele>263.489990</ele>
<time>2021-04-28T12:17:17.252Z</time>
</trkpt>
<trkpt lat="31.8219700" lon="35.0188300">
<ele>263.529999</ele>
<time>2021-04-28T12:17:17.252Z</time>
</trkpt>
<trkpt lat="31.8219500" lon="35.0190200">
<ele>263.940002</ele>
<time>2021-04-28T12:17:17.252Z</time>
</trkpt>
<trkpt lat="31.8220300" lon="35.0189600">
<ele>263.079987</ele>
<time>2021-04-28T12:17:17.252Z</time>
</trkpt>
<trkpt lat="31.8220600" lon="35.0190100">
<ele>262.750000</ele>
<time>2021-04-28T12:17:17.252Z</time>
</trkpt>
<trkpt lat="31.8220600" lon="35.0190500">
<ele>262.750000</ele>
<time>2021-04-28T12:17:17.252Z</time>
</trkpt>
<trkpt lat="31.8219600" lon="35.0195800">
<ele>262.029999</ele>
<time>2021-04-28T12:17:17.252Z</time>
</trkpt>
<trkpt lat="31.8218500" lon="35.0197700">
<ele>262.910004</ele>
<time>2021-04-28T12:17:17.252Z</time>
</trkpt>
<trkpt lat="31.8216500" lon="35.0200000">
<ele>264.059998</ele>
<time>2021-04-28T12:17:17.252Z</time>
</trkpt>
<trkpt lat="31.8214900" lon="35.0200700">
<ele>264.660004</ele>
<time>2021-04-28T12:17:17.252Z</time>
</trkpt>
<trkpt lat="31.8211600" lon="35.0204200">
<ele>261.619995</ele>
<time>2021-04-28T12:17:17.252Z</time>
</trkpt>
<trkpt lat="31.8211400" lon="35.0204400">
<ele>261.369995</ele>
<time>2021-04-28T12:17:17.252Z</time>
</trkpt>
<trkpt lat="31.8210800" lon="35.0205000">
<ele>260.800018</ele>
<time>2021-04-28T12:17:17.252Z</time>
</trkpt>
<trkpt lat="31.8210300" lon="35.0205800">
<ele>260.630005</ele>
<time>2021-04-28T12:17:17.252Z</time>
</trkpt>
<trkpt lat="31.8209700" lon="35.0208000">
<ele>261.730011</ele>
<time>2021-04-28T12:17:17.252Z</time>
</trkpt>
<trkpt lat="31.8209200" lon="35.0208600">
<ele>261.410004</ele>
<time>2021-04-28T12:17:17.252Z</time>
</trkpt>
<trkpt lat="31.8208200" lon="35.0209700">
<ele>260.910004</ele>
<time>2021-04-28T12:17:17.252Z</time>
</trkpt>
<trkpt lat="31.8202300" lon="35.0215700">
<ele>261.550018</ele>
<time>2021-04-28T12:17:17.252Z</time>
</trkpt>
<trkpt lat="31.8195600" lon="35.0222800">
<ele>267.540009</ele>
<time>2021-04-28T12:17:17.252Z</time>
</trkpt>
<trkpt lat="31.8193000" lon="35.0225500">
<ele>269.589996</ele>
<time>2021-04-28T12:17:17.252Z</time>
</trkpt>
<trkpt lat="31.8191200" lon="35.0229700">
<ele>273.170013</ele>
<time>2021-04-28T12:17:17.252Z</time>
</trkpt>
<trkpt lat="31.8190200" lon="35.0233800">
<ele>273.859985</ele>
<time>2021-04-28T12:17:17.252Z</time>
</trkpt>
<trkpt lat="31.8190100" lon="35.0240200">
<ele>278.619995</ele>
<time>2021-04-28T12:17:17.253Z</time>
</trkpt>
<trkpt lat="31.8190300" lon="35.0244200">
<ele>283.259979</ele>
<time>2021-04-28T12:17:17.253Z</time>
</trkpt>
<trkpt lat="31.8189800" lon="35.0244300">
<ele>282.850006</ele>
<time>2021-04-28T12:17:17.253Z</time>
</trkpt>
<trkpt lat="31.8188500" lon="35.0244400">
<ele>281.260010</ele>
<time>2021-04-28T12:17:17.253Z</time>
</trkpt>
<trkpt lat="31.8187400" lon="35.0245100">
<ele>279.410004</ele>
<time>2021-04-28T12:17:17.253Z</time>
</trkpt>
<trkpt lat="31.8186000" lon="35.0246600">
<ele>276.119995</ele>
<time>2021-04-28T12:17:17.253Z</time>
</trkpt>
<trkpt lat="31.8185500" lon="35.0247300">
<ele>275.610016</ele>
<time>2021-04-28T12:17:17.253Z</time>
</trkpt>
<trkpt lat="31.8184600" lon="35.0248400">
<ele>275.529999</ele>
<time>2021-04-28T12:17:17.253Z</time>
</trkpt>
<trkpt lat="31.8183700" lon="35.0249800">
<ele>275.309998</ele>
<time>2021-04-28T12:17:17.253Z</time>
</trkpt>
<trkpt lat="31.8183100" lon="35.0250500">
<ele>275.589996</ele>
<time>2021-04-28T12:17:17.253Z</time>
</trkpt>
<trkpt lat="31.8181000" lon="35.0259000">
<ele>283.960022</ele>
<time>2021-04-28T12:17:17.253Z</time>
</trkpt>
<trkpt lat="31.8181000" lon="35.0260200">
<ele>284.529999</ele>
<time>2021-04-28T12:17:17.253Z</time>
</trkpt>
<trkpt lat="31.8181000" lon="35.0261300">
<ele>285.139984</ele>
<time>2021-04-28T12:17:17.253Z</time>
</trkpt>
<trkpt lat="31.8181100" lon="35.0262400">
<ele>286.389984</ele>
<time>2021-04-28T12:17:17.253Z</time>
</trkpt>
<trkpt lat="31.8181200" lon="35.0263600">
<ele>287.660004</ele>
<time>2021-04-28T12:17:17.253Z</time>
</trkpt>
<trkpt lat="31.8181400" lon="35.0264800">
<ele>288.769989</ele>
<time>2021-04-28T12:17:17.253Z</time>
</trkpt>
<trkpt lat="31.8181400" lon="35.0266100">
<ele>289.570007</ele>
<time>2021-04-28T12:17:17.253Z</time>
</trkpt>
<trkpt lat="31.8181400" lon="35.0267400">
<ele>290.679993</ele>
<time>2021-04-28T12:17:17.253Z</time>
</trkpt>
<trkpt lat="31.8181400" lon="35.0268600">
<ele>291.940002</ele>
<time>2021-04-28T12:17:17.253Z</time>
</trkpt>
<trkpt lat="31.8181200" lon="35.0270000">
<ele>292.579987</ele>
<time>2021-04-28T12:17:17.253Z</time>
</trkpt>
<trkpt lat="31.8181000" lon="35.0271300">
<ele>292.390015</ele>
<time>2021-04-28T12:17:17.253Z</time>
</trkpt>
<trkpt lat="31.8180600" lon="35.0272500">
<ele>291.260010</ele>
<time>2021-04-28T12:17:17.253Z</time>
</trkpt>
<trkpt lat="31.8180200" lon="35.0273400">
<ele>290.890015</ele>
<time>2021-04-28T12:17:17.253Z</time>
</trkpt>
<trkpt lat="31.8179600" lon="35.0274300">
<ele>290.540009</ele>
<time>2021-04-28T12:17:17.253Z</time>
</trkpt>
<trkpt lat="31.8179200" lon="35.0275200">
<ele>290.570007</ele>
<time>2021-04-28T12:17:17.253Z</time>
</trkpt>
<trkpt lat="31.8178800" lon="35.0276200">
<ele>290.259979</ele>
<time>2021-04-28T12:17:17.253Z</time>
</trkpt>
<trkpt lat="31.8178400" lon="35.0277200">
<ele>289.850006</ele>
<time>2021-04-28T12:17:17.253Z</time>
</trkpt>
<trkpt lat="31.8178000" lon="35.0278300">
<ele>289.940002</ele>
<time>2021-04-28T12:17:17.254Z</time>
</trkpt>
<trkpt lat="31.8177500" lon="35.0279600">
<ele>290.970001</ele>
<time>2021-04-28T12:17:17.254Z</time>
</trkpt>
<trkpt lat="31.8177000" lon="35.0280800">
<ele>291.970001</ele>
<time>2021-04-28T12:17:17.254Z</time>
</trkpt>
<trkpt lat="31.8176300" lon="35.0282000">
<ele>292.440002</ele>
<time>2021-04-28T12:17:17.254Z</time>
</trkpt>
<trkpt lat="31.8175500" lon="35.0283200">
<ele>291.869995</ele>
<time>2021-04-28T12:17:17.254Z</time>
</trkpt>
<trkpt lat="31.8175000" lon="35.0284400">
<ele>291.380005</ele>
<time>2021-04-28T12:17:17.254Z</time>
</trkpt>
<trkpt lat="31.8174700" lon="35.0285600">
<ele>292.630005</ele>
<time>2021-04-28T12:17:17.254Z</time>
</trkpt>
<trkpt lat="31.8174400" lon="35.0286700">
<ele>293.709991</ele>
<time>2021-04-28T12:17:17.254Z</time>
</trkpt>
<trkpt lat="31.8174200" lon="35.0288000">
<ele>294.399994</ele>
<time>2021-04-28T12:17:17.254Z</time>
</trkpt>
<trkpt lat="31.8173900" lon="35.0289100">
<ele>294.839996</ele>
<time>2021-04-28T12:17:17.254Z</time>
</trkpt>
<trkpt lat="31.8173700" lon="35.0290300">
<ele>295.029999</ele>
<time>2021-04-28T12:17:17.254Z</time>
</trkpt>
<trkpt lat="31.8173300" lon="35.0291400">
<ele>294.619995</ele>
<time>2021-04-28T12:17:17.254Z</time>
</trkpt>
<trkpt lat="31.8173000" lon="35.0292400">
<ele>294.339996</ele>
<time>2021-04-28T12:17:17.254Z</time>
</trkpt>
<trkpt lat="31.8172800" lon="35.0293500">
<ele>294.239990</ele>
<time>2021-04-28T12:17:17.254Z</time>
</trkpt>
<trkpt lat="31.8172600" lon="35.0294800">
<ele>294.080017</ele>
<time>2021-04-28T12:17:17.254Z</time>
</trkpt>
<trkpt lat="31.8172500" lon="35.0296000">
<ele>294.259979</ele>
<time>2021-04-28T12:17:17.254Z</time>
</trkpt>
<trkpt lat="31.8172500" lon="35.0297400">
<ele>295.009979</ele>
<time>2021-04-28T12:17:17.254Z</time>
</trkpt>
<trkpt lat="31.8172500" lon="35.0298500">
<ele>296.950012</ele>
<time>2021-04-28T12:17:17.254Z</time>
</trkpt>
<trkpt lat="31.8172600" lon="35.0299600">
<ele>299.119995</ele>
<time>2021-04-28T12:17:17.254Z</time>
</trkpt>
<trkpt lat="31.8172800" lon="35.0300600">
<ele>301.070007</ele>
<time>2021-04-28T12:17:17.254Z</time>
</trkpt>
<trkpt lat="31.8173100" lon="35.0301900">
<ele>303.419983</ele>
<time>2021-04-28T12:17:17.254Z</time>
</trkpt>
<trkpt lat="31.8173400" lon="35.0303100">
<ele>305.190002</ele>
<time>2021-04-28T12:17:17.254Z</time>
</trkpt>
<trkpt lat="31.8173700" lon="35.0304300">
<ele>305.920013</ele>
<time>2021-04-28T12:17:17.254Z</time>
</trkpt>
<trkpt lat="31.8173900" lon="35.0305600">
<ele>306.440002</ele>
<time>2021-04-28T12:17:17.254Z</time>
</trkpt>
<trkpt lat="31.8173900" lon="35.0306600">
<ele>307.010010</ele>
<time>2021-04-28T12:17:17.254Z</time>
</trkpt>
<trkpt lat="31.8173900" lon="35.0307100">
<ele>307.299988</ele>
<time>2021-04-28T12:17:17.254Z</time>
</trkpt>
<trkpt lat="31.8173100" lon="35.0307000">
<ele>306.690002</ele>
<time>2021-04-28T12:17:17.255Z</time>
</trkpt>
<trkpt lat="31.8172400" lon="35.0306500">
<ele>305.529999</ele>
<time>2021-04-28T12:17:17.255Z</time>
</trkpt>
<trkpt lat="31.8171900" lon="35.0305600">
<ele>304.760010</ele>
<time>2021-04-28T12:17:17.255Z</time>
</trkpt>
<trkpt lat="31.8171200" lon="35.0304800">
<ele>305.739990</ele>
<time>2021-04-28T12:17:17.255Z</time>
</trkpt>
<trkpt lat="31.8170300" lon="35.0304200">
<ele>306.990021</ele>
<time>2021-04-28T12:17:17.255Z</time>
</trkpt>
<trkpt lat="31.8169500" lon="35.0303900">
<ele>308.119995</ele>
<time>2021-04-28T12:17:17.255Z</time>
</trkpt>
<trkpt lat="31.8168500" lon="35.0303600">
<ele>310.309998</ele>
<time>2021-04-28T12:17:17.255Z</time>
</trkpt>
<trkpt lat="31.8167600" lon="35.0303500">
<ele>312.569977</ele>
<time>2021-04-28T12:17:17.255Z</time>
</trkpt>
<trkpt lat="31.8166600" lon="35.0303400">
<ele>314.899994</ele>
<time>2021-04-28T12:17:17.255Z</time>
</trkpt>
<trkpt lat="31.8165700" lon="35.0303400">
<ele>313.489990</ele>
<time>2021-04-28T12:17:17.255Z</time>
</trkpt>
<trkpt lat="31.8164700" lon="35.0303600">
<ele>312.089996</ele>
<time>2021-04-28T12:17:17.255Z</time>
</trkpt>
<trkpt lat="31.8163800" lon="35.0303700">
<ele>310.920013</ele>
<time>2021-04-28T12:17:17.255Z</time>
</trkpt>
<trkpt lat="31.8162800" lon="35.0303800">
<ele>310.179993</ele>
<time>2021-04-28T12:17:17.255Z</time>
</trkpt>
<trkpt lat="31.8161700" lon="35.0303800">
<ele>309.240021</ele>
<time>2021-04-28T12:17:17.255Z</time>
</trkpt>
<trkpt lat="31.8160900" lon="35.0303700">
<ele>308.609985</ele>
<time>2021-04-28T12:17:17.255Z</time>
</trkpt>
<trkpt lat="31.8160800" lon="35.0303400">
<ele>308.360016</ele>
<time>2021-04-28T12:17:17.255Z</time>
</trkpt>
<trkpt lat="31.8160800" lon="35.0302300">
<ele>307.750000</ele>
<time>2021-04-28T12:17:17.255Z</time>
</trkpt>
<trkpt lat="31.8160900" lon="35.0301300">
<ele>307.470001</ele>
<time>2021-04-28T12:17:17.255Z</time>
</trkpt>
<trkpt lat="31.8161300" lon="35.0300500">
<ele>307.429993</ele>
<time>2021-04-28T12:17:17.255Z</time>
</trkpt>
<trkpt lat="31.8162000" lon="35.0299700">
<ele>308.459991</ele>
<time>2021-04-28T12:17:17.255Z</time>
</trkpt>
<trkpt lat="31.8162700" lon="35.0298700">
<ele>309.959991</ele>
<time>2021-04-28T12:17:17.255Z</time>
</trkpt>
<trkpt lat="31.8163200" lon="35.0297600">
<ele>311.089996</ele>
<time>2021-04-28T12:17:17.255Z</time>
</trkpt>
<trkpt lat="31.8163500" lon="35.0296600">
<ele>311.899994</ele>
<time>2021-04-28T12:17:17.255Z</time>
</trkpt>
<trkpt lat="31.8163900" lon="35.0295500">
<ele>312.619995</ele>
<time>2021-04-28T12:17:17.255Z</time>
</trkpt>
<trkpt lat="31.8164100" lon="35.0294400">
<ele>313.110016</ele>
<time>2021-04-28T12:17:17.255Z</time>
</trkpt>
<trkpt lat="31.8164500" lon="35.0293400">
<ele>313.890015</ele>
<time>2021-04-28T12:17:17.255Z</time>
</trkpt>
<trkpt lat="31.8164800" lon="35.0292400">
<ele>314.559998</ele>
<time>2021-04-28T12:17:17.255Z</time>
</trkpt>
<trkpt lat="31.8165100" lon="35.0291300">
<ele>315.260010</ele>
<time>2021-04-28T12:17:17.256Z</time>
</trkpt>
<trkpt lat="31.8165300" lon="35.0290200">
<ele>316.059998</ele>
<time>2021-04-28T12:17:17.256Z</time>
</trkpt>
<trkpt lat="31.8165600" lon="35.0289000">
<ele>316.920013</ele>
<time>2021-04-28T12:17:17.256Z</time>
</trkpt>
<trkpt lat="31.8165900" lon="35.0287900">
<ele>317.709991</ele>
<time>2021-04-28T12:17:17.256Z</time>
</trkpt>
<trkpt lat="31.8166200" lon="35.0286800">
<ele>318.500000</ele>
<time>2021-04-28T12:17:17.256Z</time>
</trkpt>
<trkpt lat="31.8166400" lon="35.0285700">
<ele>319.160004</ele>
<time>2021-04-28T12:17:17.256Z</time>
</trkpt>
<trkpt lat="31.8166700" lon="35.0284600">
<ele>319.480011</ele>
<time>2021-04-28T12:17:17.256Z</time>
</trkpt>
<trkpt lat="31.8167100" lon="35.0283400">
<ele>319.190002</ele>
<time>2021-04-28T12:17:17.256Z</time>
</trkpt>
<trkpt lat="31.8167300" lon="35.0282300">
<ele>319.230011</ele>
<time>2021-04-28T12:17:17.256Z</time>
</trkpt>
<trkpt lat="31.8167400" lon="35.0281100">
<ele>319.480011</ele>
<time>2021-04-28T12:17:17.256Z</time>
</trkpt>
<trkpt lat="31.8167400" lon="35.0280000">
<ele>320.470001</ele>
<time>2021-04-28T12:17:17.256Z</time>
</trkpt>
<trkpt lat="31.8167400" lon="35.0278700">
<ele>322.309998</ele>
<time>2021-04-28T12:17:17.256Z</time>
</trkpt>
<trkpt lat="31.8167400" lon="35.0277600">
<ele>323.799988</ele>
<time>2021-04-28T12:17:17.256Z</time>
</trkpt>
<trkpt lat="31.8167200" lon="35.0276400">
<ele>325.779999</ele>
<time>2021-04-28T12:17:17.256Z</time>
</trkpt>
<trkpt lat="31.8167000" lon="35.0275400">
<ele>327.829987</ele>
<time>2021-04-28T12:17:17.256Z</time>
</trkpt>
<trkpt lat="31.8166400" lon="35.0274400">
<ele>330.470001</ele>
<time>2021-04-28T12:17:17.256Z</time>
</trkpt>
<trkpt lat="31.8165700" lon="35.0273500">
<ele>331.799988</ele>
<time>2021-04-28T12:17:17.256Z</time>
</trkpt>
<trkpt lat="31.8165300" lon="35.0272600">
<ele>333.119995</ele>
<time>2021-04-28T12:17:17.256Z</time>
</trkpt>
<trkpt lat="31.8164600" lon="35.0271700">
<ele>335.089996</ele>
<time>2021-04-28T12:17:17.256Z</time>
</trkpt>
<trkpt lat="31.8163800" lon="35.0270700">
<ele>338.330017</ele>
<time>2021-04-28T12:17:17.256Z</time>
</trkpt>
<trkpt lat="31.8163500" lon="35.0270300">
<ele>339.320007</ele>
<time>2021-04-28T12:17:17.256Z</time>
</trkpt>
<trkpt lat="31.8163200" lon="35.0269900">
<ele>340.209991</ele>
<time>2021-04-28T12:17:17.256Z</time>
</trkpt>
<trkpt lat="31.8162400" lon="35.0269000">
<ele>340.520020</ele>
<time>2021-04-28T12:17:17.256Z</time>
</trkpt>
<trkpt lat="31.8161400" lon="35.0268300">
<ele>340.780029</ele>
<time>2021-04-28T12:17:17.256Z</time>
</trkpt>
<trkpt lat="31.8160500" lon="35.0267700">
<ele>340.929993</ele>
<time>2021-04-28T12:17:17.256Z</time>
</trkpt>
<trkpt lat="31.8159700" lon="35.0267200">
<ele>340.780029</ele>
<time>2021-04-28T12:17:17.256Z</time>
</trkpt>
<trkpt lat="31.8158700" lon="35.0267000">
<ele>341.220001</ele>
<time>2021-04-28T12:17:17.256Z</time>
</trkpt>
<trkpt lat="31.8157800" lon="35.0266900">
<ele>340.339996</ele>
<time>2021-04-28T12:17:17.257Z</time>
</trkpt>
<trkpt lat="31.8156800" lon="35.0266900">
<ele>338.479980</ele>
<time>2021-04-28T12:17:17.257Z</time>
</trkpt>
<trkpt lat="31.8155900" lon="35.0266900">
<ele>336.809998</ele>
<time>2021-04-28T12:17:17.257Z</time>
</trkpt>
<trkpt lat="31.8154900" lon="35.0267100">
<ele>336.549988</ele>
<time>2021-04-28T12:17:17.257Z</time>
</trkpt>
<trkpt lat="31.8153900" lon="35.0267500">
<ele>337.199982</ele>
<time>2021-04-28T12:17:17.257Z</time>
</trkpt>
<trkpt lat="31.8153000" lon="35.0268100">
<ele>337.950012</ele>
<time>2021-04-28T12:17:17.257Z</time>
</trkpt>
<trkpt lat="31.8152100" lon="35.0268700">
<ele>337.669983</ele>
<time>2021-04-28T12:17:17.257Z</time>
</trkpt>
<trkpt lat="31.8151300" lon="35.0269200">
<ele>337.180023</ele>
<time>2021-04-28T12:17:17.257Z</time>
</trkpt>
<trkpt lat="31.8150500" lon="35.0269900">
<ele>337.329987</ele>
<time>2021-04-28T12:17:17.257Z</time>
</trkpt>
<trkpt lat="31.8149800" lon="35.0270600">
<ele>338.049988</ele>
<time>2021-04-28T12:17:17.257Z</time>
</trkpt>
<trkpt lat="31.8149100" lon="35.0271300">
<ele>339.119995</ele>
<time>2021-04-28T12:17:17.257Z</time>
</trkpt>
<trkpt lat="31.8148500" lon="35.0272200">
<ele>340.420013</ele>
<time>2021-04-28T12:17:17.257Z</time>
</trkpt>
<trkpt lat="31.8147900" lon="35.0273100">
<ele>342.860016</ele>
<time>2021-04-28T12:17:17.257Z</time>
</trkpt>
<trkpt lat="31.8147500" lon="35.0274100">
<ele>345.980011</ele>
<time>2021-04-28T12:17:17.257Z</time>
</trkpt>
<trkpt lat="31.8147200" lon="35.0275100">
<ele>349.059998</ele>
<time>2021-04-28T12:17:17.257Z</time>
</trkpt>
<trkpt lat="31.8146900" lon="35.0276400">
<ele>350.049988</ele>
<time>2021-04-28T12:17:17.257Z</time>
</trkpt>
<trkpt lat="31.8146500" lon="35.0277400">
<ele>350.929993</ele>
<time>2021-04-28T12:17:17.257Z</time>
</trkpt>
<trkpt lat="31.8146200" lon="35.0278500">
<ele>352.240021</ele>
<time>2021-04-28T12:17:17.257Z</time>
</trkpt>
<trkpt lat="31.8145900" lon="35.0279500">
<ele>353.500000</ele>
<time>2021-04-28T12:17:17.257Z</time>
</trkpt>
<trkpt lat="31.8145700" lon="35.0280600">
<ele>355.029999</ele>
<time>2021-04-28T12:17:17.257Z</time>
</trkpt>
<trkpt lat="31.8145300" lon="35.0281600">
<ele>355.779999</ele>
<time>2021-04-28T12:17:17.257Z</time>
</trkpt>
<trkpt lat="31.8144900" lon="35.0282700">
<ele>356.940002</ele>
<time>2021-04-28T12:17:17.258Z</time>
</trkpt>
<trkpt lat="31.8144400" lon="35.0283600">
<ele>358.020020</ele>
<time>2021-04-28T12:17:17.258Z</time>
</trkpt>
<trkpt lat="31.8143900" lon="35.0284600">
<ele>357.739990</ele>
<time>2021-04-28T12:17:17.258Z</time>
</trkpt>
<trkpt lat="31.8143400" lon="35.0285500">
<ele>357.779999</ele>
<time>2021-04-28T12:17:17.258Z</time>
</trkpt>
<trkpt lat="31.8142700" lon="35.0286400">
<ele>358.039978</ele>
<time>2021-04-28T12:17:17.258Z</time>
</trkpt>
<trkpt lat="31.8142000" lon="35.0287100">
<ele>358.540009</ele>
<time>2021-04-28T12:17:17.258Z</time>
</trkpt>
<trkpt lat="31.8141200" lon="35.0287700">
<ele>358.710022</ele>
<time>2021-04-28T12:17:17.258Z</time>
</trkpt>
<trkpt lat="31.8140300" lon="35.0288300">
<ele>358.570007</ele>
<time>2021-04-28T12:17:17.258Z</time>
</trkpt>
<trkpt lat="31.8139400" lon="35.0288900">
<ele>358.589996</ele>
<time>2021-04-28T12:17:17.258Z</time>
</trkpt>
<trkpt lat="31.8138700" lon="35.0289600">
<ele>360.729980</ele>
<time>2021-04-28T12:17:17.258Z</time>
</trkpt>
<trkpt lat="31.8138200" lon="35.0290600">
<ele>364.010010</ele>
<time>2021-04-28T12:17:17.258Z</time>
</trkpt>
<trkpt lat="31.8137600" lon="35.0291600">
<ele>366.469971</ele>
<time>2021-04-28T12:17:17.258Z</time>
</trkpt>
<trkpt lat="31.8137200" lon="35.0292500">
<ele>367.940002</ele>
<time>2021-04-28T12:17:17.258Z</time>
</trkpt>
<trkpt lat="31.8136800" lon="35.0293700">
<ele>370.180023</ele>
<time>2021-04-28T12:17:17.258Z</time>
</trkpt>
<trkpt lat="31.8136500" lon="35.0294700">
<ele>372.020020</ele>
<time>2021-04-28T12:17:17.258Z</time>
</trkpt>
<trkpt lat="31.8136300" lon="35.0295700">
<ele>373.529968</ele>
<time>2021-04-28T12:17:17.258Z</time>
</trkpt>
<trkpt lat="31.8136100" lon="35.0296900">
<ele>375.399994</ele>
<time>2021-04-28T12:17:17.258Z</time>
</trkpt>
<trkpt lat="31.8136100" lon="35.0298100">
<ele>377.559998</ele>
<time>2021-04-28T12:17:17.258Z</time>
</trkpt>
<trkpt lat="31.8136100" lon="35.0299300">
<ele>379.720001</ele>
<time>2021-04-28T12:17:17.258Z</time>
</trkpt>
<trkpt lat="31.8136100" lon="35.0300500">
<ele>381.530029</ele>
<time>2021-04-28T12:17:17.258Z</time>
</trkpt>
<trkpt lat="31.8136200" lon="35.0301600">
<ele>382.829987</ele>
<time>2021-04-28T12:17:17.258Z</time>
</trkpt>
<trkpt lat="31.8136400" lon="35.0302600">
<ele>384.209991</ele>
<time>2021-04-28T12:17:17.258Z</time>
</trkpt>
<trkpt lat="31.8136700" lon="35.0303700">
<ele>384.850006</ele>
<time>2021-04-28T12:17:17.258Z</time>
</trkpt>
<trkpt lat="31.8137000" lon="35.0304800">
<ele>385.279999</ele>
<time>2021-04-28T12:17:17.259Z</time>
</trkpt>
<trkpt lat="31.8137400" lon="35.0305800">
<ele>385.680023</ele>
<time>2021-04-28T12:17:17.259Z</time>
</trkpt>
<trkpt lat="31.8137600" lon="35.0306900">
<ele>385.179993</ele>
<time>2021-04-28T12:17:17.259Z</time>
</trkpt>
<trkpt lat="31.8137600" lon="35.0308000">
<ele>384.380005</ele>
<time>2021-04-28T12:17:17.259Z</time>
</trkpt>
<trkpt lat="31.8137600" lon="35.0309200">
<ele>383.450012</ele>
<time>2021-04-28T12:17:17.259Z</time>
</trkpt>
<trkpt lat="31.8137400" lon="35.0310400">
<ele>382.529999</ele>
<time>2021-04-28T12:17:17.259Z</time>
</trkpt>
<trkpt lat="31.8137200" lon="35.0311600">
<ele>382.359985</ele>
<time>2021-04-28T12:17:17.259Z</time>
</trkpt>
<trkpt lat="31.8136700" lon="35.0312600">
<ele>383.309998</ele>
<time>2021-04-28T12:17:17.259Z</time>
</trkpt>
<trkpt lat="31.8136200" lon="35.0313500">
<ele>384.570007</ele>
<time>2021-04-28T12:17:17.259Z</time>
</trkpt>
<trkpt lat="31.8135400" lon="35.0314300">
<ele>383.360016</ele>
<time>2021-04-28T12:17:17.259Z</time>
</trkpt>
<trkpt lat="31.8134400" lon="35.0314800">
<ele>381.820007</ele>
<time>2021-04-28T12:17:17.259Z</time>
</trkpt>
<trkpt lat="31.8133500" lon="35.0315000">
<ele>380.959991</ele>
<time>2021-04-28T12:17:17.259Z</time>
</trkpt>
<trkpt lat="31.8132500" lon="35.0315100">
<ele>381.860016</ele>
<time>2021-04-28T12:17:17.259Z</time>
</trkpt>
<trkpt lat="31.8131500" lon="35.0315100">
<ele>383.059998</ele>
<time>2021-04-28T12:17:17.259Z</time>
</trkpt>
<trkpt lat="31.8130400" lon="35.0315200">
<ele>384.690002</ele>
<time>2021-04-28T12:17:17.259Z</time>
</trkpt>
<trkpt lat="31.8129400" lon="35.0315100">
<ele>386.570007</ele>
<time>2021-04-28T12:17:17.259Z</time>
</trkpt>
<trkpt lat="31.8128500" lon="35.0315000">
<ele>388.139984</ele>
<time>2021-04-28T12:17:17.259Z</time>
</trkpt>
<trkpt lat="31.8127600" lon="35.0314900">
<ele>389.570007</ele>
<time>2021-04-28T12:17:17.259Z</time>
</trkpt>
<trkpt lat="31.8126500" lon="35.0314700">
<ele>390.789978</ele>
<time>2021-04-28T12:17:17.259Z</time>
</trkpt>
<trkpt lat="31.8125700" lon="35.0314400">
<ele>391.259979</ele>
<time>2021-04-28T12:17:17.259Z</time>
</trkpt>
<trkpt lat="31.8124700" lon="35.0314300">
<ele>392.199982</ele>
<time>2021-04-28T12:17:17.259Z</time>
</trkpt>
<trkpt lat="31.8123700" lon="35.0314300">
<ele>392.250000</ele>
<time>2021-04-28T12:17:17.259Z</time>
</trkpt>
<trkpt lat="31.8123200" lon="35.0314300">
<ele>392.280029</ele>
<time>2021-04-28T12:17:17.259Z</time>
</trkpt>
<trkpt lat="31.8122600" lon="35.0314600">
<ele>393.269989</ele>
<time>2021-04-28T12:17:17.259Z</time>
</trkpt>
<trkpt lat="31.8121700" lon="35.0315000">
<ele>394.149994</ele>
<time>2021-04-28T12:17:17.259Z</time>
</trkpt>
<trkpt lat="31.8121000" lon="35.0315800">
<ele>396.009979</ele>
<time>2021-04-28T12:17:17.259Z</time>
</trkpt>
<trkpt lat="31.8120600" lon="35.0316800">
<ele>398.619995</ele>
<time>2021-04-28T12:17:17.260Z</time>
</trkpt>
<trkpt lat="31.8120500" lon="35.0317900">
<ele>401.589996</ele>
<time>2021-04-28T12:17:17.260Z</time>
</trkpt>
<trkpt lat="31.8120300" lon="35.0319000">
<ele>404.319977</ele>
<time>2021-04-28T12:17:17.260Z</time>
</trkpt>
<trkpt lat="31.8120200" lon="35.0320200">
<ele>406.449982</ele>
<time>2021-04-28T12:17:17.260Z</time>
</trkpt>
<trkpt lat="31.8120100" lon="35.0321500">
<ele>408.139984</ele>
<time>2021-04-28T12:17:17.260Z</time>
</trkpt>
<trkpt lat="31.8120000" lon="35.0322700">
<ele>409.449982</ele>
<time>2021-04-28T12:17:17.260Z</time>
</trkpt>
<trkpt lat="31.8119900" lon="35.0323800">
<ele>410.340027</ele>
<time>2021-04-28T12:17:17.260Z</time>
</trkpt>
<trkpt lat="31.8119800" lon="35.0325000">
<ele>411.379974</ele>
<time>2021-04-28T12:17:17.260Z</time>
</trkpt>
<trkpt lat="31.8119500" lon="35.0326200">
<ele>411.049988</ele>
<time>2021-04-28T12:17:17.260Z</time>
</trkpt>
<trkpt lat="31.8119200" lon="35.0327300">
<ele>410.349976</ele>
<time>2021-04-28T12:17:17.260Z</time>
</trkpt>
<trkpt lat="31.8118700" lon="35.0328300">
<ele>409.409973</ele>
<time>2021-04-28T12:17:17.260Z</time>
</trkpt>
<trkpt lat="31.8118300" lon="35.0329300">
<ele>409.119995</ele>
<time>2021-04-28T12:17:17.260Z</time>
</trkpt>
<trkpt lat="31.8117800" lon="35.0330400">
<ele>408.920013</ele>
<time>2021-04-28T12:17:17.260Z</time>
</trkpt>
<trkpt lat="31.8117300" lon="35.0331500">
<ele>409.270020</ele>
<time>2021-04-28T12:17:17.260Z</time>
</trkpt>
<trkpt lat="31.8116800" lon="35.0332600">
<ele>410.080017</ele>
<time>2021-04-28T12:17:17.260Z</time>
</trkpt>
<trkpt lat="31.8116300" lon="35.0333800">
<ele>410.699982</ele>
<time>2021-04-28T12:17:17.260Z</time>
</trkpt>
<trkpt lat="31.8115900" lon="35.0334900">
<ele>410.900024</ele>
<time>2021-04-28T12:17:17.260Z</time>
</trkpt>
<trkpt lat="31.8115400" lon="35.0336000">
<ele>411.079987</ele>
<time>2021-04-28T12:17:17.260Z</time>
</trkpt>
<trkpt lat="31.8115100" lon="35.0337100">
<ele>411.079987</ele>
<time>2021-04-28T12:17:17.260Z</time>
</trkpt>
<trkpt lat="31.8114600" lon="35.0338000">
<ele>411.529999</ele>
<time>2021-04-28T12:17:17.260Z</time>
</trkpt>
<trkpt lat="31.8114000" lon="35.0338900">
<ele>412.879974</ele>
<time>2021-04-28T12:17:17.260Z</time>
</trkpt>
<trkpt lat="31.8113300" lon="35.0339800">
<ele>412.720001</ele>
<time>2021-04-28T12:17:17.260Z</time>
</trkpt>
<trkpt lat="31.8112700" lon="35.0340500">
<ele>412.640015</ele>
<time>2021-04-28T12:17:17.260Z</time>
</trkpt>
<trkpt lat="31.8112000" lon="35.0341200">
<ele>412.770020</ele>
<time>2021-04-28T12:17:17.260Z</time>
</trkpt>
<trkpt lat="31.8111200" lon="35.0341800">
<ele>413.229980</ele>
<time>2021-04-28T12:17:17.260Z</time>
</trkpt>
<trkpt lat="31.8110300" lon="35.0342200">
<ele>413.489990</ele>
<time>2021-04-28T12:17:17.260Z</time>
</trkpt>
<trkpt lat="31.8109400" lon="35.0342400">
<ele>413.410004</ele>
<time>2021-04-28T12:17:17.261Z</time>
</trkpt>
<trkpt lat="31.8108500" lon="35.0342500">
<ele>413.179993</ele>
<time>2021-04-28T12:17:17.261Z</time>
</trkpt>
<trkpt lat="31.8107400" lon="35.0342600">
<ele>412.570007</ele>
<time>2021-04-28T12:17:17.261Z</time>
</trkpt>
<trkpt lat="31.8106400" lon="35.0342600">
<ele>411.729980</ele>
<time>2021-04-28T12:17:17.261Z</time>
</trkpt>
<trkpt lat="31.8105400" lon="35.0342600">
<ele>411.299988</ele>
<time>2021-04-28T12:17:17.261Z</time>
</trkpt>
<trkpt lat="31.8104400" lon="35.0342600">
<ele>413.089996</ele>
<time>2021-04-28T12:17:17.261Z</time>
</trkpt>
<trkpt lat="31.8103400" lon="35.0342500">
<ele>414.759979</ele>
<time>2021-04-28T12:17:17.261Z</time>
</trkpt>
<trkpt lat="31.8102500" lon="35.0342400">
<ele>415.980011</ele>
<time>2021-04-28T12:17:17.261Z</time>
</trkpt>
<trkpt lat="31.8101600" lon="35.0342400">
<ele>416.580017</ele>
<time>2021-04-28T12:17:17.261Z</time>
</trkpt>
<trkpt lat="31.8100600" lon="35.0342400">
<ele>417.239990</ele>
<time>2021-04-28T12:17:17.261Z</time>
</trkpt>
<trkpt lat="31.8099600" lon="35.0342400">
<ele>418.650024</ele>
<time>2021-04-28T12:17:17.261Z</time>
</trkpt>
<trkpt lat="31.8098600" lon="35.0342500">
<ele>421.529999</ele>
<time>2021-04-28T12:17:17.261Z</time>
</trkpt>
<trkpt lat="31.8097600" lon="35.0342700">
<ele>424.770020</ele>
<time>2021-04-28T12:17:17.261Z</time>
</trkpt>
<trkpt lat="31.8096700" lon="35.0343100">
<ele>427.340027</ele>
<time>2021-04-28T12:17:17.261Z</time>
</trkpt>
<trkpt lat="31.8095800" lon="35.0343600">
<ele>429.070007</ele>
<time>2021-04-28T12:17:17.261Z</time>
</trkpt>
<trkpt lat="31.8095000" lon="35.0344200">
<ele>430.599976</ele>
<time>2021-04-28T12:17:17.261Z</time>
</trkpt>
<trkpt lat="31.8094200" lon="35.0345000">
<ele>430.550018</ele>
<time>2021-04-28T12:17:17.261Z</time>
</trkpt>
<trkpt lat="31.8093400" lon="35.0346000">
<ele>430.200012</ele>
<time>2021-04-28T12:17:17.261Z</time>
</trkpt>
<trkpt lat="31.8092700" lon="35.0346800">
<ele>430.839996</ele>
<time>2021-04-28T12:17:17.261Z</time>
</trkpt>
<trkpt lat="31.8092100" lon="35.0347500">
<ele>432.149994</ele>
<time>2021-04-28T12:17:17.261Z</time>
</trkpt>
<trkpt lat="31.8091600" lon="35.0348500">
<ele>433.700012</ele>
<time>2021-04-28T12:17:17.261Z</time>
</trkpt>
<trkpt lat="31.8090900" lon="35.0349300">
<ele>433.820007</ele>
<time>2021-04-28T12:17:17.261Z</time>
</trkpt>
<trkpt lat="31.8090400" lon="35.0350300">
<ele>435.519989</ele>
<time>2021-04-28T12:17:17.261Z</time>
</trkpt>
<trkpt lat="31.8089900" lon="35.0351400">
<ele>437.850006</ele>
<time>2021-04-28T12:17:17.261Z</time>
</trkpt>
<trkpt lat="31.8089500" lon="35.0352400">
<ele>439.600006</ele>
<time>2021-04-28T12:17:17.261Z</time>
</trkpt>
<trkpt lat="31.8089100" lon="35.0353500">
<ele>440.589996</ele>
<time>2021-04-28T12:17:17.261Z</time>
</trkpt>
<trkpt lat="31.8088800" lon="35.0354500">
<ele>441.200012</ele>
<time>2021-04-28T12:17:17.262Z</time>
</trkpt>
<trkpt lat="31.8088500" lon="35.0355600">
<ele>441.949982</ele>
<time>2021-04-28T12:17:17.262Z</time>
</trkpt>
<trkpt lat="31.8088300" lon="35.0356800">
<ele>443.190002</ele>
<time>2021-04-28T12:17:17.262Z</time>
</trkpt>
<trkpt lat="31.8087800" lon="35.0357800">
<ele>443.410004</ele>
<time>2021-04-28T12:17:17.262Z</time>
</trkpt>
<trkpt lat="31.8087400" lon="35.0358900">
<ele>444.169983</ele>
<time>2021-04-28T12:17:17.262Z</time>
</trkpt>
<trkpt lat="31.8087100" lon="35.0359900">
<ele>445.109985</ele>
<time>2021-04-28T12:17:17.262Z</time>
</trkpt>
<trkpt lat="31.8086700" lon="35.0361000">
<ele>446.080017</ele>
<time>2021-04-28T12:17:17.262Z</time>
</trkpt>
<trkpt lat="31.8086300" lon="35.0362000">
<ele>447.010010</ele>
<time>2021-04-28T12:17:17.262Z</time>
</trkpt>
<trkpt lat="31.8085800" lon="35.0363000">
<ele>447.580017</ele>
<time>2021-04-28T12:17:17.262Z</time>
</trkpt>
<trkpt lat="31.8085200" lon="35.0363700">
<ele>447.339996</ele>
<time>2021-04-28T12:17:17.262Z</time>
</trkpt>
<trkpt lat="31.8084600" lon="35.0364600">
<ele>447.959991</ele>
<time>2021-04-28T12:17:17.262Z</time>
</trkpt>
<trkpt lat="31.8084100" lon="35.0365500">
<ele>448.730011</ele>
<time>2021-04-28T12:17:17.262Z</time>
</trkpt>
<trkpt lat="31.8083600" lon="35.0366400">
<ele>449.269989</ele>
<time>2021-04-28T12:17:17.262Z</time>
</trkpt>
<trkpt lat="31.8083100" lon="35.0367600">
<ele>450.230011</ele>
<time>2021-04-28T12:17:17.262Z</time>
</trkpt>
<trkpt lat="31.8082700" lon="35.0368600">
<ele>450.970032</ele>
<time>2021-04-28T12:17:17.262Z</time>
</trkpt>
<trkpt lat="31.8082400" lon="35.0369800">
<ele>452.149994</ele>
<time>2021-04-28T12:17:17.262Z</time>
</trkpt>
<trkpt lat="31.8082200" lon="35.0370900">
<ele>453.020020</ele>
<time>2021-04-28T12:17:17.262Z</time>
</trkpt>
<trkpt lat="31.8082000" lon="35.0372000">
<ele>453.880005</ele>
<time>2021-04-28T12:17:17.262Z</time>
</trkpt>
<trkpt lat="31.8081900" lon="35.0373100">
<ele>454.789978</ele>
<time>2021-04-28T12:17:17.262Z</time>
</trkpt>
<trkpt lat="31.8081900" lon="35.0374300">
<ele>456.079987</ele>
<time>2021-04-28T12:17:17.262Z</time>
</trkpt>
<trkpt lat="31.8081800" lon="35.0375500">
<ele>456.759979</ele>
<time>2021-04-28T12:17:17.262Z</time>
</trkpt>
<trkpt lat="31.8081800" lon="35.0376700">
<ele>457.430023</ele>
<time>2021-04-28T12:17:17.262Z</time>
</trkpt>
<trkpt lat="31.8081900" lon="35.0377800">
<ele>458.379974</ele>
<time>2021-04-28T12:17:17.262Z</time>
</trkpt>
<trkpt lat="31.8081900" lon="35.0378900">
<ele>459.559998</ele>
<time>2021-04-28T12:17:17.262Z</time>
</trkpt>
<trkpt lat="31.8082000" lon="35.0380000">
<ele>461.110016</ele>
<time>2021-04-28T12:17:17.262Z</time>
</trkpt>
<trkpt lat="31.8082100" lon="35.0381300">
<ele>463.190002</ele>
<time>2021-04-28T12:17:17.262Z</time>
</trkpt>
<trkpt lat="31.8082300" lon="35.0382400">
<ele>465.559998</ele>
<time>2021-04-28T12:17:17.262Z</time>
</trkpt>
<trkpt lat="31.8082600" lon="35.0383400">
<ele>468.099976</ele>
<time>2021-04-28T12:17:17.263Z</time>
</trkpt>
<trkpt lat="31.8082900" lon="35.0384500">
<ele>469.129974</ele>
<time>2021-04-28T12:17:17.263Z</time>
</trkpt>
<trkpt lat="31.8083300" lon="35.0385500">
<ele>470.130005</ele>
<time>2021-04-28T12:17:17.263Z</time>
</trkpt>
<trkpt lat="31.8083800" lon="35.0386600">
<ele>471.279999</ele>
<time>2021-04-28T12:17:17.263Z</time>
</trkpt>
<trkpt lat="31.8084300" lon="35.0387700">
<ele>472.389984</ele>
<time>2021-04-28T12:17:17.263Z</time>
</trkpt>
<trkpt lat="31.8084800" lon="35.0388500">
<ele>473.319977</ele>
<time>2021-04-28T12:17:17.263Z</time>
</trkpt>
<trkpt lat="31.8085300" lon="35.0389500">
<ele>474.179993</ele>
<time>2021-04-28T12:17:17.263Z</time>
</trkpt>
<trkpt lat="31.8085800" lon="35.0390500">
<ele>475.260010</ele>
<time>2021-04-28T12:17:17.263Z</time>
</trkpt>
<trkpt lat="31.8086300" lon="35.0391600">
<ele>476.410004</ele>
<time>2021-04-28T12:17:17.263Z</time>
</trkpt>
<trkpt lat="31.8086800" lon="35.0392600">
<ele>477.070007</ele>
<time>2021-04-28T12:17:17.263Z</time>
</trkpt>
<trkpt lat="31.8087300" lon="35.0393700">
<ele>477.519989</ele>
<time>2021-04-28T12:17:17.263Z</time>
</trkpt>
<trkpt lat="31.8087800" lon="35.0394700">
<ele>477.970001</ele>
<time>2021-04-28T12:17:17.263Z</time>
</trkpt>
<trkpt lat="31.8088400" lon="35.0395800">
<ele>478.950012</ele>
<time>2021-04-28T12:17:17.263Z</time>
</trkpt>
<trkpt lat="31.8088900" lon="35.0396700">
<ele>480.009979</ele>
<time>2021-04-28T12:17:17.263Z</time>
</trkpt>
<trkpt lat="31.8089400" lon="35.0397700">
<ele>479.679993</ele>
<time>2021-04-28T12:17:17.263Z</time>
</trkpt>
<trkpt lat="31.8089900" lon="35.0398600">
<ele>478.740021</ele>
<time>2021-04-28T12:17:17.263Z</time>
</trkpt>
<trkpt lat="31.8090500" lon="35.0399700">
<ele>477.589996</ele>
<time>2021-04-28T12:17:17.263Z</time>
</trkpt>
<trkpt lat="31.8091100" lon="35.0400800">
<ele>477.250000</ele>
<time>2021-04-28T12:17:17.263Z</time>
</trkpt>
<trkpt lat="31.8091600" lon="35.0401900">
<ele>477.250000</ele>
<time>2021-04-28T12:17:17.263Z</time>
</trkpt>
<trkpt lat="31.8092000" lon="35.0403100">
<ele>476.799988</ele>
<time>2021-04-28T12:17:17.263Z</time>
</trkpt>
<trkpt lat="31.8092200" lon="35.0404000">
<ele>476.870026</ele>
<time>2021-04-28T12:17:17.263Z</time>
</trkpt>
<trkpt lat="31.8092200" lon="35.0405200">
<ele>477.120026</ele>
<time>2021-04-28T12:17:17.263Z</time>
</trkpt>
<trkpt lat="31.8092200" lon="35.0406400">
<ele>477.500000</ele>
<time>2021-04-28T12:17:17.263Z</time>
</trkpt>
<trkpt lat="31.8092200" lon="35.0407600">
<ele>477.930023</ele>
<time>2021-04-28T12:17:17.263Z</time>
</trkpt>
<trkpt lat="31.8091900" lon="35.0408700">
<ele>478.470001</ele>
<time>2021-04-28T12:17:17.263Z</time>
</trkpt>
<trkpt lat="31.8091300" lon="35.0409500">
<ele>478.969971</ele>
<time>2021-04-28T12:17:17.263Z</time>
</trkpt>
<trkpt lat="31.8090700" lon="35.0410300">
<ele>479.569977</ele>
<time>2021-04-28T12:17:17.263Z</time>
</trkpt>
<trkpt lat="31.8090000" lon="35.0411100">
<ele>480.380005</ele>
<time>2021-04-28T12:17:17.263Z</time>
</trkpt>
<trkpt lat="31.8089300" lon="35.0411900">
<ele>480.590027</ele>
<time>2021-04-28T12:17:17.264Z</time>
</trkpt>
<trkpt lat="31.8088700" lon="35.0412900">
<ele>481.220001</ele>
<time>2021-04-28T12:17:17.264Z</time>
</trkpt>
<trkpt lat="31.8088100" lon="35.0413700">
<ele>481.809998</ele>
<time>2021-04-28T12:17:17.264Z</time>
</trkpt>
<trkpt lat="31.8087500" lon="35.0414500">
<ele>482.990021</ele>
<time>2021-04-28T12:17:17.264Z</time>
</trkpt>
<trkpt lat="31.8086800" lon="35.0415300">
<ele>483.899994</ele>
<time>2021-04-28T12:17:17.264Z</time>
</trkpt>
<trkpt lat="31.8085900" lon="35.0416000">
<ele>484.170013</ele>
<time>2021-04-28T12:17:17.264Z</time>
</trkpt>
<trkpt lat="31.8085000" lon="35.0416400">
<ele>484.239990</ele>
<time>2021-04-28T12:17:17.264Z</time>
</trkpt>
<trkpt lat="31.8084000" lon="35.0416800">
<ele>484.559998</ele>
<time>2021-04-28T12:17:17.264Z</time>
</trkpt>
<trkpt lat="31.8083100" lon="35.0417100">
<ele>485.019989</ele>
<time>2021-04-28T12:17:17.264Z</time>
</trkpt>
<trkpt lat="31.8082300" lon="35.0417600">
<ele>486.100006</ele>
<time>2021-04-28T12:17:17.264Z</time>
</trkpt>
<trkpt lat="31.8081700" lon="35.0418200">
<ele>487.600006</ele>
<time>2021-04-28T12:17:17.264Z</time>
</trkpt>
<trkpt lat="31.8081500" lon="35.0419600">
<ele>491.359985</ele>
<time>2021-04-28T12:17:17.264Z</time>
</trkpt>
<trkpt lat="31.8081300" lon="35.0420800">
<ele>494.059998</ele>
<time>2021-04-28T12:17:17.264Z</time>
</trkpt>
<trkpt lat="31.8081200" lon="35.0421900">
<ele>496.510010</ele>
<time>2021-04-28T12:17:17.264Z</time>
</trkpt>
<trkpt lat="31.8081200" lon="35.0423000">
<ele>498.290009</ele>
<time>2021-04-28T12:17:17.264Z</time>
</trkpt>
<trkpt lat="31.8081100" lon="35.0424100">
<ele>499.770020</ele>
<time>2021-04-28T12:17:17.264Z</time>
</trkpt>
<trkpt lat="31.8081100" lon="35.0425300">
<ele>501.319977</ele>
<time>2021-04-28T12:17:17.264Z</time>
</trkpt>
<trkpt lat="31.8081100" lon="35.0426400">
<ele>502.510010</ele>
<time>2021-04-28T12:17:17.264Z</time>
</trkpt>
<trkpt lat="31.8081100" lon="35.0427700">
<ele>503.920013</ele>
<time>2021-04-28T12:17:17.264Z</time>
</trkpt>
<trkpt lat="31.8081100" lon="35.0428900">
<ele>505.049988</ele>
<time>2021-04-28T12:17:17.264Z</time>
</trkpt>
<trkpt lat="31.8081100" lon="35.0429900">
<ele>505.980011</ele>
<time>2021-04-28T12:17:17.264Z</time>
</trkpt>
<trkpt lat="31.8081200" lon="35.0431200">
<ele>507.210022</ele>
<time>2021-04-28T12:17:17.264Z</time>
</trkpt>
<trkpt lat="31.8081200" lon="35.0432400">
<ele>508.179993</ele>
<time>2021-04-28T12:17:17.264Z</time>
</trkpt>
<trkpt lat="31.8081200" lon="35.0433600">
<ele>509.190002</ele>
<time>2021-04-28T12:17:17.264Z</time>
</trkpt>
<trkpt lat="31.8081200" lon="35.0434600">
<ele>510.190002</ele>
<time>2021-04-28T12:17:17.264Z</time>
</trkpt>
<trkpt lat="31.8081100" lon="35.0435600">
<ele>511.070007</ele>
<time>2021-04-28T12:17:17.264Z</time>
</trkpt>
<trkpt lat="31.8081100" lon="35.0436700">
<ele>512.390015</ele>
<time>2021-04-28T12:17:17.264Z</time>
</trkpt>
<trkpt lat="31.8081000" lon="35.0437900">
<ele>513.950012</ele>
<time>2021-04-28T12:17:17.265Z</time>
</trkpt>
<trkpt lat="31.8080800" lon="35.0439100">
<ele>515.390015</ele>
<time>2021-04-28T12:17:17.265Z</time>
</trkpt>
<trkpt lat="31.8080700" lon="35.0440400">
<ele>516.679993</ele>
<time>2021-04-28T12:17:17.265Z</time>
</trkpt>
<trkpt lat="31.8080600" lon="35.0441500">
<ele>517.820007</ele>
<time>2021-04-28T12:17:17.265Z</time>
</trkpt>
<trkpt lat="31.8080600" lon="35.0442700">
<ele>518.739990</ele>
<time>2021-04-28T12:17:17.265Z</time>
</trkpt>
<trkpt lat="31.8080500" lon="35.0443600">
<ele>519.190002</ele>
<time>2021-04-28T12:17:17.265Z</time>
</trkpt>
<trkpt lat="31.8080500" lon="35.0444700">
<ele>520.100037</ele>
<time>2021-04-28T12:17:17.265Z</time>
</trkpt>
<trkpt lat="31.8080500" lon="35.0445800">
<ele>521.279968</ele>
<time>2021-04-28T12:17:17.265Z</time>
</trkpt>
<trkpt lat="31.8080500" lon="35.0446900">
<ele>522.469971</ele>
<time>2021-04-28T12:17:17.265Z</time>
</trkpt>
<trkpt lat="31.8080500" lon="35.0448100">
<ele>523.140015</ele>
<time>2021-04-28T12:17:17.265Z</time>
</trkpt>
<trkpt lat="31.8080500" lon="35.0449100">
<ele>523.510010</ele>
<time>2021-04-28T12:17:17.265Z</time>
</trkpt>
<trkpt lat="31.8080500" lon="35.0450300">
<ele>524.160034</ele>
<time>2021-04-28T12:17:17.265Z</time>
</trkpt>
<trkpt lat="31.8080400" lon="35.0451400">
<ele>525.010010</ele>
<time>2021-04-28T12:17:17.265Z</time>
</trkpt>
<trkpt lat="31.8080400" lon="35.0452800">
<ele>526.460022</ele>
<time>2021-04-28T12:17:17.265Z</time>
</trkpt>
<trkpt lat="31.8080300" lon="35.0453900">
<ele>527.290039</ele>
<time>2021-04-28T12:17:17.265Z</time>
</trkpt>
<trkpt lat="31.8080200" lon="35.0455100">
<ele>528.229980</ele>
<time>2021-04-28T12:17:17.265Z</time>
</trkpt>
<trkpt lat="31.8080100" lon="35.0456300">
<ele>528.719971</ele>
<time>2021-04-28T12:17:17.265Z</time>
</trkpt>
<trkpt lat="31.8080000" lon="35.0457400">
<ele>528.929993</ele>
<time>2021-04-28T12:17:17.265Z</time>
</trkpt>
<trkpt lat="31.8079900" lon="35.0458500">
<ele>529.340027</ele>
<time>2021-04-28T12:17:17.265Z</time>
</trkpt>
<trkpt lat="31.8079800" lon="35.0459600">
<ele>530.520020</ele>
<time>2021-04-28T12:17:17.265Z</time>
</trkpt>
<trkpt lat="31.8079700" lon="35.0460800">
<ele>531.809998</ele>
<time>2021-04-28T12:17:17.265Z</time>
</trkpt>
<trkpt lat="31.8079600" lon="35.0461900">
<ele>532.659973</ele>
<time>2021-04-28T12:17:17.265Z</time>
</trkpt>
<trkpt lat="31.8079400" lon="35.0463200">
<ele>533.200012</ele>
<time>2021-04-28T12:17:17.265Z</time>
</trkpt>
<trkpt lat="31.8079100" lon="35.0464500">
<ele>533.420044</ele>
<time>2021-04-28T12:17:17.265Z</time>
</trkpt>
<trkpt lat="31.8078800" lon="35.0465800">
<ele>533.739990</ele>
<time>2021-04-28T12:17:17.265Z</time>
</trkpt>
<trkpt lat="31.8078600" lon="35.0467000">
<ele>534.350037</ele>
<time>2021-04-28T12:17:17.265Z</time>
</trkpt>
<trkpt lat="31.8078500" lon="35.0468100">
<ele>535.380005</ele>
<time>2021-04-28T12:17:17.266Z</time>
</trkpt>
<trkpt lat="31.8078400" lon="35.0469200">
<ele>536.570007</ele>
<time>2021-04-28T12:17:17.266Z</time>
</trkpt>
<trkpt lat="31.8078400" lon="35.0470300">
<ele>537.029968</ele>
<time>2021-04-28T12:17:17.266Z</time>
</trkpt>
<trkpt lat="31.8078300" lon="35.0471500">
<ele>537.029968</ele>
<time>2021-04-28T12:17:17.266Z</time>
</trkpt>
<trkpt lat="31.8078300" lon="35.0472600">
<ele>537.539978</ele>
<time>2021-04-28T12:17:17.266Z</time>
</trkpt>
<trkpt lat="31.8078300" lon="35.0473800">
<ele>538.830017</ele>
<time>2021-04-28T12:17:17.266Z</time>
</trkpt>
<trkpt lat="31.8078400" lon="35.0475000">
<ele>540.340027</ele>
<time>2021-04-28T12:17:17.266Z</time>
</trkpt>
<trkpt lat="31.8078500" lon="35.0476200">
<ele>542.289978</ele>
<time>2021-04-28T12:17:17.266Z</time>
</trkpt>
<trkpt lat="31.8078600" lon="35.0477300">
<ele>544.089966</ele>
<time>2021-04-28T12:17:17.266Z</time>
</trkpt>
<trkpt lat="31.8078800" lon="35.0478400">
<ele>545.289978</ele>
<time>2021-04-28T12:17:17.266Z</time>
</trkpt>
<trkpt lat="31.8079000" lon="35.0479500">
<ele>545.910034</ele>
<time>2021-04-28T12:17:17.266Z</time>
</trkpt>
<trkpt lat="31.8079300" lon="35.0480600">
<ele>546.859985</ele>
<time>2021-04-28T12:17:17.266Z</time>
</trkpt>
<trkpt lat="31.8079600" lon="35.0481700">
<ele>548.270020</ele>
<time>2021-04-28T12:17:17.266Z</time>
</trkpt>
<trkpt lat="31.8080000" lon="35.0482800">
<ele>550.049988</ele>
<time>2021-04-28T12:17:17.266Z</time>
</trkpt>
<trkpt lat="31.8080400" lon="35.0483800">
<ele>551.559998</ele>
<time>2021-04-28T12:17:17.266Z</time>
</trkpt>
<trkpt lat="31.8080600" lon="35.0484800">
<ele>552.080017</ele>
<time>2021-04-28T12:17:17.266Z</time>
</trkpt>
<trkpt lat="31.8080900" lon="35.0485900">
<ele>552.729980</ele>
<time>2021-04-28T12:17:17.266Z</time>
</trkpt>
<trkpt lat="31.8081000" lon="35.0487000">
<ele>553.380005</ele>
<time>2021-04-28T12:17:17.266Z</time>
</trkpt>
<trkpt lat="31.8081300" lon="35.0488100">
<ele>554.710022</ele>
<time>2021-04-28T12:17:17.266Z</time>
</trkpt>
<trkpt lat="31.8081600" lon="35.0489100">
<ele>556.029968</ele>
<time>2021-04-28T12:17:17.266Z</time>
</trkpt>
<trkpt lat="31.8081900" lon="35.0490200">
<ele>556.890015</ele>
<time>2021-04-28T12:17:17.266Z</time>
</trkpt>
<trkpt lat="31.8082300" lon="35.0491200">
<ele>557.809998</ele>
<time>2021-04-28T12:17:17.266Z</time>
</trkpt>
<trkpt lat="31.8082700" lon="35.0492300">
<ele>558.609985</ele>
<time>2021-04-28T12:17:17.266Z</time>
</trkpt>
<trkpt lat="31.8083200" lon="35.0493400">
<ele>559.210022</ele>
<time>2021-04-28T12:17:17.266Z</time>
</trkpt>
<trkpt lat="31.8083700" lon="35.0494300">
<ele>559.070007</ele>
<time>2021-04-28T12:17:17.266Z</time>
</trkpt>
<trkpt lat="31.8084300" lon="35.0495300">
<ele>558.599976</ele>
<time>2021-04-28T12:17:17.266Z</time>
</trkpt>
<trkpt lat="31.8084900" lon="35.0496200">
<ele>558.450012</ele>
<time>2021-04-28T12:17:17.266Z</time>
</trkpt>
<trkpt lat="31.8085400" lon="35.0497100">
<ele>558.510010</ele>
<time>2021-04-28T12:17:17.266Z</time>
</trkpt>
<trkpt lat="31.8085500" lon="35.0498200">
<ele>558.359985</ele>
<time>2021-04-28T12:17:17.267Z</time>
</trkpt>
<trkpt lat="31.8085500" lon="35.0499000">
<ele>558.200012</ele>
<time>2021-04-28T12:17:17.267Z</time>
</trkpt>
<trkpt lat="31.8085500" lon="35.0500100">
<ele>558.020020</ele>
<time>2021-04-28T12:17:17.267Z</time>
</trkpt>
<trkpt lat="31.8084900" lon="35.0500500">
<ele>558.239990</ele>
<time>2021-04-28T12:17:17.267Z</time>
</trkpt>
<trkpt lat="31.8084000" lon="35.0501000">
<ele>558.820007</ele>
<time>2021-04-28T12:17:17.267Z</time>
</trkpt>
<trkpt lat="31.8083000" lon="35.0501500">
<ele>559.669983</ele>
<time>2021-04-28T12:17:17.267Z</time>
</trkpt>
<trkpt lat="31.8082100" lon="35.0501900">
<ele>560.030029</ele>
<time>2021-04-28T12:17:17.267Z</time>
</trkpt>
<trkpt lat="31.8081100" lon="35.0502200">
<ele>560.070007</ele>
<time>2021-04-28T12:17:17.267Z</time>
</trkpt>
<trkpt lat="31.8079900" lon="35.0502500">
<ele>559.429993</ele>
<time>2021-04-28T12:17:17.267Z</time>
</trkpt>
<trkpt lat="31.8079000" lon="35.0502700">
<ele>558.820007</ele>
<time>2021-04-28T12:17:17.267Z</time>
</trkpt>
<trkpt lat="31.8078100" lon="35.0503100">
<ele>558.700012</ele>
<time>2021-04-28T12:17:17.267Z</time>
</trkpt>
<trkpt lat="31.8077000" lon="35.0503600">
<ele>558.150024</ele>
<time>2021-04-28T12:17:17.267Z</time>
</trkpt>
<trkpt lat="31.8075900" lon="35.0504200">
<ele>557.690002</ele>
<time>2021-04-28T12:17:17.267Z</time>
</trkpt>
<trkpt lat="31.8074800" lon="35.0504900">
<ele>557.399963</ele>
<time>2021-04-28T12:17:17.267Z</time>
</trkpt>
<trkpt lat="31.8073900" lon="35.0505800">
<ele>557.080017</ele>
<time>2021-04-28T12:17:17.267Z</time>
</trkpt>
<trkpt lat="31.8073300" lon="35.0507300">
<ele>558.330017</ele>
<time>2021-04-28T12:17:17.267Z</time>
</trkpt>
<trkpt lat="31.8073100" lon="35.0508900">
<ele>560.470032</ele>
<time>2021-04-28T12:17:17.267Z</time>
</trkpt>
<trkpt lat="31.8073100" lon="35.0510000">
<ele>562.309998</ele>
<time>2021-04-28T12:17:17.267Z</time>
</trkpt>
<trkpt lat="31.8073100" lon="35.0511300">
<ele>564.070007</ele>
<time>2021-04-28T12:17:17.267Z</time>
</trkpt>
<trkpt lat="31.8073100" lon="35.0512500">
<ele>563.500000</ele>
<time>2021-04-28T12:17:17.267Z</time>
</trkpt>
<trkpt lat="31.8073200" lon="35.0513900">
<ele>563.160034</ele>
<time>2021-04-28T12:17:17.267Z</time>
</trkpt>
<trkpt lat="31.8073300" lon="35.0514900">
<ele>562.849976</ele>
<time>2021-04-28T12:17:17.267Z</time>
</trkpt>
<trkpt lat="31.8073500" lon="35.0516000">
<ele>562.679993</ele>
<time>2021-04-28T12:17:17.267Z</time>
</trkpt>
<trkpt lat="31.8073800" lon="35.0517100">
<ele>562.579956</ele>
<time>2021-04-28T12:17:17.267Z</time>
</trkpt>
<trkpt lat="31.8074200" lon="35.0518300">
<ele>562.390015</ele>
<time>2021-04-28T12:17:17.267Z</time>
</trkpt>
<trkpt lat="31.8074800" lon="35.0519600">
<ele>562.570007</ele>
<time>2021-04-28T12:17:17.267Z</time>
</trkpt>
<trkpt lat="31.8075600" lon="35.0520900">
<ele>563.529968</ele>
<time>2021-04-28T12:17:17.267Z</time>
</trkpt>
<trkpt lat="31.8076200" lon="35.0521800">
<ele>563.929993</ele>
<time>2021-04-28T12:17:17.267Z</time>
</trkpt>
<trkpt lat="31.8076800" lon="35.0522800">
<ele>564.090027</ele>
<time>2021-04-28T12:17:17.267Z</time>
</trkpt>
<trkpt lat="31.8077500" lon="35.0523900">
<ele>564.200012</ele>
<time>2021-04-28T12:17:17.267Z</time>
</trkpt>
<trkpt lat="31.8078200" lon="35.0525100">
<ele>563.710022</ele>
<time>2021-04-28T12:17:17.267Z</time>
</trkpt>
<trkpt lat="31.8079100" lon="35.0526300">
<ele>561.869995</ele>
<time>2021-04-28T12:17:17.268Z</time>
</trkpt>
<trkpt lat="31.8079900" lon="35.0527600">
<ele>560.210022</ele>
<time>2021-04-28T12:17:17.268Z</time>
</trkpt>
<trkpt lat="31.8080800" lon="35.0529200">
<ele>558.979980</ele>
<time>2021-04-28T12:17:17.268Z</time>
</trkpt>
<trkpt lat="31.8081700" lon="35.0530800">
<ele>557.650024</ele>
<time>2021-04-28T12:17:17.268Z</time>
</trkpt>
<trkpt lat="31.8082500" lon="35.0532600">
<ele>555.059998</ele>
<time>2021-04-28T12:17:17.268Z</time>
</trkpt>
<trkpt lat="31.8082900" lon="35.0533500">
<ele>554.039978</ele>
<time>2021-04-28T12:17:17.268Z</time>
</trkpt>
<trkpt lat="31.8083700" lon="35.0535200">
<ele>554.539978</ele>
<time>2021-04-28T12:17:17.268Z</time>
</trkpt>
<trkpt lat="31.8084400" lon="35.0536900">
<ele>554.049988</ele>
<time>2021-04-28T12:17:17.268Z</time>
</trkpt>
<trkpt lat="31.8084700" lon="35.0538500">
<ele>552.789978</ele>
<time>2021-04-28T12:17:17.268Z</time>
</trkpt>
<trkpt lat="31.8084900" lon="35.0540200">
<ele>552.020020</ele>
<time>2021-04-28T12:17:17.268Z</time>
</trkpt>
<trkpt lat="31.8084900" lon="35.0541900">
<ele>551.529968</ele>
<time>2021-04-28T12:17:17.268Z</time>
</trkpt>
<trkpt lat="31.8084900" lon="35.0543800">
<ele>551.229980</ele>
<time>2021-04-28T12:17:17.268Z</time>
</trkpt>
<trkpt lat="31.8084900" lon="35.0545500">
<ele>551.510010</ele>
<time>2021-04-28T12:17:17.268Z</time>
</trkpt>
<trkpt lat="31.8084700" lon="35.0547100">
<ele>551.940002</ele>
<time>2021-04-28T12:17:17.268Z</time>
</trkpt>
<trkpt lat="31.8084700" lon="35.0548500">
<ele>552.440002</ele>
<time>2021-04-28T12:17:17.268Z</time>
</trkpt>
<trkpt lat="31.8084600" lon="35.0549700">
<ele>552.799988</ele>
<time>2021-04-28T12:17:17.268Z</time>
</trkpt>
<trkpt lat="31.8084600" lon="35.0550800">
<ele>553.359985</ele>
<time>2021-04-28T12:17:17.268Z</time>
</trkpt>
<trkpt lat="31.8084600" lon="35.0551800">
<ele>553.910034</ele>
<time>2021-04-28T12:17:17.268Z</time>
</trkpt>
<trkpt lat="31.8084600" lon="35.0553200">
<ele>554.210022</ele>
<time>2021-04-28T12:17:17.268Z</time>
</trkpt>
<trkpt lat="31.8084600" lon="35.0554800">
<ele>553.270020</ele>
<time>2021-04-28T12:17:17.268Z</time>
</trkpt>
<trkpt lat="31.8084700" lon="35.0556300">
<ele>552.830017</ele>
<time>2021-04-28T12:17:17.268Z</time>
</trkpt>
<trkpt lat="31.8084800" lon="35.0557500">
<ele>552.779968</ele>
<time>2021-04-28T12:17:17.268Z</time>
</trkpt>
<trkpt lat="31.8084900" lon="35.0558800">
<ele>552.630005</ele>
<time>2021-04-28T12:17:17.268Z</time>
</trkpt>
<trkpt lat="31.8085100" lon="35.0560200">
<ele>552.330017</ele>
<time>2021-04-28T12:17:17.268Z</time>
</trkpt>
<trkpt lat="31.8085300" lon="35.0561700">
<ele>551.640015</ele>
<time>2021-04-28T12:17:17.268Z</time>
</trkpt>
<trkpt lat="31.8085500" lon="35.0563400">
<ele>550.510010</ele>
<time>2021-04-28T12:17:17.268Z</time>
</trkpt>
<trkpt lat="31.8085900" lon="35.0565200">
<ele>549.279968</ele>
<time>2021-04-28T12:17:17.268Z</time>
</trkpt>
<trkpt lat="31.8086200" lon="35.0566900">
<ele>547.929993</ele>
<time>2021-04-28T12:17:17.269Z</time>
</trkpt>
<trkpt lat="31.8086600" lon="35.0568600">
<ele>547.140015</ele>
<time>2021-04-28T12:17:17.269Z</time>
</trkpt>
<trkpt lat="31.8087000" lon="35.0570300">
<ele>546.859985</ele>
<time>2021-04-28T12:17:17.269Z</time>
</trkpt>
<trkpt lat="31.8087400" lon="35.0571800">
<ele>547.000000</ele>
<time>2021-04-28T12:17:17.269Z</time>
</trkpt>
<trkpt lat="31.8087700" lon="35.0573300">
<ele>547.369995</ele>
<time>2021-04-28T12:17:17.269Z</time>
</trkpt>
<trkpt lat="31.8087900" lon="35.0574800">
<ele>547.890015</ele>
<time>2021-04-28T12:17:17.269Z</time>
</trkpt>
<trkpt lat="31.8088200" lon="35.0576200">
<ele>548.260010</ele>
<time>2021-04-28T12:17:17.269Z</time>
</trkpt>
<trkpt lat="31.8088500" lon="35.0577500">
<ele>548.579956</ele>
<time>2021-04-28T12:17:17.269Z</time>
</trkpt>
<trkpt lat="31.8088800" lon="35.0578900">
<ele>548.489990</ele>
<time>2021-04-28T12:17:17.269Z</time>
</trkpt>
<trkpt lat="31.8089000" lon="35.0580400">
<ele>548.090027</ele>
<time>2021-04-28T12:17:17.269Z</time>
</trkpt>
<trkpt lat="31.8089100" lon="35.0582000">
<ele>547.640015</ele>
<time>2021-04-28T12:17:17.269Z</time>
</trkpt>
<trkpt lat="31.8089100" lon="35.0583600">
<ele>547.219971</ele>
<time>2021-04-28T12:17:17.269Z</time>
</trkpt>
<trkpt lat="31.8089200" lon="35.0585200">
<ele>547.260010</ele>
<time>2021-04-28T12:17:17.269Z</time>
</trkpt>
<trkpt lat="31.8089100" lon="35.0586800">
<ele>547.169983</ele>
<time>2021-04-28T12:17:17.269Z</time>
</trkpt>
<trkpt lat="31.8089100" lon="35.0588200">
<ele>547.209961</ele>
<time>2021-04-28T12:17:17.269Z</time>
</trkpt>
<trkpt lat="31.8089000" lon="35.0589500">
<ele>547.799988</ele>
<time>2021-04-28T12:17:17.269Z</time>
</trkpt>
<trkpt lat="31.8088900" lon="35.0590800">
<ele>549.080017</ele>
<time>2021-04-28T12:17:17.269Z</time>
</trkpt>
<trkpt lat="31.8088700" lon="35.0592200">
<ele>550.130005</ele>
<time>2021-04-28T12:17:17.269Z</time>
</trkpt>
<trkpt lat="31.8088500" lon="35.0593500">
<ele>550.849976</ele>
<time>2021-04-28T12:17:17.269Z</time>
</trkpt>
<trkpt lat="31.8088300" lon="35.0594600">
<ele>551.520020</ele>
<time>2021-04-28T12:17:17.269Z</time>
</trkpt>
<trkpt lat="31.8088100" lon="35.0595800">
<ele>552.470032</ele>
<time>2021-04-28T12:17:17.269Z</time>
</trkpt>
<trkpt lat="31.8088000" lon="35.0596900">
<ele>553.410034</ele>
<time>2021-04-28T12:17:17.269Z</time>
</trkpt>
<trkpt lat="31.8087700" lon="35.0597900">
<ele>553.919983</ele>
<time>2021-04-28T12:17:17.269Z</time>
</trkpt>
<trkpt lat="31.8087400" lon="35.0599100">
<ele>554.520020</ele>
<time>2021-04-28T12:17:17.269Z</time>
</trkpt>
<trkpt lat="31.8087200" lon="35.0600100">
<ele>555.099976</ele>
<time>2021-04-28T12:17:17.269Z</time>
</trkpt>
<trkpt lat="31.8086800" lon="35.0601300">
<ele>556.110046</ele>
<time>2021-04-28T12:17:17.269Z</time>
</trkpt>
<trkpt lat="31.8086400" lon="35.0602300">
<ele>556.830017</ele>
<time>2021-04-28T12:17:17.269Z</time>
</trkpt>
<trkpt lat="31.8086000" lon="35.0603400">
<ele>557.700012</ele>
<time>2021-04-28T12:17:17.269Z</time>
</trkpt>
<trkpt lat="31.8085600" lon="35.0604300">
<ele>558.369995</ele>
<time>2021-04-28T12:17:17.270Z</time>
</trkpt>
<trkpt lat="31.8085100" lon="35.0605300">
<ele>559.140015</ele>
<time>2021-04-28T12:17:17.270Z</time>
</trkpt>
<trkpt lat="31.8084800" lon="35.0606200">
<ele>560.040039</ele>
<time>2021-04-28T12:17:17.270Z</time>
</trkpt>
<trkpt lat="31.8084300" lon="35.0607100">
<ele>560.619995</ele>
<time>2021-04-28T12:17:17.270Z</time>
</trkpt>
<trkpt lat="31.8083900" lon="35.0608100">
<ele>561.479980</ele>
<time>2021-04-28T12:17:17.270Z</time>
</trkpt>
<trkpt lat="31.8083400" lon="35.0609100">
<ele>561.390015</ele>
<time>2021-04-28T12:17:17.270Z</time>
</trkpt>
<trkpt lat="31.8083000" lon="35.0610200">
<ele>560.950012</ele>
<time>2021-04-28T12:17:17.270Z</time>
</trkpt>
<trkpt lat="31.8082600" lon="35.0611200">
<ele>560.489990</ele>
<time>2021-04-28T12:17:17.270Z</time>
</trkpt>
<trkpt lat="31.8082200" lon="35.0612200">
<ele>560.500000</ele>
<time>2021-04-28T12:17:17.270Z</time>
</trkpt>
<trkpt lat="31.8081600" lon="35.0613200">
<ele>560.229980</ele>
<time>2021-04-28T12:17:17.270Z</time>
</trkpt>
<trkpt lat="31.8081000" lon="35.0614100">
<ele>560.119995</ele>
<time>2021-04-28T12:17:17.270Z</time>
</trkpt>
<trkpt lat="31.8080500" lon="35.0614900">
<ele>560.399963</ele>
<time>2021-04-28T12:17:17.270Z</time>
</trkpt>
<trkpt lat="31.8079900" lon="35.0615800">
<ele>561.299988</ele>
<time>2021-04-28T12:17:17.270Z</time>
</trkpt>
<trkpt lat="31.8079200" lon="35.0616700">
<ele>562.549988</ele>
<time>2021-04-28T12:17:17.270Z</time>
</trkpt>
<trkpt lat="31.8078600" lon="35.0617500">
<ele>563.160034</ele>
<time>2021-04-28T12:17:17.270Z</time>
</trkpt>
<trkpt lat="31.8077900" lon="35.0618300">
<ele>563.299988</ele>
<time>2021-04-28T12:17:17.270Z</time>
</trkpt>
<trkpt lat="31.8077300" lon="35.0619100">
<ele>563.539978</ele>
<time>2021-04-28T12:17:17.270Z</time>
</trkpt>
<trkpt lat="31.8076700" lon="35.0619900">
<ele>564.140015</ele>
<time>2021-04-28T12:17:17.270Z</time>
</trkpt>
<trkpt lat="31.8076000" lon="35.0620700">
<ele>564.589966</ele>
<time>2021-04-28T12:17:17.270Z</time>
</trkpt>
<trkpt lat="31.8075300" lon="35.0621700">
<ele>564.909973</ele>
<time>2021-04-28T12:17:17.270Z</time>
</trkpt>
<trkpt lat="31.8074700" lon="35.0622600">
<ele>565.270020</ele>
<time>2021-04-28T12:17:17.270Z</time>
</trkpt>
<trkpt lat="31.8073900" lon="35.0623600">
<ele>565.700012</ele>
<time>2021-04-28T12:17:17.270Z</time>
</trkpt>
<trkpt lat="31.8073100" lon="35.0624500">
<ele>565.650024</ele>
<time>2021-04-28T12:17:17.270Z</time>
</trkpt>
<trkpt lat="31.8072500" lon="35.0625300">
<ele>565.619995</ele>
<time>2021-04-28T12:17:17.270Z</time>
</trkpt>
<trkpt lat="31.8071800" lon="35.0626100">
<ele>565.979980</ele>
<time>2021-04-28T12:17:17.270Z</time>
</trkpt>
<trkpt lat="31.8071200" lon="35.0626900">
<ele>566.429993</ele>
<time>2021-04-28T12:17:17.270Z</time>
</trkpt>
<trkpt lat="31.8070600" lon="35.0627700">
<ele>566.760010</ele>
<time>2021-04-28T12:17:17.270Z</time>
</trkpt>
<trkpt lat="31.8069700" lon="35.0628600">
<ele>566.779968</ele>
<time>2021-04-28T12:17:17.271Z</time>
</trkpt>
<trkpt lat="31.8068900" lon="35.0629300">
<ele>566.510010</ele>
<time>2021-04-28T12:17:17.271Z</time>
</trkpt>
<trkpt lat="31.8068100" lon="35.0630200">
<ele>566.290039</ele>
<time>2021-04-28T12:17:17.271Z</time>
</trkpt>
<trkpt lat="31.8067300" lon="35.0631200">
<ele>566.510010</ele>
<time>2021-04-28T12:17:17.271Z</time>
</trkpt>
<trkpt lat="31.8066500" lon="35.0632200">
<ele>566.980042</ele>
<time>2021-04-28T12:17:17.271Z</time>
</trkpt>
<trkpt lat="31.8065600" lon="35.0633400">
<ele>566.779968</ele>
<time>2021-04-28T12:17:17.271Z</time>
</trkpt>
<trkpt lat="31.8065000" lon="35.0634300">
<ele>566.649963</ele>
<time>2021-04-28T12:17:17.271Z</time>
</trkpt>
<trkpt lat="31.8064400" lon="35.0635300">
<ele>566.809998</ele>
<time>2021-04-28T12:17:17.271Z</time>
</trkpt>
<trkpt lat="31.8063800" lon="35.0636200">
<ele>566.929993</ele>
<time>2021-04-28T12:17:17.271Z</time>
</trkpt>
<trkpt lat="31.8063100" lon="35.0637300">
<ele>566.890015</ele>
<time>2021-04-28T12:17:17.271Z</time>
</trkpt>
<trkpt lat="31.8062500" lon="35.0638100">
<ele>566.510010</ele>
<time>2021-04-28T12:17:17.271Z</time>
</trkpt>
<trkpt lat="31.8061900" lon="35.0639000">
<ele>566.160034</ele>
<time>2021-04-28T12:17:17.271Z</time>
</trkpt>
<trkpt lat="31.8061300" lon="35.0640000">
<ele>566.099976</ele>
<time>2021-04-28T12:17:17.271Z</time>
</trkpt>
<trkpt lat="31.8060700" lon="35.0640900">
<ele>566.070007</ele>
<time>2021-04-28T12:17:17.271Z</time>
</trkpt>
<trkpt lat="31.8060000" lon="35.0641900">
<ele>566.290039</ele>
<time>2021-04-28T12:17:17.271Z</time>
</trkpt>
<trkpt lat="31.8059400" lon="35.0643000">
<ele>566.659973</ele>
<time>2021-04-28T12:17:17.271Z</time>
</trkpt>
<trkpt lat="31.8058700" lon="35.0644100">
<ele>567.049988</ele>
<time>2021-04-28T12:17:17.271Z</time>
</trkpt>
<trkpt lat="31.8058000" lon="35.0645300">
<ele>567.400024</ele>
<time>2021-04-28T12:17:17.271Z</time>
</trkpt>
<trkpt lat="31.8057300" lon="35.0646500">
<ele>567.910034</ele>
<time>2021-04-28T12:17:17.271Z</time>
</trkpt>
<trkpt lat="31.8056600" lon="35.0647700">
<ele>568.510010</ele>
<time>2021-04-28T12:17:17.271Z</time>
</trkpt>
<trkpt lat="31.8055900" lon="35.0648800">
<ele>568.940002</ele>
<time>2021-04-28T12:17:17.271Z</time>
</trkpt>
<trkpt lat="31.8055200" lon="35.0649900">
<ele>568.859985</ele>
<time>2021-04-28T12:17:17.271Z</time>
</trkpt>
<trkpt lat="31.8054500" lon="35.0651000">
<ele>567.640015</ele>
<time>2021-04-28T12:17:17.271Z</time>
</trkpt>
<trkpt lat="31.8053700" lon="35.0652000">
<ele>567.059998</ele>
<time>2021-04-28T12:17:17.271Z</time>
</trkpt>
<trkpt lat="31.8052900" lon="35.0652800">
<ele>567.159973</ele>
<time>2021-04-28T12:17:17.271Z</time>
</trkpt>
<trkpt lat="31.8052100" lon="35.0653800">
<ele>567.920044</ele>
<time>2021-04-28T12:17:17.271Z</time>
</trkpt>
<trkpt lat="31.8051400" lon="35.0654700">
<ele>568.969971</ele>
<time>2021-04-28T12:17:17.271Z</time>
</trkpt>
<trkpt lat="31.8050700" lon="35.0655500">
<ele>570.140015</ele>
<time>2021-04-28T12:17:17.271Z</time>
</trkpt>
<trkpt lat="31.8050200" lon="35.0656500">
<ele>572.059998</ele>
<time>2021-04-28T12:17:17.272Z</time>
</trkpt>
<trkpt lat="31.8049800" lon="35.0657500">
<ele>573.750000</ele>
<time>2021-04-28T12:17:17.272Z</time>
</trkpt>
<trkpt lat="31.8049400" lon="35.0658500">
<ele>575.020020</ele>
<time>2021-04-28T12:17:17.272Z</time>
</trkpt>
<trkpt lat="31.8048800" lon="35.0659500">
<ele>575.690002</ele>
<time>2021-04-28T12:17:17.272Z</time>
</trkpt>
<trkpt lat="31.8048400" lon="35.0660400">
<ele>576.690002</ele>
<time>2021-04-28T12:17:17.272Z</time>
</trkpt>
<trkpt lat="31.8048200" lon="35.0661700">
<ele>578.410034</ele>
<time>2021-04-28T12:17:17.272Z</time>
</trkpt>
<trkpt lat="31.8048000" lon="35.0662900">
<ele>579.229980</ele>
<time>2021-04-28T12:17:17.272Z</time>
</trkpt>
<trkpt lat="31.8047900" lon="35.0664100">
<ele>580.099976</ele>
<time>2021-04-28T12:17:17.272Z</time>
</trkpt>
<trkpt lat="31.8047700" lon="35.0665300">
<ele>580.390015</ele>
<time>2021-04-28T12:17:17.272Z</time>
</trkpt>
<trkpt lat="31.8047500" lon="35.0666300">
<ele>580.539978</ele>
<time>2021-04-28T12:17:17.272Z</time>
</trkpt>
<trkpt lat="31.8047100" lon="35.0667200">
<ele>580.500000</ele>
<time>2021-04-28T12:17:17.272Z</time>
</trkpt>
<trkpt lat="31.8046500" lon="35.0668200">
<ele>580.649963</ele>
<time>2021-04-28T12:17:17.272Z</time>
</trkpt>
<trkpt lat="31.8045900" lon="35.0669000">
<ele>580.500000</ele>
<time>2021-04-28T12:17:17.272Z</time>
</trkpt>
<trkpt lat="31.8045200" lon="35.0669800">
<ele>580.229980</ele>
<time>2021-04-28T12:17:17.272Z</time>
</trkpt>
<trkpt lat="31.8044500" lon="35.0670600">
<ele>580.570007</ele>
<time>2021-04-28T12:17:17.272Z</time>
</trkpt>
<trkpt lat="31.8043800" lon="35.0671500">
<ele>581.169983</ele>
<time>2021-04-28T12:17:17.272Z</time>
</trkpt>
<trkpt lat="31.8043300" lon="35.0672400">
<ele>581.750000</ele>
<time>2021-04-28T12:17:17.272Z</time>
</trkpt>
<trkpt lat="31.8043000" lon="35.0673500">
<ele>582.500000</ele>
<time>2021-04-28T12:17:17.272Z</time>
</trkpt>
<trkpt lat="31.8042900" lon="35.0674700">
<ele>583.840027</ele>
<time>2021-04-28T12:17:17.272Z</time>
</trkpt>
<trkpt lat="31.8042800" lon="35.0675900">
<ele>584.559998</ele>
<time>2021-04-28T12:17:17.272Z</time>
</trkpt>
<trkpt lat="31.8042700" lon="35.0677100">
<ele>585.090027</ele>
<time>2021-04-28T12:17:17.272Z</time>
</trkpt>
<trkpt lat="31.8042600" lon="35.0678400">
<ele>585.119995</ele>
<time>2021-04-28T12:17:17.272Z</time>
</trkpt>
<trkpt lat="31.8042500" lon="35.0679500">
<ele>584.579956</ele>
<time>2021-04-28T12:17:17.272Z</time>
</trkpt>
<trkpt lat="31.8042400" lon="35.0681000">
<ele>584.100037</ele>
<time>2021-04-28T12:17:17.272Z</time>
</trkpt>
<trkpt lat="31.8042200" lon="35.0682300">
<ele>583.890015</ele>
<time>2021-04-28T12:17:17.272Z</time>
</trkpt>
<trkpt lat="31.8041800" lon="35.0683500">
<ele>583.359985</ele>
<time>2021-04-28T12:17:17.272Z</time>
</trkpt>
<trkpt lat="31.8041300" lon="35.0684900">
<ele>583.200012</ele>
<time>2021-04-28T12:17:17.272Z</time>
</trkpt>
<trkpt lat="31.8040800" lon="35.0686100">
<ele>582.809998</ele>
<time>2021-04-28T12:17:17.273Z</time>
</trkpt>
<trkpt lat="31.8040300" lon="35.0687400">
<ele>582.250000</ele>
<time>2021-04-28T12:17:17.273Z</time>
</trkpt>
<trkpt lat="31.8039700" lon="35.0688600">
<ele>581.570007</ele>
<time>2021-04-28T12:17:17.273Z</time>
</trkpt>
<trkpt lat="31.8038900" lon="35.0689900">
<ele>581.119995</ele>
<time>2021-04-28T12:17:17.273Z</time>
</trkpt>
<trkpt lat="31.8038200" lon="35.0691100">
<ele>580.349976</ele>
<time>2021-04-28T12:17:17.273Z</time>
</trkpt>
<trkpt lat="31.8037400" lon="35.0692200">
<ele>579.489990</ele>
<time>2021-04-28T12:17:17.273Z</time>
</trkpt>
<trkpt lat="31.8036700" lon="35.0693300">
<ele>579.390015</ele>
<time>2021-04-28T12:17:17.273Z</time>
</trkpt>
<trkpt lat="31.8035900" lon="35.0694300">
<ele>579.210022</ele>
<time>2021-04-28T12:17:17.273Z</time>
</trkpt>
<trkpt lat="31.8035200" lon="35.0695400">
<ele>578.960022</ele>
<time>2021-04-28T12:17:17.273Z</time>
</trkpt>
<trkpt lat="31.8034400" lon="35.0696600">
<ele>578.970032</ele>
<time>2021-04-28T12:17:17.273Z</time>
</trkpt>
<trkpt lat="31.8033600" lon="35.0697800">
<ele>579.979980</ele>
<time>2021-04-28T12:17:17.273Z</time>
</trkpt>
<trkpt lat="31.8032700" lon="35.0699100">
<ele>580.669983</ele>
<time>2021-04-28T12:17:17.273Z</time>
</trkpt>
<trkpt lat="31.8031900" lon="35.0700500">
<ele>580.909973</ele>
<time>2021-04-28T12:17:17.273Z</time>
</trkpt>
<trkpt lat="31.8031000" lon="35.0701900">
<ele>579.770020</ele>
<time>2021-04-28T12:17:17.273Z</time>
</trkpt>
<trkpt lat="31.8030100" lon="35.0703200">
<ele>578.710022</ele>
<time>2021-04-28T12:17:17.273Z</time>
</trkpt>
<trkpt lat="31.8029200" lon="35.0704500">
<ele>578.700012</ele>
<time>2021-04-28T12:17:17.273Z</time>
</trkpt>
<trkpt lat="31.8028300" lon="35.0706000">
<ele>578.010010</ele>
<time>2021-04-28T12:17:17.273Z</time>
</trkpt>
<trkpt lat="31.8027400" lon="35.0707500">
<ele>576.760010</ele>
<time>2021-04-28T12:17:17.273Z</time>
</trkpt>
<trkpt lat="31.8026600" lon="35.0709000">
<ele>576.359985</ele>
<time>2021-04-28T12:17:17.273Z</time>
</trkpt>
<trkpt lat="31.8025700" lon="35.0710400">
<ele>575.750000</ele>
<time>2021-04-28T12:17:17.273Z</time>
</trkpt>
<trkpt lat="31.8025000" lon="35.0711800">
<ele>575.989990</ele>
<time>2021-04-28T12:17:17.273Z</time>
</trkpt>
<trkpt lat="31.8024400" lon="35.0713000">
<ele>577.219971</ele>
<time>2021-04-28T12:17:17.273Z</time>
</trkpt>
<trkpt lat="31.8024000" lon="35.0714100">
<ele>578.510010</ele>
<time>2021-04-28T12:17:17.273Z</time>
</trkpt>
<trkpt lat="31.8023800" lon="35.0715300">
<ele>579.659973</ele>
<time>2021-04-28T12:17:17.273Z</time>
</trkpt>
<trkpt lat="31.8023700" lon="35.0716400">
<ele>580.779968</ele>
<time>2021-04-28T12:17:17.273Z</time>
</trkpt>
<trkpt lat="31.8023600" lon="35.0717700">
<ele>581.549988</ele>
<time>2021-04-28T12:17:17.273Z</time>
</trkpt>
<trkpt lat="31.8023500" lon="35.0718900">
<ele>582.159973</ele>
<time>2021-04-28T12:17:17.273Z</time>
</trkpt>
<trkpt lat="31.8023400" lon="35.0720000">
<ele>582.539978</ele>
<time>2021-04-28T12:17:17.273Z</time>
</trkpt>
<trkpt lat="31.8023000" lon="35.0721200">
<ele>582.739990</ele>
<time>2021-04-28T12:17:17.274Z</time>
</trkpt>
<trkpt lat="31.8022400" lon="35.0722000">
<ele>582.929993</ele>
<time>2021-04-28T12:17:17.274Z</time>
</trkpt>
<trkpt lat="31.8021800" lon="35.0722900">
<ele>582.020020</ele>
<time>2021-04-28T12:17:17.274Z</time>
</trkpt>
<trkpt lat="31.8021100" lon="35.0723800">
<ele>580.420044</ele>
<time>2021-04-28T12:17:17.274Z</time>
</trkpt>
<trkpt lat="31.8020500" lon="35.0724800">
<ele>578.710022</ele>
<time>2021-04-28T12:17:17.274Z</time>
</trkpt>
<trkpt lat="31.8020000" lon="35.0725900">
<ele>576.829956</ele>
<time>2021-04-28T12:17:17.274Z</time>
</trkpt>
<trkpt lat="31.8019400" lon="35.0726800">
<ele>575.780029</ele>
<time>2021-04-28T12:17:17.274Z</time>
</trkpt>
<trkpt lat="31.8018900" lon="35.0727700">
<ele>576.220032</ele>
<time>2021-04-28T12:17:17.274Z</time>
</trkpt>
<trkpt lat="31.8018300" lon="35.0728500">
<ele>576.950012</ele>
<time>2021-04-28T12:17:17.274Z</time>
</trkpt>
<trkpt lat="31.8017800" lon="35.0729400">
<ele>577.380005</ele>
<time>2021-04-28T12:17:17.274Z</time>
</trkpt>
<trkpt lat="31.8017300" lon="35.0730300">
<ele>577.820007</ele>
<time>2021-04-28T12:17:17.274Z</time>
</trkpt>
<trkpt lat="31.8016800" lon="35.0731300">
<ele>577.880005</ele>
<time>2021-04-28T12:17:17.274Z</time>
</trkpt>
<trkpt lat="31.8016300" lon="35.0732300">
<ele>577.890015</ele>
<time>2021-04-28T12:17:17.274Z</time>
</trkpt>
<trkpt lat="31.8015900" lon="35.0733300">
<ele>577.960022</ele>
<time>2021-04-28T12:17:17.274Z</time>
</trkpt>
<trkpt lat="31.8015500" lon="35.0734300">
<ele>577.989990</ele>
<time>2021-04-28T12:17:17.274Z</time>
</trkpt>
<trkpt lat="31.8015200" lon="35.0735400">
<ele>577.899963</ele>
<time>2021-04-28T12:17:17.274Z</time>
</trkpt>
<trkpt lat="31.8014900" lon="35.0736500">
<ele>578.039978</ele>
<time>2021-04-28T12:17:17.274Z</time>
</trkpt>
<trkpt lat="31.8014700" lon="35.0737700">
<ele>577.700012</ele>
<time>2021-04-28T12:17:17.274Z</time>
</trkpt>
<trkpt lat="31.8014400" lon="35.0738800">
<ele>577.609985</ele>
<time>2021-04-28T12:17:17.274Z</time>
</trkpt>
<trkpt lat="31.8014100" lon="35.0739900">
<ele>576.880005</ele>
<time>2021-04-28T12:17:17.274Z</time>
</trkpt>
<trkpt lat="31.8013700" lon="35.0741000">
<ele>576.369995</ele>
<time>2021-04-28T12:17:17.274Z</time>
</trkpt>
<trkpt lat="31.8013300" lon="35.0742200">
<ele>575.700012</ele>
<time>2021-04-28T12:17:17.274Z</time>
</trkpt>
<trkpt lat="31.8012800" lon="35.0743300">
<ele>575.589966</ele>
<time>2021-04-28T12:17:17.274Z</time>
</trkpt>
<trkpt lat="31.8012400" lon="35.0744500">
<ele>575.190002</ele>
<time>2021-04-28T12:17:17.274Z</time>
</trkpt>
<trkpt lat="31.8012000" lon="35.0745800">
<ele>575.260010</ele>
<time>2021-04-28T12:17:17.275Z</time>
</trkpt>
<trkpt lat="31.8011600" lon="35.0747100">
<ele>575.200012</ele>
<time>2021-04-28T12:17:17.275Z</time>
</trkpt>
<trkpt lat="31.8011400" lon="35.0748300">
<ele>575.789978</ele>
<time>2021-04-28T12:17:17.275Z</time>
</trkpt>
<trkpt lat="31.8011200" lon="35.0749700">
<ele>576.669983</ele>
<time>2021-04-28T12:17:17.275Z</time>
</trkpt>
<trkpt lat="31.8011200" lon="35.0750900">
<ele>577.739990</ele>
<time>2021-04-28T12:17:17.275Z</time>
</trkpt>
<trkpt lat="31.8011200" lon="35.0751900">
<ele>578.809998</ele>
<time>2021-04-28T12:17:17.275Z</time>
</trkpt>
<trkpt lat="31.8011300" lon="35.0753100">
<ele>579.799988</ele>
<time>2021-04-28T12:17:17.275Z</time>
</trkpt>
<trkpt lat="31.8011400" lon="35.0754200">
<ele>580.649963</ele>
<time>2021-04-28T12:17:17.275Z</time>
</trkpt>
<trkpt lat="31.8011700" lon="35.0755200">
<ele>580.739990</ele>
<time>2021-04-28T12:17:17.275Z</time>
</trkpt>
<trkpt lat="31.8012200" lon="35.0756100">
<ele>580.609985</ele>
<time>2021-04-28T12:17:17.275Z</time>
</trkpt>
<trkpt lat="31.8012900" lon="35.0756300">
<ele>578.890015</ele>
<time>2021-04-28T12:17:17.275Z</time>
</trkpt>
<trkpt lat="31.8014000" lon="35.0756300">
<ele>575.970032</ele>
<time>2021-04-28T12:17:17.275Z</time>
</trkpt>
<trkpt lat="31.8014900" lon="35.0756100">
<ele>576.169983</ele>
<time>2021-04-28T12:17:17.275Z</time>
</trkpt>
<trkpt lat="31.8015800" lon="35.0755300">
<ele>574.880005</ele>
<time>2021-04-28T12:17:17.275Z</time>
</trkpt>
<trkpt lat="31.8016700" lon="35.0754600">
<ele>573.640015</ele>
<time>2021-04-28T12:17:17.275Z</time>
</trkpt>
<trkpt lat="31.8017600" lon="35.0753900">
<ele>572.909973</ele>
<time>2021-04-28T12:17:17.275Z</time>
</trkpt>
<trkpt lat="31.8018400" lon="35.0753200">
<ele>571.600037</ele>
<time>2021-04-28T12:17:17.275Z</time>
</trkpt>
<trkpt lat="31.8019200" lon="35.0753000">
<ele>571.600037</ele>
<time>2021-04-28T12:17:17.275Z</time>
</trkpt>
<trkpt lat="31.8020200" lon="35.0752900">
<ele>573.059998</ele>
<time>2021-04-28T12:17:17.275Z</time>
</trkpt>
<trkpt lat="31.8021200" lon="35.0752900">
<ele>575.200012</ele>
<time>2021-04-28T12:17:17.275Z</time>
</trkpt>
<trkpt lat="31.8022100" lon="35.0753000">
<ele>577.460022</ele>
<time>2021-04-28T12:17:17.275Z</time>
</trkpt>
<trkpt lat="31.8023000" lon="35.0753100">
<ele>579.099976</ele>
<time>2021-04-28T12:17:17.275Z</time>
</trkpt>
<trkpt lat="31.8024000" lon="35.0753300">
<ele>581.010010</ele>
<time>2021-04-28T12:17:17.275Z</time>
</trkpt>
<trkpt lat="31.8024900" lon="35.0753700">
<ele>583.200012</ele>
<time>2021-04-28T12:17:17.275Z</time>
</trkpt>
<trkpt lat="31.8026100" lon="35.0754200">
<ele>583.630005</ele>
<time>2021-04-28T12:17:17.275Z</time>
</trkpt>
<trkpt lat="31.8027000" lon="35.0754900">
<ele>585.880005</ele>
<time>2021-04-28T12:17:17.276Z</time>
</trkpt>
<trkpt lat="31.8027600" lon="35.0755600">
<ele>589.010010</ele>
<time>2021-04-28T12:17:17.276Z</time>
</trkpt>
<trkpt lat="31.8028400" lon="35.0756500">
<ele>588.580017</ele>
<time>2021-04-28T12:17:17.276Z</time>
</trkpt>
<trkpt lat="31.8029100" lon="35.0757400">
<ele>588.789978</ele>
<time>2021-04-28T12:17:17.276Z</time>
</trkpt>
<trkpt lat="31.8029800" lon="35.0758200">
<ele>589.690002</ele>
<time>2021-04-28T12:17:17.276Z</time>
</trkpt>
<trkpt lat="31.8030400" lon="35.0759000">
<ele>590.460022</ele>
<time>2021-04-28T12:17:17.276Z</time>
</trkpt>
<trkpt lat="31.8031100" lon="35.0759900">
<ele>590.640015</ele>
<time>2021-04-28T12:17:17.276Z</time>
</trkpt>
<trkpt lat="31.8031600" lon="35.0760800">
<ele>591.179993</ele>
<time>2021-04-28T12:17:17.276Z</time>
</trkpt>
<trkpt lat="31.8032100" lon="35.0761700">
<ele>591.720032</ele>
<time>2021-04-28T12:17:17.276Z</time>
</trkpt>
<trkpt lat="31.8032700" lon="35.0762700">
<ele>592.229980</ele>
<time>2021-04-28T12:17:17.276Z</time>
</trkpt>
<trkpt lat="31.8033400" lon="35.0763600">
<ele>592.229980</ele>
<time>2021-04-28T12:17:17.276Z</time>
</trkpt>
<trkpt lat="31.8034000" lon="35.0764700">
<ele>591.170044</ele>
<time>2021-04-28T12:17:17.276Z</time>
</trkpt>
<trkpt lat="31.8034600" lon="35.0765600">
<ele>590.179993</ele>
<time>2021-04-28T12:17:17.276Z</time>
</trkpt>
<trkpt lat="31.8035300" lon="35.0766600">
<ele>589.660034</ele>
<time>2021-04-28T12:17:17.276Z</time>
</trkpt>
<trkpt lat="31.8036100" lon="35.0767800">
<ele>588.840027</ele>
<time>2021-04-28T12:17:17.276Z</time>
</trkpt>
<trkpt lat="31.8036700" lon="35.0768700">
<ele>587.960022</ele>
<time>2021-04-28T12:17:17.276Z</time>
</trkpt>
<trkpt lat="31.8037300" lon="35.0769800">
<ele>587.849976</ele>
<time>2021-04-28T12:17:17.276Z</time>
</trkpt>
<trkpt lat="31.8037800" lon="35.0770900">
<ele>588.359985</ele>
<time>2021-04-28T12:17:17.276Z</time>
</trkpt>
<trkpt lat="31.8038400" lon="35.0772100">
<ele>589.329956</ele>
<time>2021-04-28T12:17:17.276Z</time>
</trkpt>
<trkpt lat="31.8039000" lon="35.0773200">
<ele>589.830017</ele>
<time>2021-04-28T12:17:17.276Z</time>
</trkpt>
<trkpt lat="31.8039400" lon="35.0774200">
<ele>590.159973</ele>
<time>2021-04-28T12:17:17.276Z</time>
</trkpt>
<trkpt lat="31.8039800" lon="35.0775300">
<ele>590.609985</ele>
<time>2021-04-28T12:17:17.276Z</time>
</trkpt>
<trkpt lat="31.8040100" lon="35.0776600">
<ele>591.219971</ele>
<time>2021-04-28T12:17:17.276Z</time>
</trkpt>
<trkpt lat="31.8040300" lon="35.0777800">
<ele>591.980042</ele>
<time>2021-04-28T12:17:17.276Z</time>
</trkpt>
<trkpt lat="31.8040500" lon="35.0778800">
<ele>592.469971</ele>
<time>2021-04-28T12:17:17.276Z</time>
</trkpt>
<trkpt lat="31.8040600" lon="35.0780000">
<ele>593.320007</ele>
<time>2021-04-28T12:17:17.276Z</time>
</trkpt>
<trkpt lat="31.8040600" lon="35.0781100">
<ele>593.959961</ele>
<time>2021-04-28T12:17:17.276Z</time>
</trkpt>
<trkpt lat="31.8040700" lon="35.0782100">
<ele>594.250000</ele>
<time>2021-04-28T12:17:17.277Z</time>
</trkpt>
<trkpt lat="31.8040700" lon="35.0783300">
<ele>594.679993</ele>
<time>2021-04-28T12:17:17.277Z</time>
</trkpt>
<trkpt lat="31.8040700" lon="35.0784400">
<ele>595.080017</ele>
<time>2021-04-28T12:17:17.277Z</time>
</trkpt>
<trkpt lat="31.8040700" lon="35.0785600">
<ele>595.510010</ele>
<time>2021-04-28T12:17:17.277Z</time>
</trkpt>
<trkpt lat="31.8040600" lon="35.0786700">
<ele>595.979980</ele>
<time>2021-04-28T12:17:17.277Z</time>
</trkpt>
<trkpt lat="31.8040600" lon="35.0787900">
<ele>596.409973</ele>
<time>2021-04-28T12:17:17.277Z</time>
</trkpt>
<trkpt lat="31.8040500" lon="35.0789000">
<ele>596.880005</ele>
<time>2021-04-28T12:17:17.277Z</time>
</trkpt>
<trkpt lat="31.8040300" lon="35.0790100">
<ele>597.420044</ele>
<time>2021-04-28T12:17:17.277Z</time>
</trkpt>
<trkpt lat="31.8040200" lon="35.0791200">
<ele>597.890015</ele>
<time>2021-04-28T12:17:17.277Z</time>
</trkpt>
<trkpt lat="31.8040000" lon="35.0792300">
<ele>598.700012</ele>
<time>2021-04-28T12:17:17.277Z</time>
</trkpt>
<trkpt lat="31.8039700" lon="35.0793400">
<ele>599.919983</ele>
<time>2021-04-28T12:17:17.277Z</time>
</trkpt>
<trkpt lat="31.8039500" lon="35.0794400">
<ele>601.080017</ele>
<time>2021-04-28T12:17:17.277Z</time>
</trkpt>
<trkpt lat="31.8039000" lon="35.0795500">
<ele>603.329956</ele>
<time>2021-04-28T12:17:17.277Z</time>
</trkpt>
<trkpt lat="31.8038800" lon="35.0796600">
<ele>605.239990</ele>
<time>2021-04-28T12:17:17.277Z</time>
</trkpt>
<trkpt lat="31.8038400" lon="35.0797600">
<ele>607.220032</ele>
<time>2021-04-28T12:17:17.277Z</time>
</trkpt>
<trkpt lat="31.8038100" lon="35.0798600">
<ele>608.979980</ele>
<time>2021-04-28T12:17:17.277Z</time>
</trkpt>
<trkpt lat="31.8037800" lon="35.0799700">
<ele>610.789978</ele>
<time>2021-04-28T12:17:17.277Z</time>
</trkpt>
<trkpt lat="31.8037500" lon="35.0800800">
<ele>612.360046</ele>
<time>2021-04-28T12:17:17.277Z</time>
</trkpt>
<trkpt lat="31.8037100" lon="35.0801900">
<ele>613.980042</ele>
<time>2021-04-28T12:17:17.277Z</time>
</trkpt>
<trkpt lat="31.8036900" lon="35.0803000">
<ele>615.210022</ele>
<time>2021-04-28T12:17:17.277Z</time>
</trkpt>
<trkpt lat="31.8036700" lon="35.0804100">
<ele>615.739990</ele>
<time>2021-04-28T12:17:17.277Z</time>
</trkpt>
<trkpt lat="31.8036400" lon="35.0805200">
<ele>616.470032</ele>
<time>2021-04-28T12:17:17.277Z</time>
</trkpt>
<trkpt lat="31.8036100" lon="35.0806300">
<ele>617.000000</ele>
<time>2021-04-28T12:17:17.277Z</time>
</trkpt>
<trkpt lat="31.8035800" lon="35.0807400">
<ele>616.929993</ele>
<time>2021-04-28T12:17:17.277Z</time>
</trkpt>
<trkpt lat="31.8035500" lon="35.0808500">
<ele>616.850037</ele>
<time>2021-04-28T12:17:17.277Z</time>
</trkpt>
<trkpt lat="31.8035000" lon="35.0809500">
<ele>617.190002</ele>
<time>2021-04-28T12:17:17.277Z</time>
</trkpt>
<trkpt lat="31.8034400" lon="35.0810300">
<ele>617.530029</ele>
<time>2021-04-28T12:17:17.277Z</time>
</trkpt>
<trkpt lat="31.8033700" lon="35.0811200">
<ele>618.099976</ele>
<time>2021-04-28T12:17:17.277Z</time>
</trkpt>
<trkpt lat="31.8033100" lon="35.0812000">
<ele>619.280029</ele>
<time>2021-04-28T12:17:17.278Z</time>
</trkpt>
<trkpt lat="31.8032500" lon="35.0812900">
<ele>620.580017</ele>
<time>2021-04-28T12:17:17.278Z</time>
</trkpt>
<trkpt lat="31.8032000" lon="35.0813800">
<ele>621.869995</ele>
<time>2021-04-28T12:17:17.278Z</time>
</trkpt>
<trkpt lat="31.8031500" lon="35.0814800">
<ele>622.869995</ele>
<time>2021-04-28T12:17:17.278Z</time>
</trkpt>
<trkpt lat="31.8031100" lon="35.0815900">
<ele>624.030029</ele>
<time>2021-04-28T12:17:17.278Z</time>
</trkpt>
<trkpt lat="31.8030800" lon="35.0817000">
<ele>625.109985</ele>
<time>2021-04-28T12:17:17.278Z</time>
</trkpt>
<trkpt lat="31.8030400" lon="35.0818000">
<ele>625.960022</ele>
<time>2021-04-28T12:17:17.278Z</time>
</trkpt>
<trkpt lat="31.8030100" lon="35.0819100">
<ele>626.880005</ele>
<time>2021-04-28T12:17:17.278Z</time>
</trkpt>
<trkpt lat="31.8029600" lon="35.0820100">
<ele>627.979980</ele>
<time>2021-04-28T12:17:17.278Z</time>
</trkpt>
<trkpt lat="31.8029100" lon="35.0821100">
<ele>629.339966</ele>
<time>2021-04-28T12:17:17.278Z</time>
</trkpt>
<trkpt lat="31.8028400" lon="35.0821800">
<ele>630.789978</ele>
<time>2021-04-28T12:17:17.278Z</time>
</trkpt>
<trkpt lat="31.8028000" lon="35.0822600">
<ele>632.440002</ele>
<time>2021-04-28T12:17:17.278Z</time>
</trkpt>
<trkpt lat="31.8027800" lon="35.0823800">
<ele>634.819946</ele>
<time>2021-04-28T12:17:17.278Z</time>
</trkpt>
<trkpt lat="31.8027700" lon="35.0824900">
<ele>636.820007</ele>
<time>2021-04-28T12:17:17.278Z</time>
</trkpt>
<trkpt lat="31.8027600" lon="35.0826100">
<ele>637.739990</ele>
<time>2021-04-28T12:17:17.278Z</time>
</trkpt>
<trkpt lat="31.8027600" lon="35.0827200">
<ele>638.480042</ele>
<time>2021-04-28T12:17:17.278Z</time>
</trkpt>
<trkpt lat="31.8027500" lon="35.0828300">
<ele>638.610046</ele>
<time>2021-04-28T12:17:17.278Z</time>
</trkpt>
<trkpt lat="31.8027500" lon="35.0829700">
<ele>638.110046</ele>
<time>2021-04-28T12:17:17.278Z</time>
</trkpt>
<trkpt lat="31.8027500" lon="35.0830900">
<ele>637.809998</ele>
<time>2021-04-28T12:17:17.278Z</time>
</trkpt>
<trkpt lat="31.8027500" lon="35.0832300">
<ele>637.859985</ele>
<time>2021-04-28T12:17:17.278Z</time>
</trkpt>
<trkpt lat="31.8027400" lon="35.0833600">
<ele>637.709961</ele>
<time>2021-04-28T12:17:17.278Z</time>
</trkpt>
<trkpt lat="31.8027400" lon="35.0835200">
<ele>636.789978</ele>
<time>2021-04-28T12:17:17.278Z</time>
</trkpt>
<trkpt lat="31.8027300" lon="35.0836600">
<ele>636.550049</ele>
<time>2021-04-28T12:17:17.278Z</time>
</trkpt>
<trkpt lat="31.8027300" lon="35.0837900">
<ele>637.100037</ele>
<time>2021-04-28T12:17:17.278Z</time>
</trkpt>
<trkpt lat="31.8027200" lon="35.0839000">
<ele>637.709961</ele>
<time>2021-04-28T12:17:17.278Z</time>
</trkpt>
<trkpt lat="31.8027000" lon="35.0840100">
<ele>638.830017</ele>
<time>2021-04-28T12:17:17.278Z</time>
</trkpt>
<trkpt lat="31.8026900" lon="35.0841300">
<ele>639.959961</ele>
<time>2021-04-28T12:17:17.278Z</time>
</trkpt>
<trkpt lat="31.8026600" lon="35.0842400">
<ele>640.700012</ele>
<time>2021-04-28T12:17:17.278Z</time>
</trkpt>
<trkpt lat="31.8026400" lon="35.0843500">
<ele>640.979980</ele>
<time>2021-04-28T12:17:17.279Z</time>
</trkpt>
<trkpt lat="31.8026300" lon="35.0844700">
<ele>640.899963</ele>
<time>2021-04-28T12:17:17.279Z</time>
</trkpt>
<trkpt lat="31.8026200" lon="35.0845800">
<ele>640.020020</ele>
<time>2021-04-28T12:17:17.279Z</time>
</trkpt>
<trkpt lat="31.8026100" lon="35.0847100">
<ele>638.929993</ele>
<time>2021-04-28T12:17:17.279Z</time>
</trkpt>
<trkpt lat="31.8026100" lon="35.0848400">
<ele>637.800049</ele>
<time>2021-04-28T12:17:17.279Z</time>
</trkpt>
<trkpt lat="31.8026000" lon="35.0849500">
<ele>636.979980</ele>
<time>2021-04-28T12:17:17.279Z</time>
</trkpt>
<trkpt lat="31.8025900" lon="35.0850700">
<ele>635.440002</ele>
<time>2021-04-28T12:17:17.279Z</time>
</trkpt>
<trkpt lat="31.8025800" lon="35.0851800">
<ele>633.609985</ele>
<time>2021-04-28T12:17:17.279Z</time>
</trkpt>
<trkpt lat="31.8025600" lon="35.0853000">
<ele>631.670044</ele>
<time>2021-04-28T12:17:17.279Z</time>
</trkpt>
<trkpt lat="31.8025200" lon="35.0854200">
<ele>629.679993</ele>
<time>2021-04-28T12:17:17.279Z</time>
</trkpt>
<trkpt lat="31.8024900" lon="35.0855300">
<ele>628.000000</ele>
<time>2021-04-28T12:17:17.279Z</time>
</trkpt>
<trkpt lat="31.8024500" lon="35.0856400">
<ele>628.119995</ele>
<time>2021-04-28T12:17:17.279Z</time>
</trkpt>
<trkpt lat="31.8024100" lon="35.0857600">
<ele>628.269958</ele>
<time>2021-04-28T12:17:17.279Z</time>
</trkpt>
<trkpt lat="31.8023900" lon="35.0858800">
<ele>628.280029</ele>
<time>2021-04-28T12:17:17.279Z</time>
</trkpt>
<trkpt lat="31.8023800" lon="35.0859800">
<ele>628.989990</ele>
<time>2021-04-28T12:17:17.279Z</time>
</trkpt>
<trkpt lat="31.8023700" lon="35.0861100">
<ele>629.679993</ele>
<time>2021-04-28T12:17:17.279Z</time>
</trkpt>
<trkpt lat="31.8023500" lon="35.0862300">
<ele>630.990051</ele>
<time>2021-04-28T12:17:17.279Z</time>
</trkpt>
<trkpt lat="31.8023100" lon="35.0863400">
<ele>632.619995</ele>
<time>2021-04-28T12:17:17.279Z</time>
</trkpt>
<trkpt lat="31.8022400" lon="35.0864500">
<ele>634.809998</ele>
<time>2021-04-28T12:17:17.279Z</time>
</trkpt>
<trkpt lat="31.8021700" lon="35.0865400">
<ele>636.829956</ele>
<time>2021-04-28T12:17:17.279Z</time>
</trkpt>
<trkpt lat="31.8021100" lon="35.0866400">
<ele>638.079956</ele>
<time>2021-04-28T12:17:17.279Z</time>
</trkpt>
<trkpt lat="31.8020400" lon="35.0867400">
<ele>638.839966</ele>
<time>2021-04-28T12:17:17.279Z</time>
</trkpt>
<trkpt lat="31.8019700" lon="35.0868300">
<ele>639.420044</ele>
<time>2021-04-28T12:17:17.279Z</time>
</trkpt>
<trkpt lat="31.8019100" lon="35.0869100">
<ele>639.880005</ele>
<time>2021-04-28T12:17:17.279Z</time>
</trkpt>
<trkpt lat="31.8018300" lon="35.0869600">
<ele>640.969971</ele>
<time>2021-04-28T12:17:17.279Z</time>
</trkpt>
<trkpt lat="31.8017500" lon="35.0870200">
<ele>642.149963</ele>
<time>2021-04-28T12:17:17.279Z</time>
</trkpt>
<trkpt lat="31.8016800" lon="35.0870900">
<ele>643.210022</ele>
<time>2021-04-28T12:17:17.279Z</time>
</trkpt>
<trkpt lat="31.8015900" lon="35.0871600">
<ele>644.539978</ele>
<time>2021-04-28T12:17:17.279Z</time>
</trkpt>
<trkpt lat="31.8015000" lon="35.0872200">
<ele>646.000000</ele>
<time>2021-04-28T12:17:17.280Z</time>
</trkpt>
<trkpt lat="31.8014200" lon="35.0872700">
<ele>647.570007</ele>
<time>2021-04-28T12:17:17.280Z</time>
</trkpt>
<trkpt lat="31.8013500" lon="35.0873400">
<ele>649.169983</ele>
<time>2021-04-28T12:17:17.280Z</time>
</trkpt>
<trkpt lat="31.8012500" lon="35.0873600">
<ele>650.999939</ele>
<time>2021-04-28T12:17:17.280Z</time>
</trkpt>
<trkpt lat="31.8011500" lon="35.0873600">
<ele>652.809998</ele>
<time>2021-04-28T12:17:17.280Z</time>
</trkpt>
<trkpt lat="31.8010500" lon="35.0873600">
<ele>654.389954</ele>
<time>2021-04-28T12:17:17.280Z</time>
</trkpt>
<trkpt lat="31.8009700" lon="35.0873400">
<ele>655.760010</ele>
<time>2021-04-28T12:17:17.280Z</time>
</trkpt>
<trkpt lat="31.8009500" lon="35.0872200">
<ele>657.339966</ele>
<time>2021-04-28T12:17:17.280Z</time>
</trkpt>
<trkpt lat="31.8009400" lon="35.0871100">
<ele>658.520020</ele>
<time>2021-04-28T12:17:17.280Z</time>
</trkpt>
<trkpt lat="31.8009200" lon="35.0869900">
<ele>660.000000</ele>
<time>2021-04-28T12:17:17.280Z</time>
</trkpt>
<trkpt lat="31.8009200" lon="35.0868800">
<ele>660.759949</ele>
<time>2021-04-28T12:17:17.280Z</time>
</trkpt>
<trkpt lat="31.8009100" lon="35.0867700">
<ele>661.530029</ele>
<time>2021-04-28T12:17:17.280Z</time>
</trkpt>
<trkpt lat="31.8008900" lon="35.0866700">
<ele>662.549988</ele>
<time>2021-04-28T12:17:17.280Z</time>
</trkpt>
<trkpt lat="31.8008800" lon="35.0865500">
<ele>662.549988</ele>
<time>2021-04-28T12:17:17.280Z</time>
</trkpt>
<trkpt lat="31.8008700" lon="35.0864100">
<ele>662.399963</ele>
<time>2021-04-28T12:17:17.280Z</time>
</trkpt>
<trkpt lat="31.8008700" lon="35.0863200">
<ele>662.219971</ele>
<time>2021-04-28T12:17:17.280Z</time>
</trkpt>
<trkpt lat="31.8008700" lon="35.0862200">
<ele>662.049988</ele>
<time>2021-04-28T12:17:17.280Z</time>
</trkpt>
<trkpt lat="31.8008700" lon="35.0854800">
<ele>661.550049</ele>
<time>2021-04-28T12:17:17.280Z</time>
</trkpt>
<trkpt lat="31.8008700" lon="35.0853500">
<ele>660.669983</ele>
<time>2021-04-28T12:17:17.280Z</time>
</trkpt>
<trkpt lat="31.8008800" lon="35.0852600">
<ele>660.440002</ele>
<time>2021-04-28T12:17:17.280Z</time>
</trkpt>
<trkpt lat="31.8009000" lon="35.0851000">
<ele>660.370056</ele>
<time>2021-04-28T12:17:17.280Z</time>
</trkpt>
<trkpt lat="31.8009100" lon="35.0849900">
<ele>660.159973</ele>
<time>2021-04-28T12:17:17.280Z</time>
</trkpt>
<trkpt lat="31.8009200" lon="35.0848800">
<ele>659.930054</ele>
<time>2021-04-28T12:17:17.280Z</time>
</trkpt>
<trkpt lat="31.8009300" lon="35.0847600">
<ele>659.619995</ele>
<time>2021-04-28T12:17:17.280Z</time>
</trkpt>
<trkpt lat="31.8009400" lon="35.0846400">
<ele>659.529968</ele>
<time>2021-04-28T12:17:17.280Z</time>
</trkpt>
<trkpt lat="31.8009500" lon="35.0845100">
<ele>659.419983</ele>
<time>2021-04-28T12:17:17.280Z</time>
</trkpt>
<trkpt lat="31.8009600" lon="35.0843800">
<ele>659.159973</ele>
<time>2021-04-28T12:17:17.280Z</time>
</trkpt>
<trkpt lat="31.8009700" lon="35.0842400">
<ele>658.749939</ele>
<time>2021-04-28T12:17:17.280Z</time>
</trkpt>
<trkpt lat="31.8009900" lon="35.0840800">
<ele>657.760010</ele>
<time>2021-04-28T12:17:17.281Z</time>
</trkpt>
<trkpt lat="31.8010100" lon="35.0839000">
<ele>656.109985</ele>
<time>2021-04-28T12:17:17.281Z</time>
</trkpt>
<trkpt lat="31.8010300" lon="35.0837000">
<ele>654.160034</ele>
<time>2021-04-28T12:17:17.281Z</time>
</trkpt>
<trkpt lat="31.8010600" lon="35.0834700">
<ele>652.490051</ele>
<time>2021-04-28T12:17:17.281Z</time>
</trkpt>
<trkpt lat="31.8011000" lon="35.0832800">
<ele>651.580017</ele>
<time>2021-04-28T12:17:17.281Z</time>
</trkpt>
<trkpt lat="31.8011300" lon="35.0831600">
<ele>650.889954</ele>
<time>2021-04-28T12:17:17.281Z</time>
</trkpt>
<trkpt lat="31.8011700" lon="35.0830900">
<ele>650.670044</ele>
<time>2021-04-28T12:17:17.281Z</time>
</trkpt>
<trkpt lat="31.8012700" lon="35.0830300">
<ele>650.869995</ele>
<time>2021-04-28T12:17:17.281Z</time>
</trkpt>
<trkpt lat="31.8013500" lon="35.0829500">
<ele>650.579956</ele>
<time>2021-04-28T12:17:17.281Z</time>
</trkpt>
<trkpt lat="31.8014000" lon="35.0828800">
<ele>650.059998</ele>
<time>2021-04-28T12:17:17.281Z</time>
</trkpt>
<trkpt lat="31.8014300" lon="35.0827200">
<ele>647.989990</ele>
<time>2021-04-28T12:17:17.281Z</time>
</trkpt>
<trkpt lat="31.8014400" lon="35.0825900">
<ele>646.670044</ele>
<time>2021-04-28T12:17:17.281Z</time>
</trkpt>
<trkpt lat="31.8014600" lon="35.0822200">
<ele>645.760010</ele>
<time>2021-04-28T12:17:17.281Z</time>
</trkpt>
<trkpt lat="31.8014600" lon="35.0820300">
<ele>645.250000</ele>
<time>2021-04-28T12:17:17.281Z</time>
</trkpt>
<trkpt lat="31.8014500" lon="35.0818200">
<ele>643.979980</ele>
<time>2021-04-28T12:17:17.281Z</time>
</trkpt>
<trkpt lat="31.8014500" lon="35.0816100">
<ele>642.470032</ele>
<time>2021-04-28T12:17:17.281Z</time>
</trkpt>
<trkpt lat="31.8014300" lon="35.0814100">
<ele>640.739990</ele>
<time>2021-04-28T12:17:17.281Z</time>
</trkpt>
<trkpt lat="31.8013900" lon="35.0811900">
<ele>639.299988</ele>
<time>2021-04-28T12:17:17.281Z</time>
</trkpt>
<trkpt lat="31.8012900" lon="35.0810100">
<ele>638.179993</ele>
<time>2021-04-28T12:17:17.281Z</time>
</trkpt>
<trkpt lat="31.8012500" lon="35.0809400">
<ele>637.880005</ele>
<time>2021-04-28T12:17:17.281Z</time>
</trkpt>
<trkpt lat="31.8012300" lon="35.0808600">
<ele>637.650024</ele>
<time>2021-04-28T12:17:17.281Z</time>
</trkpt>
<trkpt lat="31.8012200" lon="35.0806600">
<ele>636.979980</ele>
<time>2021-04-28T12:17:17.281Z</time>
</trkpt>
<trkpt lat="31.8012200" lon="35.0804800">
<ele>636.279968</ele>
<time>2021-04-28T12:17:17.281Z</time>
</trkpt>
<trkpt lat="31.8012200" lon="35.0802900">
<ele>635.450012</ele>
<time>2021-04-28T12:17:17.281Z</time>
</trkpt>
<trkpt lat="31.8012200" lon="35.0800800">
<ele>635.389954</ele>
<time>2021-04-28T12:17:17.281Z</time>
</trkpt>
<trkpt lat="31.8012200" lon="35.0798700">
<ele>635.110046</ele>
<time>2021-04-28T12:17:17.281Z</time>
</trkpt>
<trkpt lat="31.8012200" lon="35.0796700">
<ele>634.709961</ele>
<time>2021-04-28T12:17:17.281Z</time>
</trkpt>
<trkpt lat="31.8012200" lon="35.0794700">
<ele>634.429993</ele>
<time>2021-04-28T12:17:17.282Z</time>
</trkpt>
<trkpt lat="31.8012100" lon="35.0792700">
<ele>633.690002</ele>
<time>2021-04-28T12:17:17.282Z</time>
</trkpt>
<trkpt lat="31.8012000" lon="35.0790800">
<ele>632.619995</ele>
<time>2021-04-28T12:17:17.282Z</time>
</trkpt>
<trkpt lat="31.8011800" lon="35.0788900">
<ele>631.009949</ele>
<time>2021-04-28T12:17:17.282Z</time>
</trkpt>
<trkpt lat="31.8011400" lon="35.0787100">
<ele>627.910034</ele>
<time>2021-04-28T12:17:17.282Z</time>
</trkpt>
<trkpt lat="31.8011100" lon="35.0785500">
<ele>625.130005</ele>
<time>2021-04-28T12:17:17.282Z</time>
</trkpt>
<trkpt lat="31.8010900" lon="35.0784100">
<ele>623.309998</ele>
<time>2021-04-28T12:17:17.282Z</time>
</trkpt>
<trkpt lat="31.8010900" lon="35.0782700">
<ele>621.330017</ele>
<time>2021-04-28T12:17:17.282Z</time>
</trkpt>
<trkpt lat="31.8010900" lon="35.0781000">
<ele>618.929993</ele>
<time>2021-04-28T12:17:17.282Z</time>
</trkpt>
<trkpt lat="31.8011000" lon="35.0779100">
<ele>617.110046</ele>
<time>2021-04-28T12:17:17.282Z</time>
</trkpt>
<trkpt lat="31.8011100" lon="35.0777000">
<ele>614.889954</ele>
<time>2021-04-28T12:17:17.282Z</time>
</trkpt>
<trkpt lat="31.8011200" lon="35.0776000">
<ele>613.419983</ele>
<time>2021-04-28T12:17:17.282Z</time>
</trkpt>
<trkpt lat="31.8011400" lon="35.0773900">
<ele>611.599976</ele>
<time>2021-04-28T12:17:17.282Z</time>
</trkpt>
<trkpt lat="31.8011700" lon="35.0772100">
<ele>610.919983</ele>
<time>2021-04-28T12:17:17.282Z</time>
</trkpt>
<trkpt lat="31.8012200" lon="35.0771100">
<ele>610.349976</ele>
<time>2021-04-28T12:17:17.282Z</time>
</trkpt>
<trkpt lat="31.8012400" lon="35.0770100">
<ele>609.830017</ele>
<time>2021-04-28T12:17:17.282Z</time>
</trkpt>
<trkpt lat="31.8012500" lon="35.0769000">
<ele>609.020020</ele>
<time>2021-04-28T12:17:17.282Z</time>
</trkpt>
<trkpt lat="31.8012500" lon="35.0767800">
<ele>607.720032</ele>
<time>2021-04-28T12:17:17.282Z</time>
</trkpt>
<trkpt lat="31.8012300" lon="35.0766900">
<ele>606.679993</ele>
<time>2021-04-28T12:17:17.282Z</time>
</trkpt>
<trkpt lat="31.8011700" lon="35.0766100">
<ele>605.270020</ele>
<time>2021-04-28T12:17:17.282Z</time>
</trkpt>
<trkpt lat="31.8011100" lon="35.0765100">
<ele>603.760010</ele>
<time>2021-04-28T12:17:17.282Z</time>
</trkpt>
<trkpt lat="31.8010400" lon="35.0764000">
<ele>602.929993</ele>
<time>2021-04-28T12:17:17.282Z</time>
</trkpt>
<trkpt lat="31.8009200" lon="35.0763700">
<ele>603.640015</ele>
<time>2021-04-28T12:17:17.282Z</time>
</trkpt>
<trkpt lat="31.8008100" lon="35.0763600">
<ele>604.829956</ele>
<time>2021-04-28T12:17:17.282Z</time>
</trkpt>
<trkpt lat="31.8006800" lon="35.0763300">
<ele>606.380005</ele>
<time>2021-04-28T12:17:17.282Z</time>
</trkpt>
<trkpt lat="31.8005500" lon="35.0762700">
<ele>607.760010</ele>
<time>2021-04-28T12:17:17.282Z</time>
</trkpt>
<trkpt lat="31.8004100" lon="35.0761800">
<ele>608.190002</ele>
<time>2021-04-28T12:17:17.282Z</time>
</trkpt>
<trkpt lat="31.8002300" lon="35.0760800">
<ele>608.760010</ele>
<time>2021-04-28T12:17:17.282Z</time>
</trkpt>
<trkpt lat="31.8001600" lon="35.0760200">
<ele>608.200012</ele>
<time>2021-04-28T12:17:17.283Z</time>
</trkpt>
<trkpt lat="31.8000700" lon="35.0759700">
<ele>607.600037</ele>
<time>2021-04-28T12:17:17.283Z</time>
</trkpt>
<trkpt lat="31.7999800" lon="35.0759200">
<ele>607.080017</ele>
<time>2021-04-28T12:17:17.283Z</time>
</trkpt>
<trkpt lat="31.7998900" lon="35.0758800">
<ele>607.299988</ele>
<time>2021-04-28T12:17:17.283Z</time>
</trkpt>
<trkpt lat="31.7998100" lon="35.0758600">
<ele>607.659973</ele>
<time>2021-04-28T12:17:17.283Z</time>
</trkpt>
<trkpt lat="31.7996200" lon="35.0758400">
<ele>607.340027</ele>
<time>2021-04-28T12:17:17.283Z</time>
</trkpt>
<trkpt lat="31.7995000" lon="35.0758200">
<ele>606.309998</ele>
<time>2021-04-28T12:17:17.283Z</time>
</trkpt>
<trkpt lat="31.7993900" lon="35.0757700">
<ele>606.599976</ele>
<time>2021-04-28T12:17:17.283Z</time>
</trkpt>
<trkpt lat="31.7992800" lon="35.0757100">
<ele>608.190002</ele>
<time>2021-04-28T12:17:17.283Z</time>
</trkpt>
<trkpt lat="31.7991800" lon="35.0756500">
<ele>609.780029</ele>
<time>2021-04-28T12:17:17.283Z</time>
</trkpt>
<trkpt lat="31.7990700" lon="35.0756000">
<ele>612.090027</ele>
<time>2021-04-28T12:17:17.283Z</time>
</trkpt>
<trkpt lat="31.7989800" lon="35.0755700">
<ele>614.030029</ele>
<time>2021-04-28T12:17:17.283Z</time>
</trkpt>
<trkpt lat="31.7988800" lon="35.0755300">
<ele>616.549988</ele>
<time>2021-04-28T12:17:17.283Z</time>
</trkpt>
<trkpt lat="31.7987800" lon="35.0754900">
<ele>619.109985</ele>
<time>2021-04-28T12:17:17.283Z</time>
</trkpt>
<trkpt lat="31.7986700" lon="35.0754700">
<ele>621.470032</ele>
<time>2021-04-28T12:17:17.283Z</time>
</trkpt>
<trkpt lat="31.7985700" lon="35.0754600">
<ele>622.729980</ele>
<time>2021-04-28T12:17:17.283Z</time>
</trkpt>
<trkpt lat="31.7984600" lon="35.0754500">
<ele>622.890015</ele>
<time>2021-04-28T12:17:17.283Z</time>
</trkpt>
<trkpt lat="31.7983700" lon="35.0754400">
<ele>622.979980</ele>
<time>2021-04-28T12:17:17.283Z</time>
</trkpt>
<trkpt lat="31.7982600" lon="35.0754400">
<ele>621.369995</ele>
<time>2021-04-28T12:17:17.283Z</time>
</trkpt>
<trkpt lat="31.7981600" lon="35.0754500">
<ele>619.109985</ele>
<time>2021-04-28T12:17:17.283Z</time>
</trkpt>
<trkpt lat="31.7980700" lon="35.0754600">
<ele>617.020020</ele>
<time>2021-04-28T12:17:17.283Z</time>
</trkpt>
<trkpt lat="31.7979900" lon="35.0755100">
<ele>615.070007</ele>
<time>2021-04-28T12:17:17.283Z</time>
</trkpt>
<trkpt lat="31.7979300" lon="35.0756100">
<ele>613.770020</ele>
<time>2021-04-28T12:17:17.283Z</time>
</trkpt>
<trkpt lat="31.7979100" lon="35.0757400">
<ele>614.530029</ele>
<time>2021-04-28T12:17:17.283Z</time>
</trkpt>
<trkpt lat="31.7978600" lon="35.0758400">
<ele>614.520020</ele>
<time>2021-04-28T12:17:17.283Z</time>
</trkpt>
<trkpt lat="31.7977900" lon="35.0759200">
<ele>613.830017</ele>
<time>2021-04-28T12:17:17.283Z</time>
</trkpt>
<trkpt lat="31.7977700" lon="35.0760300">
<ele>614.280029</ele>
<time>2021-04-28T12:17:17.283Z</time>
</trkpt>
<trkpt lat="31.7977500" lon="35.0761700">
<ele>614.459961</ele>
<time>2021-04-28T12:17:17.284Z</time>
</trkpt>
<trkpt lat="31.7977400" lon="35.0763400">
<ele>614.099976</ele>
<time>2021-04-28T12:17:17.284Z</time>
</trkpt>
<trkpt lat="31.7977200" lon="35.0764600">
<ele>612.570007</ele>
<time>2021-04-28T12:17:17.284Z</time>
</trkpt>
<trkpt lat="31.7976400" lon="35.0765000">
<ele>610.130005</ele>
<time>2021-04-28T12:17:17.284Z</time>
</trkpt>
<trkpt lat="31.7975100" lon="35.0765200">
<ele>606.820007</ele>
<time>2021-04-28T12:17:17.284Z</time>
</trkpt>
<trkpt lat="31.7973000" lon="35.0765400">
<ele>606.760010</ele>
<time>2021-04-28T12:17:17.284Z</time>
</trkpt>
<trkpt lat="31.7972000" lon="35.0765500">
<ele>606.900024</ele>
<time>2021-04-28T12:17:17.284Z</time>
</trkpt>
<trkpt lat="31.7969000" lon="35.0765600">
<ele>607.679993</ele>
<time>2021-04-28T12:17:17.284Z</time>
</trkpt>
<trkpt lat="31.7967300" lon="35.0765800">
<ele>607.929993</ele>
<time>2021-04-28T12:17:17.284Z</time>
</trkpt>
<trkpt lat="31.7964700" lon="35.0766100">
<ele>604.470032</ele>
<time>2021-04-28T12:17:17.284Z</time>
</trkpt>
<trkpt lat="31.7963200" lon="35.0766200">
<ele>601.520020</ele>
<time>2021-04-28T12:17:17.284Z</time>
</trkpt>
<trkpt lat="31.7962900" lon="35.0766600">
<ele>600.320007</ele>
<time>2021-04-28T12:17:17.284Z</time>
</trkpt>
<trkpt lat="31.7963100" lon="35.0768500">
<ele>598.790039</ele>
<time>2021-04-28T12:17:17.284Z</time>
</trkpt>
<trkpt lat="31.7963500" lon="35.0769600">
<ele>598.049988</ele>
<time>2021-04-28T12:17:17.284Z</time>
</trkpt>
<trkpt lat="31.7965500" lon="35.0770800">
<ele>599.080017</ele>
<time>2021-04-28T12:17:17.284Z</time>
</trkpt>
<trkpt lat="31.7968700" lon="35.0771000">
<ele>602.690002</ele>
<time>2021-04-28T12:17:17.284Z</time>
</trkpt>
<trkpt lat="31.7970800" lon="35.0772700">
<ele>598.039978</ele>
<time>2021-04-28T12:17:17.284Z</time>
</trkpt>
<trkpt lat="31.7972100" lon="35.0774500">
<ele>591.340027</ele>
<time>2021-04-28T12:17:17.284Z</time>
</trkpt>
<trkpt lat="31.7972900" lon="35.0778300">
<ele>585.559998</ele>
<time>2021-04-28T12:17:17.284Z</time>
</trkpt>
<trkpt lat="31.7973100" lon="35.0780800">
<ele>582.979980</ele>
<time>2021-04-28T12:17:17.284Z</time>
</trkpt>
<trkpt lat="31.7973300" lon="35.0781600">
<ele>582.730042</ele>
<time>2021-04-28T12:17:17.284Z</time>
</trkpt>
<trkpt lat="31.7973900" lon="35.0784100">
<ele>582.059998</ele>
<time>2021-04-28T12:17:17.284Z</time>
</trkpt>
<trkpt lat="31.7974600" lon="35.0787400">
<ele>579.750000</ele>
<time>2021-04-28T12:17:17.284Z</time>
</trkpt>
<trkpt lat="31.7975000" lon="35.0791000">
<ele>576.719971</ele>
<time>2021-04-28T12:17:17.284Z</time>
</trkpt>
<trkpt lat="31.7975200" lon="35.0791700">
<ele>576.789978</ele>
<time>2021-04-28T12:17:17.284Z</time>
</trkpt>
<trkpt lat="31.7975300" lon="35.0793500">
<ele>577.119995</ele>
<time>2021-04-28T12:17:17.284Z</time>
</trkpt>
<trkpt lat="31.7975500" lon="35.0795000">
<ele>576.869995</ele>
<time>2021-04-28T12:17:17.284Z</time>
</trkpt>
<trkpt lat="31.7975800" lon="35.0797600">
<ele>574.200012</ele>
<time>2021-04-28T12:17:17.285Z</time>
</trkpt>
<trkpt lat="31.7976000" lon="35.0800000">
<ele>573.239990</ele>
<time>2021-04-28T12:17:17.285Z</time>
</trkpt>
<trkpt lat="31.7976000" lon="35.0801800">
<ele>572.309998</ele>
<time>2021-04-28T12:17:17.285Z</time>
</trkpt>
<trkpt lat="31.7976000" lon="35.0802300">
<ele>572.049988</ele>
<time>2021-04-28T12:17:17.285Z</time>
</trkpt>
<trkpt lat="31.7975900" lon="35.0801900">
<ele>572.030029</ele>
<time>2021-04-28T12:17:17.285Z</time>
</trkpt>
<trkpt lat="31.7975300" lon="35.0801700">
<ele>570.709961</ele>
<time>2021-04-28T12:17:17.285Z</time>
</trkpt>
<trkpt lat="31.7974700" lon="35.0800800">
<ele>569.089966</ele>
<time>2021-04-28T12:17:17.285Z</time>
</trkpt>
<trkpt lat="31.7973800" lon="35.0799700">
<ele>567.080017</ele>
<time>2021-04-28T12:17:17.285Z</time>
</trkpt>
<trkpt lat="31.7972900" lon="35.0797900">
<ele>565.460022</ele>
<time>2021-04-28T12:17:17.285Z</time>
</trkpt>
<trkpt lat="31.7972200" lon="35.0796300">
<ele>564.619995</ele>
<time>2021-04-28T12:17:17.285Z</time>
</trkpt>
<trkpt lat="31.7971400" lon="35.0794600">
<ele>564.109985</ele>
<time>2021-04-28T12:17:17.285Z</time>
</trkpt>
<trkpt lat="31.7970800" lon="35.0792900">
<ele>564.320007</ele>
<time>2021-04-28T12:17:17.285Z</time>
</trkpt>
<trkpt lat="31.7970300" lon="35.0791400">
<ele>564.719971</ele>
<time>2021-04-28T12:17:17.285Z</time>
</trkpt>
<trkpt lat="31.7969800" lon="35.0789900">
<ele>564.520020</ele>
<time>2021-04-28T12:17:17.285Z</time>
</trkpt>
<trkpt lat="31.7969500" lon="35.0788700">
<ele>564.429993</ele>
<time>2021-04-28T12:17:17.285Z</time>
</trkpt>
<trkpt lat="31.7969300" lon="35.0787500">
<ele>565.640015</ele>
<time>2021-04-28T12:17:17.285Z</time>
</trkpt>
<trkpt lat="31.7969200" lon="35.0786000">
<ele>567.599976</ele>
<time>2021-04-28T12:17:17.285Z</time>
</trkpt>
<trkpt lat="31.7969000" lon="35.0784500">
<ele>568.869995</ele>
<time>2021-04-28T12:17:17.285Z</time>
</trkpt>
<trkpt lat="31.7968800" lon="35.0783600">
<ele>569.530029</ele>
<time>2021-04-28T12:17:17.285Z</time>
</trkpt>
<trkpt lat="31.7968200" lon="35.0783200">
<ele>569.209961</ele>
<time>2021-04-28T12:17:17.285Z</time>
</trkpt>
<trkpt lat="31.7966600" lon="35.0783000">
<ele>567.210022</ele>
<time>2021-04-28T12:17:17.285Z</time>
</trkpt>
<trkpt lat="31.7965300" lon="35.0782900">
<ele>565.359985</ele>
<time>2021-04-28T12:17:17.285Z</time>
</trkpt>
<trkpt lat="31.7964000" lon="35.0782700">
<ele>563.570007</ele>
<time>2021-04-28T12:17:17.285Z</time>
</trkpt>
<trkpt lat="31.7962800" lon="35.0782400">
<ele>562.969971</ele>
<time>2021-04-28T12:17:17.285Z</time>
</trkpt>
<trkpt lat="31.7961400" lon="35.0782100">
<ele>562.369995</ele>
<time>2021-04-28T12:17:17.285Z</time>
</trkpt>
<trkpt lat="31.7960000" lon="35.0782100">
<ele>562.380005</ele>
<time>2021-04-28T12:17:17.285Z</time>
</trkpt>
<trkpt lat="31.7959600" lon="35.0782100">
<ele>562.470032</ele>
<time>2021-04-28T12:17:17.285Z</time>
</trkpt>
<trkpt lat="31.7959600" lon="35.0783200">
<ele>560.349976</ele>
<time>2021-04-28T12:17:17.285Z</time>
</trkpt>
<trkpt lat="31.7960400" lon="35.0784000">
<ele>558.669983</ele>
<time>2021-04-28T12:17:17.286Z</time>
</trkpt>
<trkpt lat="31.7961400" lon="35.0784700">
<ele>557.190002</ele>
<time>2021-04-28T12:17:17.286Z</time>
</trkpt>
<trkpt lat="31.7962500" lon="35.0785500">
<ele>556.210022</ele>
<time>2021-04-28T12:17:17.286Z</time>
</trkpt>
<trkpt lat="31.7963500" lon="35.0786100">
<ele>555.030029</ele>
<time>2021-04-28T12:17:17.286Z</time>
</trkpt>
<trkpt lat="31.7964300" lon="35.0787600">
<ele>554.650024</ele>
<time>2021-04-28T12:17:17.286Z</time>
</trkpt>
<trkpt lat="31.7964800" lon="35.0789000">
<ele>553.940002</ele>
<time>2021-04-28T12:17:17.286Z</time>
</trkpt>
<trkpt lat="31.7965000" lon="35.0790500">
<ele>553.739990</ele>
<time>2021-04-28T12:17:17.286Z</time>
</trkpt>
<trkpt lat="31.7965200" lon="35.0792000">
<ele>553.640015</ele>
<time>2021-04-28T12:17:17.286Z</time>
</trkpt>
<trkpt lat="31.7965500" lon="35.0793600">
<ele>553.599976</ele>
<time>2021-04-28T12:17:17.286Z</time>
</trkpt>
<trkpt lat="31.7965600" lon="35.0795300">
<ele>552.239990</ele>
<time>2021-04-28T12:17:17.286Z</time>
</trkpt>
<trkpt lat="31.7965700" lon="35.0797000">
<ele>549.909973</ele>
<time>2021-04-28T12:17:17.286Z</time>
</trkpt>
<trkpt lat="31.7965700" lon="35.0798800">
<ele>546.549988</ele>
<time>2021-04-28T12:17:17.286Z</time>
</trkpt>
<trkpt lat="31.7965800" lon="35.0800600">
<ele>543.359985</ele>
<time>2021-04-28T12:17:17.286Z</time>
</trkpt>
<trkpt lat="31.7965800" lon="35.0802100">
<ele>540.659973</ele>
<time>2021-04-28T12:17:17.286Z</time>
</trkpt>
<trkpt lat="31.7965700" lon="35.0803500">
<ele>538.130005</ele>
<time>2021-04-28T12:17:17.286Z</time>
</trkpt>
<trkpt lat="31.7965700" lon="35.0805000">
<ele>535.779968</ele>
<time>2021-04-28T12:17:17.286Z</time>
</trkpt>
<trkpt lat="31.7965600" lon="35.0806500">
<ele>533.679993</ele>
<time>2021-04-28T12:17:17.286Z</time>
</trkpt>
<trkpt lat="31.7965500" lon="35.0807800">
<ele>532.059998</ele>
<time>2021-04-28T12:17:17.286Z</time>
</trkpt>
<trkpt lat="31.7965100" lon="35.0809100">
<ele>530.739990</ele>
<time>2021-04-28T12:17:17.286Z</time>
</trkpt>
<trkpt lat="31.7964300" lon="35.0810200">
<ele>528.989990</ele>
<time>2021-04-28T12:17:17.286Z</time>
</trkpt>
<trkpt lat="31.7963500" lon="35.0811700">
<ele>527.150024</ele>
<time>2021-04-28T12:17:17.286Z</time>
</trkpt>
<trkpt lat="31.7963000" lon="35.0813200">
<ele>526.669983</ele>
<time>2021-04-28T12:17:17.286Z</time>
</trkpt>
<trkpt lat="31.7962600" lon="35.0814700">
<ele>527.030029</ele>
<time>2021-04-28T12:17:17.286Z</time>
</trkpt>
<trkpt lat="31.7962100" lon="35.0816300">
<ele>528.489990</ele>
<time>2021-04-28T12:17:17.286Z</time>
</trkpt>
<trkpt lat="31.7961700" lon="35.0818000">
<ele>529.789978</ele>
<time>2021-04-28T12:17:17.286Z</time>
</trkpt>
<trkpt lat="31.7961300" lon="35.0819800">
<ele>529.950012</ele>
<time>2021-04-28T12:17:17.286Z</time>
</trkpt>
<trkpt lat="31.7961100" lon="35.0821600">
<ele>528.429993</ele>
<time>2021-04-28T12:17:17.286Z</time>
</trkpt>
<trkpt lat="31.7961000" lon="35.0823600">
<ele>525.880005</ele>
<time>2021-04-28T12:17:17.286Z</time>
</trkpt>
<trkpt lat="31.7960900" lon="35.0824600">
<ele>524.340027</ele>
<time>2021-04-28T12:17:17.287Z</time>
</trkpt>
<trkpt lat="31.7960800" lon="35.0826700">
<ele>521.150024</ele>
<time>2021-04-28T12:17:17.287Z</time>
</trkpt>
<trkpt lat="31.7960700" lon="35.0829000">
<ele>518.659973</ele>
<time>2021-04-28T12:17:17.287Z</time>
</trkpt>
<trkpt lat="31.7960700" lon="35.0829900">
<ele>518.109985</ele>
<time>2021-04-28T12:17:17.287Z</time>
</trkpt>
<trkpt lat="31.7960600" lon="35.0830800">
<ele>517.650024</ele>
<time>2021-04-28T12:17:17.287Z</time>
</trkpt>
<trkpt lat="31.7960500" lon="35.0833100">
<ele>517.760010</ele>
<time>2021-04-28T12:17:17.287Z</time>
</trkpt>
<trkpt lat="31.7960400" lon="35.0835200">
<ele>518.739990</ele>
<time>2021-04-28T12:17:17.287Z</time>
</trkpt>
<trkpt lat="31.7960200" lon="35.0837100">
<ele>519.609985</ele>
<time>2021-04-28T12:17:17.287Z</time>
</trkpt>
<trkpt lat="31.7959900" lon="35.0839100">
<ele>520.210022</ele>
<time>2021-04-28T12:17:17.287Z</time>
</trkpt>
<trkpt lat="31.7959400" lon="35.0841200">
<ele>519.219971</ele>
<time>2021-04-28T12:17:17.287Z</time>
</trkpt>
<trkpt lat="31.7958700" lon="35.0842800">
<ele>518.969971</ele>
<time>2021-04-28T12:17:17.287Z</time>
</trkpt>
<trkpt lat="31.7957800" lon="35.0843900">
<ele>517.539978</ele>
<time>2021-04-28T12:17:17.287Z</time>
</trkpt>
<trkpt lat="31.7956800" lon="35.0844900">
<ele>515.610046</ele>
<time>2021-04-28T12:17:17.287Z</time>
</trkpt>
<trkpt lat="31.7955800" lon="35.0845900">
<ele>513.760010</ele>
<time>2021-04-28T12:17:17.287Z</time>
</trkpt>
<trkpt lat="31.7954800" lon="35.0846900">
<ele>511.959991</ele>
<time>2021-04-28T12:17:17.287Z</time>
</trkpt>
<trkpt lat="31.7953900" lon="35.0848000">
<ele>510.269989</ele>
<time>2021-04-28T12:17:17.287Z</time>
</trkpt>
<trkpt lat="31.7953100" lon="35.0849300">
<ele>509.220001</ele>
<time>2021-04-28T12:17:17.287Z</time>
</trkpt>
<trkpt lat="31.7952400" lon="35.0850700">
<ele>508.440002</ele>
<time>2021-04-28T12:17:17.287Z</time>
</trkpt>
<trkpt lat="31.7951600" lon="35.0851900">
<ele>507.909973</ele>
<time>2021-04-28T12:17:17.287Z</time>
</trkpt>
<trkpt lat="31.7951100" lon="35.0853200">
<ele>508.389984</ele>
<time>2021-04-28T12:17:17.287Z</time>
</trkpt>
<trkpt lat="31.7950600" lon="35.0854400">
<ele>509.089996</ele>
<time>2021-04-28T12:17:17.287Z</time>
</trkpt>
<trkpt lat="31.7950200" lon="35.0855600">
<ele>509.360016</ele>
<time>2021-04-28T12:17:17.287Z</time>
</trkpt>
<trkpt lat="31.7949900" lon="35.0856700">
<ele>510.600006</ele>
<time>2021-04-28T12:17:17.287Z</time>
</trkpt>
<trkpt lat="31.7949500" lon="35.0857800">
<ele>511.800018</ele>
<time>2021-04-28T12:17:17.287Z</time>
</trkpt>
<trkpt lat="31.7949200" lon="35.0858800">
<ele>512.380005</ele>
<time>2021-04-28T12:17:17.287Z</time>
</trkpt>
<trkpt lat="31.7948600" lon="35.0860100">
<ele>512.119995</ele>
<time>2021-04-28T12:17:17.287Z</time>
</trkpt>
<trkpt lat="31.7947700" lon="35.0860800">
<ele>510.819977</ele>
<time>2021-04-28T12:17:17.287Z</time>
</trkpt>
<trkpt lat="31.7946400" lon="35.0860900">
<ele>509.700012</ele>
<time>2021-04-28T12:17:17.288Z</time>
</trkpt>
<trkpt lat="31.7945400" lon="35.0861300">
<ele>509.350006</ele>
<time>2021-04-28T12:17:17.288Z</time>
</trkpt>
<trkpt lat="31.7944600" lon="35.0861800">
<ele>508.639984</ele>
<time>2021-04-28T12:17:17.288Z</time>
</trkpt>
<trkpt lat="31.7944000" lon="35.0862600">
<ele>508.830017</ele>
<time>2021-04-28T12:17:17.288Z</time>
</trkpt>
<trkpt lat="31.7943400" lon="35.0863500">
<ele>509.749969</ele>
<time>2021-04-28T12:17:17.288Z</time>
</trkpt>
<trkpt lat="31.7942900" lon="35.0864500">
<ele>511.309998</ele>
<time>2021-04-28T12:17:17.288Z</time>
</trkpt>
<trkpt lat="31.7942400" lon="35.0865400">
<ele>512.979980</ele>
<time>2021-04-28T12:17:17.288Z</time>
</trkpt>
<trkpt lat="31.7942100" lon="35.0866400">
<ele>514.090027</ele>
<time>2021-04-28T12:17:17.288Z</time>
</trkpt>
<trkpt lat="31.7941800" lon="35.0867600">
<ele>515.429993</ele>
<time>2021-04-28T12:17:17.288Z</time>
</trkpt>
<trkpt lat="31.7941600" lon="35.0868700">
<ele>516.769958</ele>
<time>2021-04-28T12:17:17.288Z</time>
</trkpt>
<trkpt lat="31.7941400" lon="35.0869800">
<ele>518.239990</ele>
<time>2021-04-28T12:17:17.288Z</time>
</trkpt>
<trkpt lat="31.7940900" lon="35.0870900">
<ele>520.400024</ele>
<time>2021-04-28T12:17:17.288Z</time>
</trkpt>
<trkpt lat="31.7940700" lon="35.0872100">
<ele>521.130005</ele>
<time>2021-04-28T12:17:17.288Z</time>
</trkpt>
<trkpt lat="31.7940500" lon="35.0873200">
<ele>521.630005</ele>
<time>2021-04-28T12:17:17.288Z</time>
</trkpt>
<trkpt lat="31.7940300" lon="35.0874300">
<ele>522.059998</ele>
<time>2021-04-28T12:17:17.288Z</time>
</trkpt>
<trkpt lat="31.7940200" lon="35.0875500">
<ele>522.130005</ele>
<time>2021-04-28T12:17:17.288Z</time>
</trkpt>
<trkpt lat="31.7940000" lon="35.0876700">
<ele>522.429993</ele>
<time>2021-04-28T12:17:17.288Z</time>
</trkpt>
<trkpt lat="31.7939900" lon="35.0877800">
<ele>522.450012</ele>
<time>2021-04-28T12:17:17.288Z</time>
</trkpt>
<trkpt lat="31.7939600" lon="35.0879000">
<ele>522.880005</ele>
<time>2021-04-28T12:17:17.288Z</time>
</trkpt>
<trkpt lat="31.7939400" lon="35.0880200">
<ele>523.000000</ele>
<time>2021-04-28T12:17:17.288Z</time>
</trkpt>
<trkpt lat="31.7939100" lon="35.0881200">
<ele>524.010010</ele>
<time>2021-04-28T12:17:17.288Z</time>
</trkpt>
<trkpt lat="31.7938900" lon="35.0882300">
<ele>525.229980</ele>
<time>2021-04-28T12:17:17.288Z</time>
</trkpt>
<trkpt lat="31.7938300" lon="35.0882500">
<ele>525.799988</ele>
<time>2021-04-28T12:17:17.288Z</time>
</trkpt>
<trkpt lat="31.7937400" lon="35.0882500">
<ele>526.419983</ele>
<time>2021-04-28T12:17:17.288Z</time>
</trkpt>
<trkpt lat="31.7937000" lon="35.0882300">
<ele>526.690002</ele>
<time>2021-04-28T12:17:17.288Z</time>
</trkpt>
<trkpt lat="31.7936900" lon="35.0881000">
<ele>526.839966</ele>
<time>2021-04-28T12:17:17.288Z</time>
</trkpt>
<trkpt lat="31.7936800" lon="35.0880000">
<ele>527.359985</ele>
<time>2021-04-28T12:17:17.288Z</time>
</trkpt>
<trkpt lat="31.7936700" lon="35.0878800">
<ele>528.280029</ele>
<time>2021-04-28T12:17:17.288Z</time>
</trkpt>
<trkpt lat="31.7936700" lon="35.0877800">
<ele>528.929993</ele>
<time>2021-04-28T12:17:17.289Z</time>
</trkpt>
<trkpt lat="31.7936700" lon="35.0876600">
<ele>529.029968</ele>
<time>2021-04-28T12:17:17.289Z</time>
</trkpt>
<trkpt lat="31.7936600" lon="35.0875500">
<ele>529.260010</ele>
<time>2021-04-28T12:17:17.289Z</time>
</trkpt>
<trkpt lat="31.7936600" lon="35.0874400">
<ele>529.690002</ele>
<time>2021-04-28T12:17:17.289Z</time>
</trkpt>
<trkpt lat="31.7936500" lon="35.0873200">
<ele>530.649963</ele>
<time>2021-04-28T12:17:17.289Z</time>
</trkpt>
<trkpt lat="31.7936400" lon="35.0872100">
<ele>531.609985</ele>
<time>2021-04-28T12:17:17.289Z</time>
</trkpt>
<trkpt lat="31.7936300" lon="35.0871000">
<ele>532.950012</ele>
<time>2021-04-28T12:17:17.289Z</time>
</trkpt>
<trkpt lat="31.7936200" lon="35.0869800">
<ele>534.429993</ele>
<time>2021-04-28T12:17:17.289Z</time>
</trkpt>
<trkpt lat="31.7936100" lon="35.0868600">
<ele>535.020020</ele>
<time>2021-04-28T12:17:17.289Z</time>
</trkpt>
<trkpt lat="31.7935900" lon="35.0867300">
<ele>535.299988</ele>
<time>2021-04-28T12:17:17.289Z</time>
</trkpt>
<trkpt lat="31.7935800" lon="35.0866100">
<ele>535.429993</ele>
<time>2021-04-28T12:17:17.289Z</time>
</trkpt>
<trkpt lat="31.7935700" lon="35.0864900">
<ele>535.500000</ele>
<time>2021-04-28T12:17:17.289Z</time>
</trkpt>
<trkpt lat="31.7935500" lon="35.0863700">
<ele>535.770020</ele>
<time>2021-04-28T12:17:17.289Z</time>
</trkpt>
<trkpt lat="31.7935200" lon="35.0862400">
<ele>536.700012</ele>
<time>2021-04-28T12:17:17.289Z</time>
</trkpt>
<trkpt lat="31.7934900" lon="35.0861300">
<ele>537.359985</ele>
<time>2021-04-28T12:17:17.289Z</time>
</trkpt>
<trkpt lat="31.7934700" lon="35.0860100">
<ele>537.880005</ele>
<time>2021-04-28T12:17:17.289Z</time>
</trkpt>
<trkpt lat="31.7934400" lon="35.0859100">
<ele>538.510010</ele>
<time>2021-04-28T12:17:17.289Z</time>
</trkpt>
<trkpt lat="31.7934200" lon="35.0857700">
<ele>539.289978</ele>
<time>2021-04-28T12:17:17.289Z</time>
</trkpt>
<trkpt lat="31.7934000" lon="35.0856400">
<ele>539.979980</ele>
<time>2021-04-28T12:17:17.289Z</time>
</trkpt>
<trkpt lat="31.7933800" lon="35.0855100">
<ele>540.770020</ele>
<time>2021-04-28T12:17:17.289Z</time>
</trkpt>
<trkpt lat="31.7933600" lon="35.0853900">
<ele>541.789978</ele>
<time>2021-04-28T12:17:17.289Z</time>
</trkpt>
<trkpt lat="31.7933400" lon="35.0852700">
<ele>542.940002</ele>
<time>2021-04-28T12:17:17.289Z</time>
</trkpt>
<trkpt lat="31.7933200" lon="35.0851500">
<ele>543.969971</ele>
<time>2021-04-28T12:17:17.289Z</time>
</trkpt>
<trkpt lat="31.7932800" lon="35.0850400">
<ele>544.769958</ele>
<time>2021-04-28T12:17:17.289Z</time>
</trkpt>
<trkpt lat="31.7932600" lon="35.0849200">
<ele>545.080017</ele>
<time>2021-04-28T12:17:17.289Z</time>
</trkpt>
<trkpt lat="31.7932100" lon="35.0848100">
<ele>545.299988</ele>
<time>2021-04-28T12:17:17.289Z</time>
</trkpt>
<trkpt lat="31.7931700" lon="35.0847100">
<ele>545.530029</ele>
<time>2021-04-28T12:17:17.289Z</time>
</trkpt>
<trkpt lat="31.7931100" lon="35.0846100">
<ele>545.570007</ele>
<time>2021-04-28T12:17:17.289Z</time>
</trkpt>
<trkpt lat="31.7930400" lon="35.0845500">
<ele>546.250000</ele>
<time>2021-04-28T12:17:17.290Z</time>
</trkpt>
<trkpt lat="31.7929700" lon="35.0844600">
<ele>547.250000</ele>
<time>2021-04-28T12:17:17.290Z</time>
</trkpt>
<trkpt lat="31.7928900" lon="35.0843900">
<ele>547.950012</ele>
<time>2021-04-28T12:17:17.290Z</time>
</trkpt>
<trkpt lat="31.7928200" lon="35.0843200">
<ele>548.179993</ele>
<time>2021-04-28T12:17:17.290Z</time>
</trkpt>
<trkpt lat="31.7927400" lon="35.0842600">
<ele>548.919983</ele>
<time>2021-04-28T12:17:17.290Z</time>
</trkpt>
<trkpt lat="31.7926600" lon="35.0841800">
<ele>549.730042</ele>
<time>2021-04-28T12:17:17.290Z</time>
</trkpt>
<trkpt lat="31.7925800" lon="35.0841100">
<ele>550.459961</ele>
<time>2021-04-28T12:17:17.290Z</time>
</trkpt>
<trkpt lat="31.7924900" lon="35.0840300">
<ele>551.279968</ele>
<time>2021-04-28T12:17:17.290Z</time>
</trkpt>
<trkpt lat="31.7924200" lon="35.0839600">
<ele>552.040039</ele>
<time>2021-04-28T12:17:17.290Z</time>
</trkpt>
<trkpt lat="31.7923500" lon="35.0838900">
<ele>552.799988</ele>
<time>2021-04-28T12:17:17.290Z</time>
</trkpt>
<trkpt lat="31.7922800" lon="35.0838100">
<ele>553.630005</ele>
<time>2021-04-28T12:17:17.290Z</time>
</trkpt>
<trkpt lat="31.7922000" lon="35.0837400">
<ele>555.150024</ele>
<time>2021-04-28T12:17:17.290Z</time>
</trkpt>
<trkpt lat="31.7921200" lon="35.0836700">
<ele>557.239990</ele>
<time>2021-04-28T12:17:17.290Z</time>
</trkpt>
<trkpt lat="31.7920500" lon="35.0836000">
<ele>559.080017</ele>
<time>2021-04-28T12:17:17.290Z</time>
</trkpt>
<trkpt lat="31.7919800" lon="35.0835200">
<ele>560.739990</ele>
<time>2021-04-28T12:17:17.290Z</time>
</trkpt>
<trkpt lat="31.7919000" lon="35.0834600">
<ele>562.279968</ele>
<time>2021-04-28T12:17:17.290Z</time>
</trkpt>
<trkpt lat="31.7918200" lon="35.0833800">
<ele>563.710022</ele>
<time>2021-04-28T12:17:17.290Z</time>
</trkpt>
<trkpt lat="31.7917600" lon="35.0833000">
<ele>565.149963</ele>
<time>2021-04-28T12:17:17.290Z</time>
</trkpt>
<trkpt lat="31.7916800" lon="35.0832200">
<ele>567.540039</ele>
<time>2021-04-28T12:17:17.290Z</time>
</trkpt>
<trkpt lat="31.7916200" lon="35.0831400">
<ele>568.450012</ele>
<time>2021-04-28T12:17:17.290Z</time>
</trkpt>
<trkpt lat="31.7915400" lon="35.0830500">
<ele>569.270020</ele>
<time>2021-04-28T12:17:17.290Z</time>
</trkpt>
<trkpt lat="31.7914800" lon="35.0829600">
<ele>568.409973</ele>
<time>2021-04-28T12:17:17.290Z</time>
</trkpt>
<trkpt lat="31.7914100" lon="35.0828900">
<ele>568.299988</ele>
<time>2021-04-28T12:17:17.290Z</time>
</trkpt>
<trkpt lat="31.7913300" lon="35.0828200">
<ele>568.239990</ele>
<time>2021-04-28T12:17:17.290Z</time>
</trkpt>
<trkpt lat="31.7912600" lon="35.0827500">
<ele>567.880005</ele>
<time>2021-04-28T12:17:17.290Z</time>
</trkpt>
<trkpt lat="31.7911800" lon="35.0826900">
<ele>567.839966</ele>
<time>2021-04-28T12:17:17.291Z</time>
</trkpt>
<trkpt lat="31.7911200" lon="35.0826100">
<ele>567.450012</ele>
<time>2021-04-28T12:17:17.291Z</time>
</trkpt>
<trkpt lat="31.7910600" lon="35.0825200">
<ele>567.410034</ele>
<time>2021-04-28T12:17:17.291Z</time>
</trkpt>
<trkpt lat="31.7909900" lon="35.0824300">
<ele>567.940002</ele>
<time>2021-04-28T12:17:17.291Z</time>
</trkpt>
<trkpt lat="31.7909100" lon="35.0823500">
<ele>569.359985</ele>
<time>2021-04-28T12:17:17.291Z</time>
</trkpt>
<trkpt lat="31.7908300" lon="35.0822700">
<ele>571.279968</ele>
<time>2021-04-28T12:17:17.291Z</time>
</trkpt>
<trkpt lat="31.7907400" lon="35.0821900">
<ele>573.950012</ele>
<time>2021-04-28T12:17:17.291Z</time>
</trkpt>
<trkpt lat="31.7906500" lon="35.0821300">
<ele>576.829956</ele>
<time>2021-04-28T12:17:17.291Z</time>
</trkpt>
<trkpt lat="31.7905700" lon="35.0820700">
<ele>579.500000</ele>
<time>2021-04-28T12:17:17.291Z</time>
</trkpt>
<trkpt lat="31.7904800" lon="35.0820100">
<ele>581.950012</ele>
<time>2021-04-28T12:17:17.291Z</time>
</trkpt>
<trkpt lat="31.7903900" lon="35.0819400">
<ele>583.530029</ele>
<time>2021-04-28T12:17:17.291Z</time>
</trkpt>
<trkpt lat="31.7902900" lon="35.0818700">
<ele>584.700012</ele>
<time>2021-04-28T12:17:17.291Z</time>
</trkpt>
<trkpt lat="31.7902000" lon="35.0818100">
<ele>585.049988</ele>
<time>2021-04-28T12:17:17.291Z</time>
</trkpt>
<trkpt lat="31.7901200" lon="35.0817500">
<ele>585.070007</ele>
<time>2021-04-28T12:17:17.291Z</time>
</trkpt>
<trkpt lat="31.7900200" lon="35.0816900">
<ele>585.200012</ele>
<time>2021-04-28T12:17:17.291Z</time>
</trkpt>
<trkpt lat="31.7899300" lon="35.0816400">
<ele>584.049988</ele>
<time>2021-04-28T12:17:17.291Z</time>
</trkpt>
<trkpt lat="31.7898300" lon="35.0816100">
<ele>582.839966</ele>
<time>2021-04-28T12:17:17.291Z</time>
</trkpt>
<trkpt lat="31.7897300" lon="35.0816000">
<ele>582.109985</ele>
<time>2021-04-28T12:17:17.291Z</time>
</trkpt>
<trkpt lat="31.7896200" lon="35.0816000">
<ele>582.080017</ele>
<time>2021-04-28T12:17:17.291Z</time>
</trkpt>
<trkpt lat="31.7895000" lon="35.0816000">
<ele>582.080017</ele>
<time>2021-04-28T12:17:17.291Z</time>
</trkpt>
<trkpt lat="31.7894100" lon="35.0816000">
<ele>581.709961</ele>
<time>2021-04-28T12:17:17.291Z</time>
</trkpt>
<trkpt lat="31.7893000" lon="35.0816000">
<ele>580.519958</ele>
<time>2021-04-28T12:17:17.291Z</time>
</trkpt>
<trkpt lat="31.7891900" lon="35.0816000">
<ele>579.330017</ele>
<time>2021-04-28T12:17:17.291Z</time>
</trkpt>
<trkpt lat="31.7890800" lon="35.0816000">
<ele>579.770020</ele>
<time>2021-04-28T12:17:17.291Z</time>
</trkpt>
<trkpt lat="31.7889700" lon="35.0815900">
<ele>580.479980</ele>
<time>2021-04-28T12:17:17.291Z</time>
</trkpt>
<trkpt lat="31.7888800" lon="35.0815700">
<ele>581.159973</ele>
<time>2021-04-28T12:17:17.291Z</time>
</trkpt>
<trkpt lat="31.7887800" lon="35.0815200">
<ele>582.520020</ele>
<time>2021-04-28T12:17:17.291Z</time>
</trkpt>
<trkpt lat="31.7887000" lon="35.0814800">
<ele>583.140015</ele>
<time>2021-04-28T12:17:17.292Z</time>
</trkpt>
<trkpt lat="31.7886000" lon="35.0814300">
<ele>583.469971</ele>
<time>2021-04-28T12:17:17.292Z</time>
</trkpt>
<trkpt lat="31.7885100" lon="35.0813800">
<ele>584.429993</ele>
<time>2021-04-28T12:17:17.292Z</time>
</trkpt>
<trkpt lat="31.7884200" lon="35.0813300">
<ele>586.109985</ele>
<time>2021-04-28T12:17:17.292Z</time>
</trkpt>
<trkpt lat="31.7883300" lon="35.0812900">
<ele>588.000000</ele>
<time>2021-04-28T12:17:17.292Z</time>
</trkpt>
<trkpt lat="31.7882300" lon="35.0812400">
<ele>589.419983</ele>
<time>2021-04-28T12:17:17.292Z</time>
</trkpt>
<trkpt lat="31.7881400" lon="35.0811900">
<ele>590.529968</ele>
<time>2021-04-28T12:17:17.292Z</time>
</trkpt>
<trkpt lat="31.7880500" lon="35.0811300">
<ele>591.320007</ele>
<time>2021-04-28T12:17:17.292Z</time>
</trkpt>
<trkpt lat="31.7879600" lon="35.0810700">
<ele>591.250000</ele>
<time>2021-04-28T12:17:17.292Z</time>
</trkpt>
<trkpt lat="31.7878700" lon="35.0810000">
<ele>591.539978</ele>
<time>2021-04-28T12:17:17.292Z</time>
</trkpt>
<trkpt lat="31.7878000" lon="35.0809300">
<ele>592.029968</ele>
<time>2021-04-28T12:17:17.292Z</time>
</trkpt>
<trkpt lat="31.7877200" lon="35.0808600">
<ele>592.549988</ele>
<time>2021-04-28T12:17:17.292Z</time>
</trkpt>
<trkpt lat="31.7876300" lon="35.0807800">
<ele>592.229980</ele>
<time>2021-04-28T12:17:17.292Z</time>
</trkpt>
<trkpt lat="31.7875300" lon="35.0807000">
<ele>592.559998</ele>
<time>2021-04-28T12:17:17.292Z</time>
</trkpt>
<trkpt lat="31.7874200" lon="35.0806100">
<ele>592.270020</ele>
<time>2021-04-28T12:17:17.292Z</time>
</trkpt>
<trkpt lat="31.7873100" lon="35.0805100">
<ele>589.520020</ele>
<time>2021-04-28T12:17:17.292Z</time>
</trkpt>
<trkpt lat="31.7872400" lon="35.0804400">
<ele>586.820007</ele>
<time>2021-04-28T12:17:17.292Z</time>
</trkpt>
<trkpt lat="31.7871600" lon="35.0803800">
<ele>584.289978</ele>
<time>2021-04-28T12:17:17.292Z</time>
</trkpt>
<trkpt lat="31.7870900" lon="35.0803200">
<ele>581.900024</ele>
<time>2021-04-28T12:17:17.292Z</time>
</trkpt>
<trkpt lat="31.7870100" lon="35.0802500">
<ele>579.789978</ele>
<time>2021-04-28T12:17:17.292Z</time>
</trkpt>
<trkpt lat="31.7869400" lon="35.0801800">
<ele>578.960022</ele>
<time>2021-04-28T12:17:17.292Z</time>
</trkpt>
<trkpt lat="31.7868600" lon="35.0801000">
<ele>578.469971</ele>
<time>2021-04-28T12:17:17.292Z</time>
</trkpt>
<trkpt lat="31.7867700" lon="35.0800100">
<ele>578.320007</ele>
<time>2021-04-28T12:17:17.292Z</time>
</trkpt>
<trkpt lat="31.7866900" lon="35.0799000">
<ele>578.320007</ele>
<time>2021-04-28T12:17:17.292Z</time>
</trkpt>
<trkpt lat="31.7866000" lon="35.0797700">
<ele>578.890015</ele>
<time>2021-04-28T12:17:17.292Z</time>
</trkpt>
<trkpt lat="31.7865100" lon="35.0796300">
<ele>579.650024</ele>
<time>2021-04-28T12:17:17.292Z</time>
</trkpt>
<trkpt lat="31.7864200" lon="35.0794800">
<ele>579.989990</ele>
<time>2021-04-28T12:17:17.292Z</time>
</trkpt>
<trkpt lat="31.7863400" lon="35.0793300">
<ele>579.419983</ele>
<time>2021-04-28T12:17:17.293Z</time>
</trkpt>
<trkpt lat="31.7862600" lon="35.0791900">
<ele>579.059998</ele>
<time>2021-04-28T12:17:17.293Z</time>
</trkpt>
<trkpt lat="31.7861900" lon="35.0790700">
<ele>578.890015</ele>
<time>2021-04-28T12:17:17.293Z</time>
</trkpt>
<trkpt lat="31.7861300" lon="35.0789600">
<ele>579.019958</ele>
<time>2021-04-28T12:17:17.293Z</time>
</trkpt>
<trkpt lat="31.7860700" lon="35.0788700">
<ele>579.679993</ele>
<time>2021-04-28T12:17:17.293Z</time>
</trkpt>
<trkpt lat="31.7860000" lon="35.0787500">
<ele>580.700012</ele>
<time>2021-04-28T12:17:17.293Z</time>
</trkpt>
<trkpt lat="31.7859400" lon="35.0786400">
<ele>581.739990</ele>
<time>2021-04-28T12:17:17.293Z</time>
</trkpt>
<trkpt lat="31.7858700" lon="35.0785900">
<ele>583.320007</ele>
<time>2021-04-28T12:17:17.293Z</time>
</trkpt>
<trkpt lat="31.7857800" lon="35.0785800">
<ele>584.589966</ele>
<time>2021-04-28T12:17:17.293Z</time>
</trkpt>
<trkpt lat="31.7856900" lon="35.0785800">
<ele>585.200012</ele>
<time>2021-04-28T12:17:17.293Z</time>
</trkpt>
<trkpt lat="31.7856100" lon="35.0786100">
<ele>585.609985</ele>
<time>2021-04-28T12:17:17.293Z</time>
</trkpt>
<trkpt lat="31.7855600" lon="35.0787100">
<ele>585.619995</ele>
<time>2021-04-28T12:17:17.293Z</time>
</trkpt>
<trkpt lat="31.7855100" lon="35.0788100">
<ele>584.790039</ele>
<time>2021-04-28T12:17:17.293Z</time>
</trkpt>
<trkpt lat="31.7854400" lon="35.0789400">
<ele>584.230042</ele>
<time>2021-04-28T12:17:17.293Z</time>
</trkpt>
<trkpt lat="31.7853900" lon="35.0790400">
<ele>584.520020</ele>
<time>2021-04-28T12:17:17.293Z</time>
</trkpt>
<trkpt lat="31.7853500" lon="35.0791600">
<ele>584.989990</ele>
<time>2021-04-28T12:17:17.293Z</time>
</trkpt>
<trkpt lat="31.7852900" lon="35.0792800">
<ele>584.619995</ele>
<time>2021-04-28T12:17:17.293Z</time>
</trkpt>
<trkpt lat="31.7852300" lon="35.0794200">
<ele>583.599976</ele>
<time>2021-04-28T12:17:17.293Z</time>
</trkpt>
<trkpt lat="31.7851600" lon="35.0795700">
<ele>580.070007</ele>
<time>2021-04-28T12:17:17.293Z</time>
</trkpt>
<trkpt lat="31.7850900" lon="35.0797200">
<ele>574.229980</ele>
<time>2021-04-28T12:17:17.293Z</time>
</trkpt>
<trkpt lat="31.7850100" lon="35.0798900">
<ele>568.989990</ele>
<time>2021-04-28T12:17:17.293Z</time>
</trkpt>
<trkpt lat="31.7849200" lon="35.0800700">
<ele>567.239990</ele>
<time>2021-04-28T12:17:17.293Z</time>
</trkpt>
<trkpt lat="31.7848300" lon="35.0802500">
<ele>567.090027</ele>
<time>2021-04-28T12:17:17.293Z</time>
</trkpt>
<trkpt lat="31.7847300" lon="35.0804600">
<ele>566.549988</ele>
<time>2021-04-28T12:17:17.293Z</time>
</trkpt>
<trkpt lat="31.7846900" lon="35.0805500">
<ele>565.690002</ele>
<time>2021-04-28T12:17:17.293Z</time>
</trkpt>
<trkpt lat="31.7846400" lon="35.0806600">
<ele>564.380005</ele>
<time>2021-04-28T12:17:17.293Z</time>
</trkpt>
<trkpt lat="31.7845900" lon="35.0807600">
<ele>562.890015</ele>
<time>2021-04-28T12:17:17.293Z</time>
</trkpt>
<trkpt lat="31.7845300" lon="35.0808800">
<ele>561.140015</ele>
<time>2021-04-28T12:17:17.294Z</time>
</trkpt>
<trkpt lat="31.7844800" lon="35.0809900">
<ele>559.809998</ele>
<time>2021-04-28T12:17:17.294Z</time>
</trkpt>
<trkpt lat="31.7844200" lon="35.0810900">
<ele>558.010010</ele>
<time>2021-04-28T12:17:17.294Z</time>
</trkpt>
<trkpt lat="31.7843700" lon="35.0811900">
<ele>557.720032</ele>
<time>2021-04-28T12:17:17.294Z</time>
</trkpt>
<trkpt lat="31.7843200" lon="35.0812900">
<ele>557.229980</ele>
<time>2021-04-28T12:17:17.294Z</time>
</trkpt>
<trkpt lat="31.7842600" lon="35.0813800">
<ele>555.599976</ele>
<time>2021-04-28T12:17:17.294Z</time>
</trkpt>
<trkpt lat="31.7842100" lon="35.0814500">
<ele>554.220032</ele>
<time>2021-04-28T12:17:17.294Z</time>
</trkpt>
<trkpt lat="31.7841000" lon="35.0816500">
<ele>553.400024</ele>
<time>2021-04-28T12:17:17.294Z</time>
</trkpt>
<trkpt lat="31.7839900" lon="35.0818000">
<ele>554.559998</ele>
<time>2021-04-28T12:17:17.294Z</time>
</trkpt>
<trkpt lat="31.7838800" lon="35.0819700">
<ele>550.540039</ele>
<time>2021-04-28T12:17:17.294Z</time>
</trkpt>
<trkpt lat="31.7837800" lon="35.0821400">
<ele>553.039978</ele>
<time>2021-04-28T12:17:17.294Z</time>
</trkpt>
<trkpt lat="31.7836800" lon="35.0823100">
<ele>554.000000</ele>
<time>2021-04-28T12:17:17.294Z</time>
</trkpt>
<trkpt lat="31.7835700" lon="35.0824800">
<ele>552.630005</ele>
<time>2021-04-28T12:17:17.294Z</time>
</trkpt>
<trkpt lat="31.7834700" lon="35.0826400">
<ele>554.239990</ele>
<time>2021-04-28T12:17:17.294Z</time>
</trkpt>
<trkpt lat="31.7833700" lon="35.0827900">
<ele>554.839966</ele>
<time>2021-04-28T12:17:17.294Z</time>
</trkpt>
<trkpt lat="31.7832800" lon="35.0829300">
<ele>554.650024</ele>
<time>2021-04-28T12:17:17.294Z</time>
</trkpt>
<trkpt lat="31.7831900" lon="35.0830700">
<ele>553.540039</ele>
<time>2021-04-28T12:17:17.294Z</time>
</trkpt>
<trkpt lat="31.7831100" lon="35.0832200">
<ele>552.429993</ele>
<time>2021-04-28T12:17:17.294Z</time>
</trkpt>
<trkpt lat="31.7830400" lon="35.0833600">
<ele>551.080017</ele>
<time>2021-04-28T12:17:17.294Z</time>
</trkpt>
<trkpt lat="31.7829700" lon="35.0835100">
<ele>551.220032</ele>
<time>2021-04-28T12:17:17.294Z</time>
</trkpt>
<trkpt lat="31.7829200" lon="35.0836300">
<ele>550.880005</ele>
<time>2021-04-28T12:17:17.294Z</time>
</trkpt>
<trkpt lat="31.7828700" lon="35.0837400">
<ele>550.690002</ele>
<time>2021-04-28T12:17:17.294Z</time>
</trkpt>
<trkpt lat="31.7828200" lon="35.0838400">
<ele>550.089966</ele>
<time>2021-04-28T12:17:17.294Z</time>
</trkpt>
<trkpt lat="31.7827700" lon="35.0839700">
<ele>550.200012</ele>
<time>2021-04-28T12:17:17.294Z</time>
</trkpt>
<trkpt lat="31.7827200" lon="35.0841000">
<ele>551.979980</ele>
<time>2021-04-28T12:17:17.294Z</time>
</trkpt>
<trkpt lat="31.7826700" lon="35.0842100">
<ele>553.150024</ele>
<time>2021-04-28T12:17:17.294Z</time>
</trkpt>
<trkpt lat="31.7826400" lon="35.0843100">
<ele>554.059998</ele>
<time>2021-04-28T12:17:17.294Z</time>
</trkpt>
<trkpt lat="31.7826100" lon="35.0844400">
<ele>554.940002</ele>
<time>2021-04-28T12:17:17.294Z</time>
</trkpt>
<trkpt lat="31.7825900" lon="35.0845400">
<ele>556.329956</ele>
<time>2021-04-28T12:17:17.295Z</time>
</trkpt>
<trkpt lat="31.7825600" lon="35.0846400">
<ele>557.350037</ele>
<time>2021-04-28T12:17:17.295Z</time>
</trkpt>
<trkpt lat="31.7825400" lon="35.0847500">
<ele>558.779968</ele>
<time>2021-04-28T12:17:17.295Z</time>
</trkpt>
<trkpt lat="31.7825200" lon="35.0848600">
<ele>560.619995</ele>
<time>2021-04-28T12:17:17.295Z</time>
</trkpt>
<trkpt lat="31.7824900" lon="35.0849700">
<ele>562.130005</ele>
<time>2021-04-28T12:17:17.295Z</time>
</trkpt>
<trkpt lat="31.7824600" lon="35.0850400">
<ele>562.320007</ele>
<time>2021-04-28T12:17:17.295Z</time>
</trkpt>
<trkpt lat="31.7823700" lon="35.0850500">
<ele>560.250000</ele>
<time>2021-04-28T12:17:17.295Z</time>
</trkpt>
<trkpt lat="31.7823000" lon="35.0850400">
<ele>558.460022</ele>
<time>2021-04-28T12:17:17.295Z</time>
</trkpt>
<trkpt lat="31.7822800" lon="35.0850000">
<ele>557.460022</ele>
<time>2021-04-28T12:17:17.295Z</time>
</trkpt>
<trkpt lat="31.7822800" lon="35.0848400">
<ele>557.190002</ele>
<time>2021-04-28T12:17:17.295Z</time>
</trkpt>
<trkpt lat="31.7822800" lon="35.0847200">
<ele>557.010010</ele>
<time>2021-04-28T12:17:17.295Z</time>
</trkpt>
<trkpt lat="31.7823000" lon="35.0845800">
<ele>557.159973</ele>
<time>2021-04-28T12:17:17.295Z</time>
</trkpt>
<trkpt lat="31.7823200" lon="35.0844700">
<ele>556.900024</ele>
<time>2021-04-28T12:17:17.295Z</time>
</trkpt>
<trkpt lat="31.7823600" lon="35.0843500">
<ele>556.200012</ele>
<time>2021-04-28T12:17:17.295Z</time>
</trkpt>
<trkpt lat="31.7824000" lon="35.0842300">
<ele>555.219971</ele>
<time>2021-04-28T12:17:17.295Z</time>
</trkpt>
<trkpt lat="31.7824500" lon="35.0840900">
<ele>553.390015</ele>
<time>2021-04-28T12:17:17.295Z</time>
</trkpt>
<trkpt lat="31.7825000" lon="35.0839500">
<ele>551.220032</ele>
<time>2021-04-28T12:17:17.295Z</time>
</trkpt>
<trkpt lat="31.7825600" lon="35.0838000">
<ele>550.359985</ele>
<time>2021-04-28T12:17:17.295Z</time>
</trkpt>
<trkpt lat="31.7826100" lon="35.0836500">
<ele>549.190002</ele>
<time>2021-04-28T12:17:17.295Z</time>
</trkpt>
<trkpt lat="31.7826700" lon="35.0835000">
<ele>548.250000</ele>
<time>2021-04-28T12:17:17.295Z</time>
</trkpt>
<trkpt lat="31.7827200" lon="35.0833500">
<ele>547.429993</ele>
<time>2021-04-28T12:17:17.295Z</time>
</trkpt>
<trkpt lat="31.7827700" lon="35.0832100">
<ele>547.079956</ele>
<time>2021-04-28T12:17:17.295Z</time>
</trkpt>
<trkpt lat="31.7828100" lon="35.0830800">
<ele>548.090027</ele>
<time>2021-04-28T12:17:17.295Z</time>
</trkpt>
<trkpt lat="31.7828500" lon="35.0829600">
<ele>549.630005</ele>
<time>2021-04-28T12:17:17.295Z</time>
</trkpt>
<trkpt lat="31.7828800" lon="35.0828400">
<ele>550.979980</ele>
<time>2021-04-28T12:17:17.295Z</time>
</trkpt>
<trkpt lat="31.7829200" lon="35.0827300">
<ele>551.480042</ele>
<time>2021-04-28T12:17:17.295Z</time>
</trkpt>
<trkpt lat="31.7829500" lon="35.0826100">
<ele>551.090027</ele>
<time>2021-04-28T12:17:17.295Z</time>
</trkpt>
<trkpt lat="31.7829900" lon="35.0825100">
<ele>550.219971</ele>
<time>2021-04-28T12:17:17.295Z</time>
</trkpt>
<trkpt lat="31.7830300" lon="35.0824100">
<ele>549.840027</ele>
<time>2021-04-28T12:17:17.296Z</time>
</trkpt>
<trkpt lat="31.7830600" lon="35.0823000">
<ele>549.730042</ele>
<time>2021-04-28T12:17:17.296Z</time>
</trkpt>
<trkpt lat="31.7831100" lon="35.0821800">
<ele>550.000000</ele>
<time>2021-04-28T12:17:17.296Z</time>
</trkpt>
<trkpt lat="31.7831400" lon="35.0820700">
<ele>550.000000</ele>
<time>2021-04-28T12:17:17.296Z</time>
</trkpt>
<trkpt lat="31.7831700" lon="35.0819400">
<ele>550.030029</ele>
<time>2021-04-28T12:17:17.296Z</time>
</trkpt>
<trkpt lat="31.7832000" lon="35.0818200">
<ele>550.660034</ele>
<time>2021-04-28T12:17:17.296Z</time>
</trkpt>
<trkpt lat="31.7832500" lon="35.0816900">
<ele>551.190002</ele>
<time>2021-04-28T12:17:17.296Z</time>
</trkpt>
<trkpt lat="31.7832900" lon="35.0815600">
<ele>551.480042</ele>
<time>2021-04-28T12:17:17.296Z</time>
</trkpt>
<trkpt lat="31.7833400" lon="35.0814400">
<ele>551.839966</ele>
<time>2021-04-28T12:17:17.296Z</time>
</trkpt>
<trkpt lat="31.7833900" lon="35.0813000">
<ele>552.270020</ele>
<time>2021-04-28T12:17:17.296Z</time>
</trkpt>
<trkpt lat="31.7834200" lon="35.0812000">
<ele>552.519958</ele>
<time>2021-04-28T12:17:17.296Z</time>
</trkpt>
<trkpt lat="31.7834400" lon="35.0810800">
<ele>552.770020</ele>
<time>2021-04-28T12:17:17.296Z</time>
</trkpt>
<trkpt lat="31.7834500" lon="35.0809600">
<ele>552.840027</ele>
<time>2021-04-28T12:17:17.296Z</time>
</trkpt>
<trkpt lat="31.7834600" lon="35.0808500">
<ele>552.909973</ele>
<time>2021-04-28T12:17:17.296Z</time>
</trkpt>
<trkpt lat="31.7834700" lon="35.0807200">
<ele>552.989990</ele>
<time>2021-04-28T12:17:17.296Z</time>
</trkpt>
<trkpt lat="31.7834800" lon="35.0806100">
<ele>553.010010</ele>
<time>2021-04-28T12:17:17.296Z</time>
</trkpt>
<trkpt lat="31.7834900" lon="35.0804800">
<ele>553.239990</ele>
<time>2021-04-28T12:17:17.296Z</time>
</trkpt>
<trkpt lat="31.7834900" lon="35.0803400">
<ele>553.679993</ele>
<time>2021-04-28T12:17:17.296Z</time>
</trkpt>
<trkpt lat="31.7834900" lon="35.0801900">
<ele>553.790039</ele>
<time>2021-04-28T12:17:17.296Z</time>
</trkpt>
<trkpt lat="31.7834800" lon="35.0800400">
<ele>553.849976</ele>
<time>2021-04-28T12:17:17.296Z</time>
</trkpt>
<trkpt lat="31.7834600" lon="35.0798900">
<ele>553.080017</ele>
<time>2021-04-28T12:17:17.296Z</time>
</trkpt>
<trkpt lat="31.7834200" lon="35.0797800">
<ele>552.750000</ele>
<time>2021-04-28T12:17:17.296Z</time>
</trkpt>
<trkpt lat="31.7833600" lon="35.0796700">
<ele>552.859985</ele>
<time>2021-04-28T12:17:17.296Z</time>
</trkpt>
<trkpt lat="31.7832800" lon="35.0795800">
<ele>554.000000</ele>
<time>2021-04-28T12:17:17.296Z</time>
</trkpt>
<trkpt lat="31.7832100" lon="35.0795400">
<ele>555.720032</ele>
<time>2021-04-28T12:17:17.296Z</time>
</trkpt>
<trkpt lat="31.7831100" lon="35.0795000">
<ele>558.510010</ele>
<time>2021-04-28T12:17:17.296Z</time>
</trkpt>
<trkpt lat="31.7830100" lon="35.0794600">
<ele>561.390015</ele>
<time>2021-04-28T12:17:17.296Z</time>
</trkpt>
<trkpt lat="31.7829000" lon="35.0794200">
<ele>564.339966</ele>
<time>2021-04-28T12:17:17.297Z</time>
</trkpt>
<trkpt lat="31.7828100" lon="35.0793900">
<ele>566.700012</ele>
<time>2021-04-28T12:17:17.297Z</time>
</trkpt>
<trkpt lat="31.7827200" lon="35.0793400">
<ele>568.500000</ele>
<time>2021-04-28T12:17:17.297Z</time>
</trkpt>
<trkpt lat="31.7826300" lon="35.0792900">
<ele>570.080017</ele>
<time>2021-04-28T12:17:17.297Z</time>
</trkpt>
<trkpt lat="31.7825400" lon="35.0792300">
<ele>571.590027</ele>
<time>2021-04-28T12:17:17.297Z</time>
</trkpt>
<trkpt lat="31.7824700" lon="35.0791600">
<ele>571.799988</ele>
<time>2021-04-28T12:17:17.297Z</time>
</trkpt>
<trkpt lat="31.7824000" lon="35.0790800">
<ele>570.619995</ele>
<time>2021-04-28T12:17:17.297Z</time>
</trkpt>
<trkpt lat="31.7823300" lon="35.0790000">
<ele>569.720032</ele>
<time>2021-04-28T12:17:17.297Z</time>
</trkpt>
<trkpt lat="31.7822700" lon="35.0789000">
<ele>568.919983</ele>
<time>2021-04-28T12:17:17.297Z</time>
</trkpt>
<trkpt lat="31.7822100" lon="35.0788000">
<ele>567.710022</ele>
<time>2021-04-28T12:17:17.297Z</time>
</trkpt>
<trkpt lat="31.7821500" lon="35.0786900">
<ele>567.540039</ele>
<time>2021-04-28T12:17:17.297Z</time>
</trkpt>
<trkpt lat="31.7821000" lon="35.0785800">
<ele>567.510010</ele>
<time>2021-04-28T12:17:17.297Z</time>
</trkpt>
<trkpt lat="31.7820400" lon="35.0784900">
<ele>568.159973</ele>
<time>2021-04-28T12:17:17.297Z</time>
</trkpt>
<trkpt lat="31.7819900" lon="35.0784000">
<ele>568.480042</ele>
<time>2021-04-28T12:17:17.297Z</time>
</trkpt>
<trkpt lat="31.7819300" lon="35.0783100">
<ele>569.059998</ele>
<time>2021-04-28T12:17:17.297Z</time>
</trkpt>
<trkpt lat="31.7818600" lon="35.0782200">
<ele>569.479980</ele>
<time>2021-04-28T12:17:17.297Z</time>
</trkpt>
<trkpt lat="31.7817900" lon="35.0781300">
<ele>569.729980</ele>
<time>2021-04-28T12:17:17.297Z</time>
</trkpt>
<trkpt lat="31.7817000" lon="35.0780600">
<ele>570.459961</ele>
<time>2021-04-28T12:17:17.297Z</time>
</trkpt>
<trkpt lat="31.7816000" lon="35.0779800">
<ele>570.750000</ele>
<time>2021-04-28T12:17:17.297Z</time>
</trkpt>
<trkpt lat="31.7814800" lon="35.0779200">
<ele>570.260010</ele>
<time>2021-04-28T12:17:17.297Z</time>
</trkpt>
<trkpt lat="31.7813800" lon="35.0778900">
<ele>569.639954</ele>
<time>2021-04-28T12:17:17.297Z</time>
</trkpt>
<trkpt lat="31.7812900" lon="35.0778700">
<ele>568.989990</ele>
<time>2021-04-28T12:17:17.297Z</time>
</trkpt>
<trkpt lat="31.7811800" lon="35.0778600">
<ele>568.659973</ele>
<time>2021-04-28T12:17:17.297Z</time>
</trkpt>
<trkpt lat="31.7810900" lon="35.0778600">
<ele>568.700012</ele>
<time>2021-04-28T12:17:17.297Z</time>
</trkpt>
<trkpt lat="31.7809900" lon="35.0778600">
<ele>568.839966</ele>
<time>2021-04-28T12:17:17.297Z</time>
</trkpt>
<trkpt lat="31.7808900" lon="35.0778700">
<ele>569.260010</ele>
<time>2021-04-28T12:17:17.297Z</time>
</trkpt>
<trkpt lat="31.7807800" lon="35.0778800">
<ele>569.099976</ele>
<time>2021-04-28T12:17:17.297Z</time>
</trkpt>
<trkpt lat="31.7806900" lon="35.0778900">
<ele>568.480042</ele>
<time>2021-04-28T12:17:17.297Z</time>
</trkpt>
<trkpt lat="31.7806000" lon="35.0779100">
<ele>567.890015</ele>
<time>2021-04-28T12:17:17.298Z</time>
</trkpt>
<trkpt lat="31.7805000" lon="35.0779300">
<ele>566.219971</ele>
<time>2021-04-28T12:17:17.298Z</time>
</trkpt>
<trkpt lat="31.7803900" lon="35.0779600">
<ele>563.609985</ele>
<time>2021-04-28T12:17:17.298Z</time>
</trkpt>
<trkpt lat="31.7802900" lon="35.0779900">
<ele>561.099976</ele>
<time>2021-04-28T12:17:17.298Z</time>
</trkpt>
<trkpt lat="31.7801900" lon="35.0780300">
<ele>560.330017</ele>
<time>2021-04-28T12:17:17.298Z</time>
</trkpt>
<trkpt lat="31.7800900" lon="35.0780900">
<ele>560.510010</ele>
<time>2021-04-28T12:17:17.298Z</time>
</trkpt>
<trkpt lat="31.7800000" lon="35.0781400">
<ele>560.820007</ele>
<time>2021-04-28T12:17:17.298Z</time>
</trkpt>
<trkpt lat="31.7799100" lon="35.0782000">
<ele>562.719971</ele>
<time>2021-04-28T12:17:17.298Z</time>
</trkpt>
<trkpt lat="31.7798300" lon="35.0782700">
<ele>563.519958</ele>
<time>2021-04-28T12:17:17.298Z</time>
</trkpt>
<trkpt lat="31.7797300" lon="35.0783200">
<ele>563.140015</ele>
<time>2021-04-28T12:17:17.298Z</time>
</trkpt>
<trkpt lat="31.7796300" lon="35.0784000">
<ele>566.030029</ele>
<time>2021-04-28T12:17:17.298Z</time>
</trkpt>
<trkpt lat="31.7795100" lon="35.0784800">
<ele>570.100037</ele>
<time>2021-04-28T12:17:17.298Z</time>
</trkpt>
<trkpt lat="31.7794300" lon="35.0785300">
<ele>572.769958</ele>
<time>2021-04-28T12:17:17.298Z</time>
</trkpt>
<trkpt lat="31.7793400" lon="35.0785400">
<ele>574.330017</ele>
<time>2021-04-28T12:17:17.298Z</time>
</trkpt>
<trkpt lat="31.7792400" lon="35.0785500">
<ele>575.919983</ele>
<time>2021-04-28T12:17:17.298Z</time>
</trkpt>
<trkpt lat="31.7791500" lon="35.0785500">
<ele>577.409973</ele>
<time>2021-04-28T12:17:17.298Z</time>
</trkpt>
<trkpt lat="31.7791200" lon="35.0785300">
<ele>578.130005</ele>
<time>2021-04-28T12:17:17.298Z</time>
</trkpt>
<trkpt lat="31.7791100" lon="35.0784100">
<ele>578.280029</ele>
<time>2021-04-28T12:17:17.298Z</time>
</trkpt>
<trkpt lat="31.7791100" lon="35.0782600">
<ele>578.119995</ele>
<time>2021-04-28T12:17:17.298Z</time>
</trkpt>
<trkpt lat="31.7791100" lon="35.0781100">
<ele>577.909973</ele>
<time>2021-04-28T12:17:17.298Z</time>
</trkpt>
<trkpt lat="31.7791200" lon="35.0779700">
<ele>578.229980</ele>
<time>2021-04-28T12:17:17.298Z</time>
</trkpt>
<trkpt lat="31.7791200" lon="35.0778300">
<ele>579.399963</ele>
<time>2021-04-28T12:17:17.298Z</time>
</trkpt>
<trkpt lat="31.7791200" lon="35.0776900">
<ele>580.160034</ele>
<time>2021-04-28T12:17:17.298Z</time>
</trkpt>
<trkpt lat="31.7791200" lon="35.0775500">
<ele>580.659973</ele>
<time>2021-04-28T12:17:17.298Z</time>
</trkpt>
<trkpt lat="31.7791100" lon="35.0774300">
<ele>580.769958</ele>
<time>2021-04-28T12:17:17.299Z</time>
</trkpt>
<trkpt lat="31.7790900" lon="35.0773100">
<ele>580.700012</ele>
<time>2021-04-28T12:17:17.299Z</time>
</trkpt>
<trkpt lat="31.7790500" lon="35.0772000">
<ele>581.020020</ele>
<time>2021-04-28T12:17:17.299Z</time>
</trkpt>
<trkpt lat="31.7790100" lon="35.0770900">
<ele>581.339966</ele>
<time>2021-04-28T12:17:17.299Z</time>
</trkpt>
<trkpt lat="31.7789700" lon="35.0769800">
<ele>581.669983</ele>
<time>2021-04-28T12:17:17.299Z</time>
</trkpt>
<trkpt lat="31.7789200" lon="35.0768700">
<ele>582.169983</ele>
<time>2021-04-28T12:17:17.299Z</time>
</trkpt>
<trkpt lat="31.7789000" lon="35.0767700">
<ele>582.169983</ele>
<time>2021-04-28T12:17:17.299Z</time>
</trkpt>
<trkpt lat="31.7789000" lon="35.0766600">
<ele>581.750000</ele>
<time>2021-04-28T12:17:17.299Z</time>
</trkpt>
<trkpt lat="31.7789000" lon="35.0765300">
<ele>580.859985</ele>
<time>2021-04-28T12:17:17.299Z</time>
</trkpt>
<trkpt lat="31.7789100" lon="35.0764100">
<ele>579.910034</ele>
<time>2021-04-28T12:17:17.299Z</time>
</trkpt>
<trkpt lat="31.7789600" lon="35.0763100">
<ele>579.019958</ele>
<time>2021-04-28T12:17:17.299Z</time>
</trkpt>
<trkpt lat="31.7790500" lon="35.0762400">
<ele>578.029968</ele>
<time>2021-04-28T12:17:17.299Z</time>
</trkpt>
<trkpt lat="31.7791300" lon="35.0761800">
<ele>577.299988</ele>
<time>2021-04-28T12:17:17.299Z</time>
</trkpt>
<trkpt lat="31.7792300" lon="35.0760900">
<ele>577.080017</ele>
<time>2021-04-28T12:17:17.299Z</time>
</trkpt>
<trkpt lat="31.7793200" lon="35.0760200">
<ele>577.760010</ele>
<time>2021-04-28T12:17:17.299Z</time>
</trkpt>
<trkpt lat="31.7794000" lon="35.0759400">
<ele>578.619995</ele>
<time>2021-04-28T12:17:17.299Z</time>
</trkpt>
<trkpt lat="31.7794800" lon="35.0758500">
<ele>580.010010</ele>
<time>2021-04-28T12:17:17.299Z</time>
</trkpt>
<trkpt lat="31.7795400" lon="35.0757600">
<ele>581.469971</ele>
<time>2021-04-28T12:17:17.299Z</time>
</trkpt>
<trkpt lat="31.7795900" lon="35.0756600">
<ele>582.559998</ele>
<time>2021-04-28T12:17:17.299Z</time>
</trkpt>
<trkpt lat="31.7796400" lon="35.0755400">
<ele>583.290039</ele>
<time>2021-04-28T12:17:17.299Z</time>
</trkpt>
<trkpt lat="31.7796700" lon="35.0754300">
<ele>582.989990</ele>
<time>2021-04-28T12:17:17.299Z</time>
</trkpt>
<trkpt lat="31.7797000" lon="35.0753200">
<ele>582.440002</ele>
<time>2021-04-28T12:17:17.299Z</time>
</trkpt>
<trkpt lat="31.7797200" lon="35.0751900">
<ele>581.719971</ele>
<time>2021-04-28T12:17:17.299Z</time>
</trkpt>
<trkpt lat="31.7797400" lon="35.0750700">
<ele>581.589966</ele>
<time>2021-04-28T12:17:17.299Z</time>
</trkpt>
<trkpt lat="31.7797600" lon="35.0749400">
<ele>582.250000</ele>
<time>2021-04-28T12:17:17.299Z</time>
</trkpt>
<trkpt lat="31.7797700" lon="35.0748300">
<ele>583.260010</ele>
<time>2021-04-28T12:17:17.299Z</time>
</trkpt>
<trkpt lat="31.7797700" lon="35.0747100">
<ele>584.150024</ele>
<time>2021-04-28T12:17:17.300Z</time>
</trkpt>
<trkpt lat="31.7797700" lon="35.0745900">
<ele>585.299988</ele>
<time>2021-04-28T12:17:17.300Z</time>
</trkpt>
<trkpt lat="31.7797700" lon="35.0744700">
<ele>586.440002</ele>
<time>2021-04-28T12:17:17.300Z</time>
</trkpt>
<trkpt lat="31.7797500" lon="35.0743600">
<ele>587.709961</ele>
<time>2021-04-28T12:17:17.300Z</time>
</trkpt>
<trkpt lat="31.7797300" lon="35.0742400">
<ele>589.650024</ele>
<time>2021-04-28T12:17:17.300Z</time>
</trkpt>
<trkpt lat="31.7796900" lon="35.0741300">
<ele>591.710022</ele>
<time>2021-04-28T12:17:17.300Z</time>
</trkpt>
<trkpt lat="31.7796600" lon="35.0740300">
<ele>592.609985</ele>
<time>2021-04-28T12:17:17.300Z</time>
</trkpt>
<trkpt lat="31.7796100" lon="35.0739300">
<ele>593.869995</ele>
<time>2021-04-28T12:17:17.300Z</time>
</trkpt>
<trkpt lat="31.7795600" lon="35.0738100">
<ele>594.070007</ele>
<time>2021-04-28T12:17:17.300Z</time>
</trkpt>
<trkpt lat="31.7795000" lon="35.0737000">
<ele>593.959961</ele>
<time>2021-04-28T12:17:17.300Z</time>
</trkpt>
<trkpt lat="31.7794500" lon="35.0736000">
<ele>593.820007</ele>
<time>2021-04-28T12:17:17.300Z</time>
</trkpt>
<trkpt lat="31.7794000" lon="35.0734800">
<ele>593.619995</ele>
<time>2021-04-28T12:17:17.300Z</time>
</trkpt>
<trkpt lat="31.7793800" lon="35.0733500">
<ele>592.830017</ele>
<time>2021-04-28T12:17:17.300Z</time>
</trkpt>
<trkpt lat="31.7793800" lon="35.0732000">
<ele>591.479980</ele>
<time>2021-04-28T12:17:17.300Z</time>
</trkpt>
<trkpt lat="31.7793700" lon="35.0730500">
<ele>590.299988</ele>
<time>2021-04-28T12:17:17.300Z</time>
</trkpt>
<trkpt lat="31.7793800" lon="35.0729000">
<ele>589.039978</ele>
<time>2021-04-28T12:17:17.300Z</time>
</trkpt>
<trkpt lat="31.7793900" lon="35.0727700">
<ele>587.969971</ele>
<time>2021-04-28T12:17:17.300Z</time>
</trkpt>
<trkpt lat="31.7794200" lon="35.0726200">
<ele>587.390015</ele>
<time>2021-04-28T12:17:17.300Z</time>
</trkpt>
<trkpt lat="31.7794300" lon="35.0724600">
<ele>587.650024</ele>
<time>2021-04-28T12:17:17.300Z</time>
</trkpt>
<trkpt lat="31.7794500" lon="35.0723500">
<ele>588.500000</ele>
<time>2021-04-28T12:17:17.300Z</time>
</trkpt>
<trkpt lat="31.7794500" lon="35.0722300">
<ele>589.780029</ele>
<time>2021-04-28T12:17:17.300Z</time>
</trkpt>
<trkpt lat="31.7794600" lon="35.0721100">
<ele>589.270020</ele>
<time>2021-04-28T12:17:17.300Z</time>
</trkpt>
<trkpt lat="31.7794600" lon="35.0719900">
<ele>588.909973</ele>
<time>2021-04-28T12:17:17.300Z</time>
</trkpt>
<trkpt lat="31.7794600" lon="35.0718800">
<ele>588.789978</ele>
<time>2021-04-28T12:17:17.300Z</time>
</trkpt>
<trkpt lat="31.7794500" lon="35.0717600">
<ele>588.929993</ele>
<time>2021-04-28T12:17:17.300Z</time>
</trkpt>
<trkpt lat="31.7794500" lon="35.0716400">
<ele>588.940002</ele>
<time>2021-04-28T12:17:17.300Z</time>
</trkpt>
<trkpt lat="31.7794600" lon="35.0715300">
<ele>588.859985</ele>
<time>2021-04-28T12:17:17.300Z</time>
</trkpt>
<trkpt lat="31.7794600" lon="35.0714100">
<ele>588.880005</ele>
<time>2021-04-28T12:17:17.301Z</time>
</trkpt>
<trkpt lat="31.7794700" lon="35.0712900">
<ele>588.820007</ele>
<time>2021-04-28T12:17:17.301Z</time>
</trkpt>
<trkpt lat="31.7794900" lon="35.0711800">
<ele>588.669983</ele>
<time>2021-04-28T12:17:17.301Z</time>
</trkpt>
<trkpt lat="31.7795300" lon="35.0710400">
<ele>588.900024</ele>
<time>2021-04-28T12:17:17.301Z</time>
</trkpt>
<trkpt lat="31.7795800" lon="35.0709300">
<ele>589.329956</ele>
<time>2021-04-28T12:17:17.301Z</time>
</trkpt>
<trkpt lat="31.7796200" lon="35.0708300">
<ele>589.750000</ele>
<time>2021-04-28T12:17:17.301Z</time>
</trkpt>
<trkpt lat="31.7796900" lon="35.0707300">
<ele>589.400024</ele>
<time>2021-04-28T12:17:17.301Z</time>
</trkpt>
<trkpt lat="31.7797500" lon="35.0706300">
<ele>588.919983</ele>
<time>2021-04-28T12:17:17.301Z</time>
</trkpt>
<trkpt lat="31.7798200" lon="35.0705200">
<ele>589.130005</ele>
<time>2021-04-28T12:17:17.301Z</time>
</trkpt>
<trkpt lat="31.7798800" lon="35.0704300">
<ele>589.450012</ele>
<time>2021-04-28T12:17:17.301Z</time>
</trkpt>
<trkpt lat="31.7799300" lon="35.0703500">
<ele>589.739990</ele>
<time>2021-04-28T12:17:17.301Z</time>
</trkpt>
<trkpt lat="31.7799900" lon="35.0702400">
<ele>590.019958</ele>
<time>2021-04-28T12:17:17.301Z</time>
</trkpt>
<trkpt lat="31.7800500" lon="35.0701200">
<ele>590.049988</ele>
<time>2021-04-28T12:17:17.301Z</time>
</trkpt>
<trkpt lat="31.7801000" lon="35.0700300">
<ele>590.559998</ele>
<time>2021-04-28T12:17:17.301Z</time>
</trkpt>
<trkpt lat="31.7801400" lon="35.0699300">
<ele>591.390015</ele>
<time>2021-04-28T12:17:17.301Z</time>
</trkpt>
<trkpt lat="31.7801800" lon="35.0698100">
<ele>592.419983</ele>
<time>2021-04-28T12:17:17.301Z</time>
</trkpt>
<trkpt lat="31.7802100" lon="35.0697000">
<ele>593.289978</ele>
<time>2021-04-28T12:17:17.301Z</time>
</trkpt>
<trkpt lat="31.7802300" lon="35.0695800">
<ele>593.409973</ele>
<time>2021-04-28T12:17:17.301Z</time>
</trkpt>
<trkpt lat="31.7802600" lon="35.0694700">
<ele>593.190002</ele>
<time>2021-04-28T12:17:17.301Z</time>
</trkpt>
<trkpt lat="31.7802800" lon="35.0693400">
<ele>592.559998</ele>
<time>2021-04-28T12:17:17.301Z</time>
</trkpt>
<trkpt lat="31.7803000" lon="35.0692100">
<ele>591.500000</ele>
<time>2021-04-28T12:17:17.301Z</time>
</trkpt>
<trkpt lat="31.7803200" lon="35.0690800">
<ele>592.890015</ele>
<time>2021-04-28T12:17:17.301Z</time>
</trkpt>
<trkpt lat="31.7803300" lon="35.0689800">
<ele>595.159973</ele>
<time>2021-04-28T12:17:17.301Z</time>
</trkpt>
<trkpt lat="31.7803300" lon="35.0688500">
<ele>597.720032</ele>
<time>2021-04-28T12:17:17.301Z</time>
</trkpt>
<trkpt lat="31.7803300" lon="35.0687300">
<ele>598.579956</ele>
<time>2021-04-28T12:17:17.301Z</time>
</trkpt>
<trkpt lat="31.7803300" lon="35.0686100">
<ele>599.440002</ele>
<time>2021-04-28T12:17:17.301Z</time>
</trkpt>
<trkpt lat="31.7803300" lon="35.0684700">
<ele>599.850037</ele>
<time>2021-04-28T12:17:17.301Z</time>
</trkpt>
<trkpt lat="31.7803200" lon="35.0683500">
<ele>600.339966</ele>
<time>2021-04-28T12:17:17.302Z</time>
</trkpt>
<trkpt lat="31.7803000" lon="35.0682300">
<ele>601.330017</ele>
<time>2021-04-28T12:17:17.302Z</time>
</trkpt>
<trkpt lat="31.7802800" lon="35.0681200">
<ele>602.489990</ele>
<time>2021-04-28T12:17:17.302Z</time>
</trkpt>
<trkpt lat="31.7802400" lon="35.0680200">
<ele>604.659973</ele>
<time>2021-04-28T12:17:17.302Z</time>
</trkpt>
<trkpt lat="31.7802000" lon="35.0679200">
<ele>607.130005</ele>
<time>2021-04-28T12:17:17.302Z</time>
</trkpt>
<trkpt lat="31.7801800" lon="35.0678000">
<ele>609.119995</ele>
<time>2021-04-28T12:17:17.302Z</time>
</trkpt>
<trkpt lat="31.7801700" lon="35.0676900">
<ele>609.239990</ele>
<time>2021-04-28T12:17:17.302Z</time>
</trkpt>
<trkpt lat="31.7801700" lon="35.0675700">
<ele>608.799988</ele>
<time>2021-04-28T12:17:17.302Z</time>
</trkpt>
<trkpt lat="31.7801800" lon="35.0674500">
<ele>608.229980</ele>
<time>2021-04-28T12:17:17.302Z</time>
</trkpt>
<trkpt lat="31.7802000" lon="35.0673500">
<ele>607.580017</ele>
<time>2021-04-28T12:17:17.302Z</time>
</trkpt>
<trkpt lat="31.7802700" lon="35.0672300">
<ele>606.140015</ele>
<time>2021-04-28T12:17:17.302Z</time>
</trkpt>
<trkpt lat="31.7803400" lon="35.0671300">
<ele>607.549988</ele>
<time>2021-04-28T12:17:17.302Z</time>
</trkpt>
<trkpt lat="31.7804100" lon="35.0670400">
<ele>609.100037</ele>
<time>2021-04-28T12:17:17.302Z</time>
</trkpt>
<trkpt lat="31.7804800" lon="35.0669400">
<ele>610.750000</ele>
<time>2021-04-28T12:17:17.302Z</time>
</trkpt>
<trkpt lat="31.7805500" lon="35.0668400">
<ele>611.359985</ele>
<time>2021-04-28T12:17:17.302Z</time>
</trkpt>
<trkpt lat="31.7806100" lon="35.0667600">
<ele>611.599976</ele>
<time>2021-04-28T12:17:17.302Z</time>
</trkpt>
<trkpt lat="31.7806700" lon="35.0666800">
<ele>612.279968</ele>
<time>2021-04-28T12:17:17.302Z</time>
</trkpt>
<trkpt lat="31.7807300" lon="35.0665900">
<ele>612.830017</ele>
<time>2021-04-28T12:17:17.302Z</time>
</trkpt>
<trkpt lat="31.7807900" lon="35.0664800">
<ele>613.049988</ele>
<time>2021-04-28T12:17:17.302Z</time>
</trkpt>
<trkpt lat="31.7808500" lon="35.0663800">
<ele>612.880005</ele>
<time>2021-04-28T12:17:17.302Z</time>
</trkpt>
<trkpt lat="31.7809000" lon="35.0662800">
<ele>612.520020</ele>
<time>2021-04-28T12:17:17.302Z</time>
</trkpt>
<trkpt lat="31.7809600" lon="35.0661700">
<ele>612.090027</ele>
<time>2021-04-28T12:17:17.302Z</time>
</trkpt>
<trkpt lat="31.7810000" lon="35.0660400">
<ele>612.360046</ele>
<time>2021-04-28T12:17:17.302Z</time>
</trkpt>
<trkpt lat="31.7810200" lon="35.0658800">
<ele>613.609985</ele>
<time>2021-04-28T12:17:17.302Z</time>
</trkpt>
<trkpt lat="31.7810400" lon="35.0657600">
<ele>613.080017</ele>
<time>2021-04-28T12:17:17.302Z</time>
</trkpt>
<trkpt lat="31.7810500" lon="35.0656200">
<ele>611.270020</ele>
<time>2021-04-28T12:17:17.302Z</time>
</trkpt>
<trkpt lat="31.7810600" lon="35.0654600">
<ele>609.270020</ele>
<time>2021-04-28T12:17:17.302Z</time>
</trkpt>
<trkpt lat="31.7810600" lon="35.0652900">
<ele>607.320007</ele>
<time>2021-04-28T12:17:17.303Z</time>
</trkpt>
<trkpt lat="31.7810600" lon="35.0651000">
<ele>605.150024</ele>
<time>2021-04-28T12:17:17.303Z</time>
</trkpt>
<trkpt lat="31.7810600" lon="35.0649200">
<ele>603.840027</ele>
<time>2021-04-28T12:17:17.303Z</time>
</trkpt>
<trkpt lat="31.7810600" lon="35.0647300">
<ele>603.459961</ele>
<time>2021-04-28T12:17:17.303Z</time>
</trkpt>
<trkpt lat="31.7810500" lon="35.0645400">
<ele>602.679993</ele>
<time>2021-04-28T12:17:17.303Z</time>
</trkpt>
<trkpt lat="31.7810400" lon="35.0643600">
<ele>601.770020</ele>
<time>2021-04-28T12:17:17.303Z</time>
</trkpt>
<trkpt lat="31.7810300" lon="35.0641700">
<ele>600.559998</ele>
<time>2021-04-28T12:17:17.303Z</time>
</trkpt>
<trkpt lat="31.7810200" lon="35.0639600">
<ele>600.599976</ele>
<time>2021-04-28T12:17:17.303Z</time>
</trkpt>
<trkpt lat="31.7810000" lon="35.0638000">
<ele>599.890015</ele>
<time>2021-04-28T12:17:17.303Z</time>
</trkpt>
<trkpt lat="31.7809600" lon="35.0637200">
<ele>598.940002</ele>
<time>2021-04-28T12:17:17.303Z</time>
</trkpt>
<trkpt lat="31.7808700" lon="35.0637200">
<ele>597.840027</ele>
<time>2021-04-28T12:17:17.303Z</time>
</trkpt>
<trkpt lat="31.7807700" lon="35.0637200">
<ele>595.890015</ele>
<time>2021-04-28T12:17:17.303Z</time>
</trkpt>
<trkpt lat="31.7806800" lon="35.0637200">
<ele>593.739990</ele>
<time>2021-04-28T12:17:17.303Z</time>
</trkpt>
<trkpt lat="31.7805900" lon="35.0637400">
<ele>591.739990</ele>
<time>2021-04-28T12:17:17.303Z</time>
</trkpt>
<trkpt lat="31.7804800" lon="35.0637900">
<ele>591.190002</ele>
<time>2021-04-28T12:17:17.303Z</time>
</trkpt>
<trkpt lat="31.7803900" lon="35.0638400">
<ele>591.539978</ele>
<time>2021-04-28T12:17:17.303Z</time>
</trkpt>
<trkpt lat="31.7802900" lon="35.0638900">
<ele>592.010010</ele>
<time>2021-04-28T12:17:17.303Z</time>
</trkpt>
<trkpt lat="31.7801900" lon="35.0639700">
<ele>592.410034</ele>
<time>2021-04-28T12:17:17.303Z</time>
</trkpt>
<trkpt lat="31.7801100" lon="35.0640200">
<ele>591.989990</ele>
<time>2021-04-28T12:17:17.303Z</time>
</trkpt>
<trkpt lat="31.7800200" lon="35.0640800">
<ele>590.869995</ele>
<time>2021-04-28T12:17:17.303Z</time>
</trkpt>
<trkpt lat="31.7799300" lon="35.0641400">
<ele>591.460022</ele>
<time>2021-04-28T12:17:17.303Z</time>
</trkpt>
<trkpt lat="31.7798500" lon="35.0642000">
<ele>593.200012</ele>
<time>2021-04-28T12:17:17.303Z</time>
</trkpt>
<trkpt lat="31.7797500" lon="35.0642700">
<ele>594.210022</ele>
<time>2021-04-28T12:17:17.303Z</time>
</trkpt>
<trkpt lat="31.7796500" lon="35.0643300">
<ele>593.590027</ele>
<time>2021-04-28T12:17:17.303Z</time>
</trkpt>
<trkpt lat="31.7795400" lon="35.0643900">
<ele>593.049988</ele>
<time>2021-04-28T12:17:17.303Z</time>
</trkpt>
<trkpt lat="31.7794400" lon="35.0644500">
<ele>593.210022</ele>
<time>2021-04-28T12:17:17.303Z</time>
</trkpt>
<trkpt lat="31.7793400" lon="35.0645000">
<ele>596.559998</ele>
<time>2021-04-28T12:17:17.303Z</time>
</trkpt>
<trkpt lat="31.7792400" lon="35.0645100">
<ele>599.160034</ele>
<time>2021-04-28T12:17:17.304Z</time>
</trkpt>
<trkpt lat="31.7791300" lon="35.0645100">
<ele>601.340027</ele>
<time>2021-04-28T12:17:17.304Z</time>
</trkpt>
<trkpt lat="31.7790400" lon="35.0645100">
<ele>602.309998</ele>
<time>2021-04-28T12:17:17.304Z</time>
</trkpt>
<trkpt lat="31.7790100" lon="35.0644300">
<ele>601.570007</ele>
<time>2021-04-28T12:17:17.304Z</time>
</trkpt>
<trkpt lat="31.7790100" lon="35.0643100">
<ele>600.570007</ele>
<time>2021-04-28T12:17:17.304Z</time>
</trkpt>
<trkpt lat="31.7790100" lon="35.0641400">
<ele>599.179993</ele>
<time>2021-04-28T12:17:17.304Z</time>
</trkpt>
<trkpt lat="31.7790100" lon="35.0639800">
<ele>597.950012</ele>
<time>2021-04-28T12:17:17.304Z</time>
</trkpt>
<trkpt lat="31.7790500" lon="35.0638000">
<ele>596.169983</ele>
<time>2021-04-28T12:17:17.304Z</time>
</trkpt>
<trkpt lat="31.7791200" lon="35.0636100">
<ele>593.839966</ele>
<time>2021-04-28T12:17:17.304Z</time>
</trkpt>
<trkpt lat="31.7791900" lon="35.0634400">
<ele>593.700012</ele>
<time>2021-04-28T12:17:17.304Z</time>
</trkpt>
<trkpt lat="31.7792600" lon="35.0632600">
<ele>593.720032</ele>
<time>2021-04-28T12:17:17.304Z</time>
</trkpt>
<trkpt lat="31.7793300" lon="35.0631000">
<ele>593.059998</ele>
<time>2021-04-28T12:17:17.304Z</time>
</trkpt>
<trkpt lat="31.7793900" lon="35.0629300">
<ele>592.229980</ele>
<time>2021-04-28T12:17:17.304Z</time>
</trkpt>
<trkpt lat="31.7794400" lon="35.0627900">
<ele>591.109985</ele>
<time>2021-04-28T12:17:17.304Z</time>
</trkpt>
<trkpt lat="31.7795200" lon="35.0626500">
<ele>590.959961</ele>
<time>2021-04-28T12:17:17.304Z</time>
</trkpt>
<trkpt lat="31.7796000" lon="35.0625200">
<ele>590.669983</ele>
<time>2021-04-28T12:17:17.304Z</time>
</trkpt>
<trkpt lat="31.7796700" lon="35.0623800">
<ele>591.059998</ele>
<time>2021-04-28T12:17:17.304Z</time>
</trkpt>
<trkpt lat="31.7797400" lon="35.0622400">
<ele>590.890015</ele>
<time>2021-04-28T12:17:17.304Z</time>
</trkpt>
<trkpt lat="31.7798100" lon="35.0620900">
<ele>590.190002</ele>
<time>2021-04-28T12:17:17.304Z</time>
</trkpt>
<trkpt lat="31.7798800" lon="35.0619400">
<ele>589.950012</ele>
<time>2021-04-28T12:17:17.304Z</time>
</trkpt>
<trkpt lat="31.7799500" lon="35.0617900">
<ele>587.719971</ele>
<time>2021-04-28T12:17:17.304Z</time>
</trkpt>
<trkpt lat="31.7800100" lon="35.0616200">
<ele>584.350037</ele>
<time>2021-04-28T12:17:17.304Z</time>
</trkpt>
<trkpt lat="31.7800800" lon="35.0614500">
<ele>581.070007</ele>
<time>2021-04-28T12:17:17.304Z</time>
</trkpt>
<trkpt lat="31.7801400" lon="35.0612700">
<ele>580.469971</ele>
<time>2021-04-28T12:17:17.304Z</time>
</trkpt>
<trkpt lat="31.7801900" lon="35.0610900">
<ele>581.489990</ele>
<time>2021-04-28T12:17:17.304Z</time>
</trkpt>
<trkpt lat="31.7802300" lon="35.0609200">
<ele>582.839966</ele>
<time>2021-04-28T12:17:17.304Z</time>
</trkpt>
<trkpt lat="31.7802600" lon="35.0607700">
<ele>584.660034</ele>
<time>2021-04-28T12:17:17.304Z</time>
</trkpt>
<trkpt lat="31.7802800" lon="35.0606400">
<ele>587.090027</ele>
<time>2021-04-28T12:17:17.305Z</time>
</trkpt>
<trkpt lat="31.7803000" lon="35.0604900">
<ele>588.570007</ele>
<time>2021-04-28T12:17:17.305Z</time>
</trkpt>
<trkpt lat="31.7803100" lon="35.0603600">
<ele>588.900024</ele>
<time>2021-04-28T12:17:17.305Z</time>
</trkpt>
<trkpt lat="31.7803200" lon="35.0602400">
<ele>589.030029</ele>
<time>2021-04-28T12:17:17.305Z</time>
</trkpt>
<trkpt lat="31.7803300" lon="35.0601100">
<ele>588.720032</ele>
<time>2021-04-28T12:17:17.305Z</time>
</trkpt>
<trkpt lat="31.7803500" lon="35.0599600">
<ele>588.270020</ele>
<time>2021-04-28T12:17:17.305Z</time>
</trkpt>
<trkpt lat="31.7803700" lon="35.0598600">
<ele>587.660034</ele>
<time>2021-04-28T12:17:17.305Z</time>
</trkpt>
<trkpt lat="31.7803800" lon="35.0597500">
<ele>587.130005</ele>
<time>2021-04-28T12:17:17.305Z</time>
</trkpt>
<trkpt lat="31.7803900" lon="35.0596300">
<ele>586.670044</ele>
<time>2021-04-28T12:17:17.305Z</time>
</trkpt>
<trkpt lat="31.7803900" lon="35.0594900">
<ele>586.160034</ele>
<time>2021-04-28T12:17:17.305Z</time>
</trkpt>
<trkpt lat="31.7803900" lon="35.0591300">
<ele>585.489990</ele>
<time>2021-04-28T12:17:17.305Z</time>
</trkpt>
<trkpt lat="31.7803800" lon="35.0589400">
<ele>583.799988</ele>
<time>2021-04-28T12:17:17.305Z</time>
</trkpt>
<trkpt lat="31.7803700" lon="35.0587500">
<ele>581.500000</ele>
<time>2021-04-28T12:17:17.305Z</time>
</trkpt>
<trkpt lat="31.7803400" lon="35.0585600">
<ele>579.529968</ele>
<time>2021-04-28T12:17:17.305Z</time>
</trkpt>
<trkpt lat="31.7802800" lon="35.0583600">
<ele>579.950012</ele>
<time>2021-04-28T12:17:17.305Z</time>
</trkpt>
<trkpt lat="31.7802000" lon="35.0582300">
<ele>577.609985</ele>
<time>2021-04-28T12:17:17.305Z</time>
</trkpt>
<trkpt lat="31.7801000" lon="35.0581500">
<ele>576.049988</ele>
<time>2021-04-28T12:17:17.305Z</time>
</trkpt>
<trkpt lat="31.7799900" lon="35.0581200">
<ele>575.289978</ele>
<time>2021-04-28T12:17:17.305Z</time>
</trkpt>
<trkpt lat="31.7798700" lon="35.0581200">
<ele>573.230042</ele>
<time>2021-04-28T12:17:17.305Z</time>
</trkpt>
<trkpt lat="31.7797600" lon="35.0581200">
<ele>571.340027</ele>
<time>2021-04-28T12:17:17.305Z</time>
</trkpt>
<trkpt lat="31.7796400" lon="35.0581200">
<ele>570.630005</ele>
<time>2021-04-28T12:17:17.305Z</time>
</trkpt>
<trkpt lat="31.7795200" lon="35.0581400">
<ele>570.690002</ele>
<time>2021-04-28T12:17:17.305Z</time>
</trkpt>
<trkpt lat="31.7794000" lon="35.0581500">
<ele>571.210022</ele>
<time>2021-04-28T12:17:17.305Z</time>
</trkpt>
<trkpt lat="31.7792800" lon="35.0581500">
<ele>572.659973</ele>
<time>2021-04-28T12:17:17.305Z</time>
</trkpt>
<trkpt lat="31.7791500" lon="35.0581400">
<ele>574.059998</ele>
<time>2021-04-28T12:17:17.305Z</time>
</trkpt>
<trkpt lat="31.7790900" lon="35.0581300">
<ele>574.479980</ele>
<time>2021-04-28T12:17:17.305Z</time>
</trkpt>
<trkpt lat="31.7790800" lon="35.0580400">
<ele>574.030029</ele>
<time>2021-04-28T12:17:17.305Z</time>
</trkpt>
<trkpt lat="31.7790800" lon="35.0578900">
<ele>574.900024</ele>
<time>2021-04-28T12:17:17.305Z</time>
</trkpt>
<trkpt lat="31.7790900" lon="35.0577400">
<ele>575.479980</ele>
<time>2021-04-28T12:17:17.306Z</time>
</trkpt>
<trkpt lat="31.7791300" lon="35.0575900">
<ele>575.250000</ele>
<time>2021-04-28T12:17:17.306Z</time>
</trkpt>
<trkpt lat="31.7792100" lon="35.0574400">
<ele>574.659973</ele>
<time>2021-04-28T12:17:17.306Z</time>
</trkpt>
<trkpt lat="31.7792900" lon="35.0572800">
<ele>574.119995</ele>
<time>2021-04-28T12:17:17.306Z</time>
</trkpt>
<trkpt lat="31.7793700" lon="35.0571200">
<ele>574.640015</ele>
<time>2021-04-28T12:17:17.306Z</time>
</trkpt>
<trkpt lat="31.7794500" lon="35.0569700">
<ele>575.710022</ele>
<time>2021-04-28T12:17:17.306Z</time>
</trkpt>
<trkpt lat="31.7795200" lon="35.0568200">
<ele>574.349976</ele>
<time>2021-04-28T12:17:17.306Z</time>
</trkpt>
<trkpt lat="31.7795800" lon="35.0566900">
<ele>573.960022</ele>
<time>2021-04-28T12:17:17.306Z</time>
</trkpt>
<trkpt lat="31.7796400" lon="35.0565600">
<ele>574.229980</ele>
<time>2021-04-28T12:17:17.306Z</time>
</trkpt>
<trkpt lat="31.7796900" lon="35.0564400">
<ele>574.190002</ele>
<time>2021-04-28T12:17:17.306Z</time>
</trkpt>
<trkpt lat="31.7797500" lon="35.0563300">
<ele>573.979980</ele>
<time>2021-04-28T12:17:17.306Z</time>
</trkpt>
<trkpt lat="31.7797800" lon="35.0562700">
<ele>574.070007</ele>
<time>2021-04-28T12:17:17.306Z</time>
</trkpt>
<trkpt lat="31.7798000" lon="35.0562200">
<ele>574.279968</ele>
<time>2021-04-28T12:17:17.306Z</time>
</trkpt>
<trkpt lat="31.7798500" lon="35.0561200">
<ele>574.919983</ele>
<time>2021-04-28T12:17:17.306Z</time>
</trkpt>
<trkpt lat="31.7798900" lon="35.0560100">
<ele>575.799988</ele>
<time>2021-04-28T12:17:17.306Z</time>
</trkpt>
<trkpt lat="31.7799300" lon="35.0559100">
<ele>576.809998</ele>
<time>2021-04-28T12:17:17.306Z</time>
</trkpt>
<trkpt lat="31.7799700" lon="35.0558100">
<ele>578.049988</ele>
<time>2021-04-28T12:17:17.306Z</time>
</trkpt>
<trkpt lat="31.7800300" lon="35.0556700">
<ele>579.650024</ele>
<time>2021-04-28T12:17:17.306Z</time>
</trkpt>
<trkpt lat="31.7800800" lon="35.0555500">
<ele>581.320007</ele>
<time>2021-04-28T12:17:17.306Z</time>
</trkpt>
<trkpt lat="31.7801300" lon="35.0554400">
<ele>582.269958</ele>
<time>2021-04-28T12:17:17.306Z</time>
</trkpt>
<trkpt lat="31.7801700" lon="35.0553300">
<ele>583.420044</ele>
<time>2021-04-28T12:17:17.306Z</time>
</trkpt>
<trkpt lat="31.7801900" lon="35.0552100">
<ele>583.729980</ele>
<time>2021-04-28T12:17:17.306Z</time>
</trkpt>
<trkpt lat="31.7802000" lon="35.0551100">
<ele>583.390015</ele>
<time>2021-04-28T12:17:17.306Z</time>
</trkpt>
<trkpt lat="31.7802200" lon="35.0549700">
<ele>583.000000</ele>
<time>2021-04-28T12:17:17.306Z</time>
</trkpt>
<trkpt lat="31.7802400" lon="35.0548900">
<ele>582.770020</ele>
<time>2021-04-28T12:17:17.306Z</time>
</trkpt>
<trkpt lat="31.7803200" lon="35.0548700">
<ele>583.590027</ele>
<time>2021-04-28T12:17:17.306Z</time>
</trkpt>
<trkpt lat="31.7803500" lon="35.0548400">
<ele>583.779968</ele>
<time>2021-04-28T12:17:17.306Z</time>
</trkpt>
<trkpt lat="31.7802500" lon="35.0548200">
<ele>582.429993</ele>
<time>2021-04-28T12:17:17.306Z</time>
</trkpt>
<trkpt lat="31.7801900" lon="35.0548700">
<ele>582.099976</ele>
<time>2021-04-28T12:17:17.307Z</time>
</trkpt>
<trkpt lat="31.7801300" lon="35.0549000">
<ele>581.539978</ele>
<time>2021-04-28T12:17:17.307Z</time>
</trkpt>
<trkpt lat="31.7800300" lon="35.0549000">
<ele>580.349976</ele>
<time>2021-04-28T12:17:17.307Z</time>
</trkpt>
<trkpt lat="31.7799600" lon="35.0548800">
<ele>579.880005</ele>
<time>2021-04-28T12:17:17.307Z</time>
</trkpt>
<trkpt lat="31.7799100" lon="35.0547500">
<ele>579.419983</ele>
<time>2021-04-28T12:17:17.307Z</time>
</trkpt>
<trkpt lat="31.7798700" lon="35.0546500">
<ele>579.059998</ele>
<time>2021-04-28T12:17:17.307Z</time>
</trkpt>
<trkpt lat="31.7797900" lon="35.0545200">
<ele>578.489990</ele>
<time>2021-04-28T12:17:17.307Z</time>
</trkpt>
<trkpt lat="31.7797200" lon="35.0543900">
<ele>578.369995</ele>
<time>2021-04-28T12:17:17.307Z</time>
</trkpt>
<trkpt lat="31.7796700" lon="35.0542800">
<ele>578.510010</ele>
<time>2021-04-28T12:17:17.307Z</time>
</trkpt>
<trkpt lat="31.7796100" lon="35.0541600">
<ele>578.450012</ele>
<time>2021-04-28T12:17:17.307Z</time>
</trkpt>
<trkpt lat="31.7795600" lon="35.0540300">
<ele>578.849976</ele>
<time>2021-04-28T12:17:17.307Z</time>
</trkpt>
<trkpt lat="31.7795000" lon="35.0539000">
<ele>578.909973</ele>
<time>2021-04-28T12:17:17.307Z</time>
</trkpt>
<trkpt lat="31.7794400" lon="35.0537800">
<ele>577.470032</ele>
<time>2021-04-28T12:17:17.307Z</time>
</trkpt>
<trkpt lat="31.7793900" lon="35.0536800">
<ele>575.630005</ele>
<time>2021-04-28T12:17:17.307Z</time>
</trkpt>
<trkpt lat="31.7793400" lon="35.0535600">
<ele>573.919983</ele>
<time>2021-04-28T12:17:17.307Z</time>
</trkpt>
<trkpt lat="31.7792700" lon="35.0534500">
<ele>571.609985</ele>
<time>2021-04-28T12:17:17.307Z</time>
</trkpt>
<trkpt lat="31.7792100" lon="35.0533700">
<ele>569.520020</ele>
<time>2021-04-28T12:17:17.307Z</time>
</trkpt>
<trkpt lat="31.7791400" lon="35.0532700">
<ele>567.250000</ele>
<time>2021-04-28T12:17:17.307Z</time>
</trkpt>
<trkpt lat="31.7790700" lon="35.0531900">
<ele>565.399963</ele>
<time>2021-04-28T12:17:17.307Z</time>
</trkpt>
<trkpt lat="31.7790000" lon="35.0530800">
<ele>563.750000</ele>
<time>2021-04-28T12:17:17.307Z</time>
</trkpt>
<trkpt lat="31.7789300" lon="35.0529900">
<ele>561.500000</ele>
<time>2021-04-28T12:17:17.307Z</time>
</trkpt>
<trkpt lat="31.7788600" lon="35.0529000">
<ele>558.750000</ele>
<time>2021-04-28T12:17:17.307Z</time>
</trkpt>
<trkpt lat="31.7788000" lon="35.0528200">
<ele>556.809998</ele>
<time>2021-04-28T12:17:17.307Z</time>
</trkpt>
<trkpt lat="31.7787300" lon="35.0527400">
<ele>554.890015</ele>
<time>2021-04-28T12:17:17.307Z</time>
</trkpt>
<trkpt lat="31.7786500" lon="35.0527100">
<ele>553.390015</ele>
<time>2021-04-28T12:17:17.307Z</time>
</trkpt>
<trkpt lat="31.7785400" lon="35.0527000">
<ele>552.140015</ele>
<time>2021-04-28T12:17:17.307Z</time>
</trkpt>
<trkpt lat="31.7784500" lon="35.0526800">
<ele>551.279968</ele>
<time>2021-04-28T12:17:17.307Z</time>
</trkpt>
<trkpt lat="31.7783600" lon="35.0526200">
<ele>550.109985</ele>
<time>2021-04-28T12:17:17.307Z</time>
</trkpt>
<trkpt lat="31.7782500" lon="35.0525400">
<ele>549.630005</ele>
<time>2021-04-28T12:17:17.308Z</time>
</trkpt>
<trkpt lat="31.7781600" lon="35.0524900">
<ele>549.389954</ele>
<time>2021-04-28T12:17:17.308Z</time>
</trkpt>
<trkpt lat="31.7780700" lon="35.0524400">
<ele>548.450012</ele>
<time>2021-04-28T12:17:17.308Z</time>
</trkpt>
<trkpt lat="31.7779600" lon="35.0523700">
<ele>547.760010</ele>
<time>2021-04-28T12:17:17.308Z</time>
</trkpt>
<trkpt lat="31.7778600" lon="35.0523400">
<ele>548.080017</ele>
<time>2021-04-28T12:17:17.308Z</time>
</trkpt>
<trkpt lat="31.7777600" lon="35.0523100">
<ele>548.039978</ele>
<time>2021-04-28T12:17:17.308Z</time>
</trkpt>
<trkpt lat="31.7776600" lon="35.0522500">
<ele>545.770020</ele>
<time>2021-04-28T12:17:17.308Z</time>
</trkpt>
<trkpt lat="31.7775800" lon="35.0522100">
<ele>544.369995</ele>
<time>2021-04-28T12:17:17.308Z</time>
</trkpt>
<trkpt lat="31.7774800" lon="35.0521900">
<ele>543.399963</ele>
<time>2021-04-28T12:17:17.308Z</time>
</trkpt>
<trkpt lat="31.7773800" lon="35.0521700">
<ele>542.469971</ele>
<time>2021-04-28T12:17:17.308Z</time>
</trkpt>
<trkpt lat="31.7773100" lon="35.0521500">
<ele>541.769958</ele>
<time>2021-04-28T12:17:17.308Z</time>
</trkpt>
<trkpt lat="31.7772400" lon="35.0521300">
<ele>541.109985</ele>
<time>2021-04-28T12:17:17.308Z</time>
</trkpt>
<trkpt lat="31.7771500" lon="35.0520800">
<ele>540.460022</ele>
<time>2021-04-28T12:17:17.308Z</time>
</trkpt>
<trkpt lat="31.7770400" lon="35.0520700">
<ele>540.289978</ele>
<time>2021-04-28T12:17:17.308Z</time>
</trkpt>
<trkpt lat="31.7769300" lon="35.0520700">
<ele>540.320007</ele>
<time>2021-04-28T12:17:17.308Z</time>
</trkpt>
<trkpt lat="31.7768200" lon="35.0520700">
<ele>540.750000</ele>
<time>2021-04-28T12:17:17.308Z</time>
</trkpt>
<trkpt lat="31.7767100" lon="35.0520800">
<ele>541.299988</ele>
<time>2021-04-28T12:17:17.308Z</time>
</trkpt>
<trkpt lat="31.7766200" lon="35.0521500">
<ele>541.960022</ele>
<time>2021-04-28T12:17:17.308Z</time>
</trkpt>
<trkpt lat="31.7765400" lon="35.0522400">
<ele>543.159973</ele>
<time>2021-04-28T12:17:17.308Z</time>
</trkpt>
<trkpt lat="31.7764800" lon="35.0523300">
<ele>543.900024</ele>
<time>2021-04-28T12:17:17.309Z</time>
</trkpt>
<trkpt lat="31.7764100" lon="35.0524100">
<ele>544.400024</ele>
<time>2021-04-28T12:17:17.309Z</time>
</trkpt>
<trkpt lat="31.7763200" lon="35.0524900">
<ele>543.149963</ele>
<time>2021-04-28T12:17:17.309Z</time>
</trkpt>
<trkpt lat="31.7762500" lon="35.0525700">
<ele>543.260010</ele>
<time>2021-04-28T12:17:17.309Z</time>
</trkpt>
<trkpt lat="31.7761800" lon="35.0526700">
<ele>544.330017</ele>
<time>2021-04-28T12:17:17.309Z</time>
</trkpt>
<trkpt lat="31.7761000" lon="35.0527800">
<ele>545.539978</ele>
<time>2021-04-28T12:17:17.309Z</time>
</trkpt>
<trkpt lat="31.7760400" lon="35.0528800">
<ele>544.130005</ele>
<time>2021-04-28T12:17:17.309Z</time>
</trkpt>
<trkpt lat="31.7759800" lon="35.0530000">
<ele>543.109985</ele>
<time>2021-04-28T12:17:17.309Z</time>
</trkpt>
<trkpt lat="31.7759300" lon="35.0531000">
<ele>542.359985</ele>
<time>2021-04-28T12:17:17.309Z</time>
</trkpt>
<trkpt lat="31.7758900" lon="35.0532100">
<ele>542.239990</ele>
<time>2021-04-28T12:17:17.309Z</time>
</trkpt>
<trkpt lat="31.7758400" lon="35.0533000">
<ele>541.739990</ele>
<time>2021-04-28T12:17:17.309Z</time>
</trkpt>
<trkpt lat="31.7757900" lon="35.0534000">
<ele>541.750000</ele>
<time>2021-04-28T12:17:17.309Z</time>
</trkpt>
<trkpt lat="31.7757400" lon="35.0535200">
<ele>541.769958</ele>
<time>2021-04-28T12:17:17.309Z</time>
</trkpt>
<trkpt lat="31.7757000" lon="35.0536100">
<ele>541.630005</ele>
<time>2021-04-28T12:17:17.309Z</time>
</trkpt>
<trkpt lat="31.7756400" lon="35.0537100">
<ele>541.200012</ele>
<time>2021-04-28T12:17:17.309Z</time>
</trkpt>
<trkpt lat="31.7755900" lon="35.0538000">
<ele>540.910034</ele>
<time>2021-04-28T12:17:17.309Z</time>
</trkpt>
<trkpt lat="31.7755400" lon="35.0539000">
<ele>540.799988</ele>
<time>2021-04-28T12:17:17.309Z</time>
</trkpt>
<trkpt lat="31.7754900" lon="35.0540000">
<ele>540.809998</ele>
<time>2021-04-28T12:17:17.309Z</time>
</trkpt>
<trkpt lat="31.7754500" lon="35.0541000">
<ele>541.200012</ele>
<time>2021-04-28T12:17:17.309Z</time>
</trkpt>
<trkpt lat="31.7754200" lon="35.0541900">
<ele>541.919983</ele>
<time>2021-04-28T12:17:17.309Z</time>
</trkpt>
<trkpt lat="31.7753700" lon="35.0543100">
<ele>543.059998</ele>
<time>2021-04-28T12:17:17.309Z</time>
</trkpt>
<trkpt lat="31.7753200" lon="35.0544200">
<ele>543.609985</ele>
<time>2021-04-28T12:17:17.309Z</time>
</trkpt>
<trkpt lat="31.7752600" lon="35.0545200">
<ele>544.290039</ele>
<time>2021-04-28T12:17:17.309Z</time>
</trkpt>
<trkpt lat="31.7751900" lon="35.0546200">
<ele>545.359985</ele>
<time>2021-04-28T12:17:17.309Z</time>
</trkpt>
<trkpt lat="31.7751300" lon="35.0547100">
<ele>545.750000</ele>
<time>2021-04-28T12:17:17.309Z</time>
</trkpt>
<trkpt lat="31.7750800" lon="35.0547800">
<ele>545.719971</ele>
<time>2021-04-28T12:17:17.309Z</time>
</trkpt>
<trkpt lat="31.7750100" lon="35.0548900">
<ele>544.880005</ele>
<time>2021-04-28T12:17:17.309Z</time>
</trkpt>
<trkpt lat="31.7749600" lon="35.0549900">
<ele>544.690002</ele>
<time>2021-04-28T12:17:17.310Z</time>
</trkpt>
<trkpt lat="31.7749000" lon="35.0550600">
<ele>544.690002</ele>
<time>2021-04-28T12:17:17.310Z</time>
</trkpt>
<trkpt lat="31.7748200" lon="35.0550600">
<ele>543.929993</ele>
<time>2021-04-28T12:17:17.310Z</time>
</trkpt>
<trkpt lat="31.7747400" lon="35.0550600">
<ele>543.169983</ele>
<time>2021-04-28T12:17:17.310Z</time>
</trkpt>
<trkpt lat="31.7747100" lon="35.0550200">
<ele>543.369995</ele>
<time>2021-04-28T12:17:17.310Z</time>
</trkpt>
<trkpt lat="31.7747000" lon="35.0548800">
<ele>544.690002</ele>
<time>2021-04-28T12:17:17.310Z</time>
</trkpt>
<trkpt lat="31.7747000" lon="35.0547600">
<ele>545.660034</ele>
<time>2021-04-28T12:17:17.310Z</time>
</trkpt>
<trkpt lat="31.7746900" lon="35.0546300">
<ele>545.920044</ele>
<time>2021-04-28T12:17:17.310Z</time>
</trkpt>
<trkpt lat="31.7747000" lon="35.0544900">
<ele>544.619995</ele>
<time>2021-04-28T12:17:17.310Z</time>
</trkpt>
<trkpt lat="31.7747000" lon="35.0543700">
<ele>542.710022</ele>
<time>2021-04-28T12:17:17.310Z</time>
</trkpt>
<trkpt lat="31.7747100" lon="35.0542400">
<ele>539.270020</ele>
<time>2021-04-28T12:17:17.310Z</time>
</trkpt>
<trkpt lat="31.7747300" lon="35.0541100">
<ele>537.039978</ele>
<time>2021-04-28T12:17:17.310Z</time>
</trkpt>
<trkpt lat="31.7747300" lon="35.0540000">
<ele>536.970032</ele>
<time>2021-04-28T12:17:17.310Z</time>
</trkpt>
<trkpt lat="31.7747400" lon="35.0539000">
<ele>536.760010</ele>
<time>2021-04-28T12:17:17.310Z</time>
</trkpt>
<trkpt lat="31.7747500" lon="35.0537800">
<ele>537.029968</ele>
<time>2021-04-28T12:17:17.310Z</time>
</trkpt>
<trkpt lat="31.7747500" lon="35.0536800">
<ele>537.429993</ele>
<time>2021-04-28T12:17:17.310Z</time>
</trkpt>
<trkpt lat="31.7747500" lon="35.0535600">
<ele>538.880005</ele>
<time>2021-04-28T12:17:17.310Z</time>
</trkpt>
<trkpt lat="31.7747500" lon="35.0534300">
<ele>541.869995</ele>
<time>2021-04-28T12:17:17.310Z</time>
</trkpt>
<trkpt lat="31.7747600" lon="35.0533200">
<ele>544.200012</ele>
<time>2021-04-28T12:17:17.310Z</time>
</trkpt>
<trkpt lat="31.7747600" lon="35.0532100">
<ele>547.710022</ele>
<time>2021-04-28T12:17:17.310Z</time>
</trkpt>
<trkpt lat="31.7747700" lon="35.0530900">
<ele>551.190002</ele>
<time>2021-04-28T12:17:17.310Z</time>
</trkpt>
<trkpt lat="31.7747800" lon="35.0529800">
<ele>552.940002</ele>
<time>2021-04-28T12:17:17.310Z</time>
</trkpt>
<trkpt lat="31.7747900" lon="35.0528800">
<ele>553.790039</ele>
<time>2021-04-28T12:17:17.310Z</time>
</trkpt>
<trkpt lat="31.7748000" lon="35.0527500">
<ele>555.099976</ele>
<time>2021-04-28T12:17:17.310Z</time>
</trkpt>
<trkpt lat="31.7748200" lon="35.0526500">
<ele>556.150024</ele>
<time>2021-04-28T12:17:17.310Z</time>
</trkpt>
<trkpt lat="31.7748400" lon="35.0525300">
<ele>557.809998</ele>
<time>2021-04-28T12:17:17.310Z</time>
</trkpt>
<trkpt lat="31.7748500" lon="35.0524200">
<ele>558.799988</ele>
<time>2021-04-28T12:17:17.310Z</time>
</trkpt>
<trkpt lat="31.7748500" lon="35.0522900">
<ele>560.059998</ele>
<time>2021-04-28T12:17:17.311Z</time>
</trkpt>
<trkpt lat="31.7748600" lon="35.0521800">
<ele>560.830017</ele>
<time>2021-04-28T12:17:17.311Z</time>
</trkpt>
<trkpt lat="31.7748600" lon="35.0520600">
<ele>562.989990</ele>
<time>2021-04-28T12:17:17.311Z</time>
</trkpt>
<trkpt lat="31.7748700" lon="35.0519400">
<ele>564.510010</ele>
<time>2021-04-28T12:17:17.311Z</time>
</trkpt>
<trkpt lat="31.7748700" lon="35.0518200">
<ele>566.720032</ele>
<time>2021-04-28T12:17:17.311Z</time>
</trkpt>
<trkpt lat="31.7748700" lon="35.0517000">
<ele>568.940002</ele>
<time>2021-04-28T12:17:17.311Z</time>
</trkpt>
<trkpt lat="31.7748800" lon="35.0515800">
<ele>570.200012</ele>
<time>2021-04-28T12:17:17.311Z</time>
</trkpt>
<trkpt lat="31.7748800" lon="35.0514700">
<ele>571.669983</ele>
<time>2021-04-28T12:17:17.311Z</time>
</trkpt>
<trkpt lat="31.7748900" lon="35.0513600">
<ele>572.669983</ele>
<time>2021-04-28T12:17:17.311Z</time>
</trkpt>
<trkpt lat="31.7749100" lon="35.0512300">
<ele>573.279968</ele>
<time>2021-04-28T12:17:17.311Z</time>
</trkpt>
<trkpt lat="31.7749400" lon="35.0511200">
<ele>573.279968</ele>
<time>2021-04-28T12:17:17.311Z</time>
</trkpt>
<trkpt lat="31.7749800" lon="35.0510200">
<ele>573.989990</ele>
<time>2021-04-28T12:17:17.311Z</time>
</trkpt>
<trkpt lat="31.7750300" lon="35.0509200">
<ele>574.270020</ele>
<time>2021-04-28T12:17:17.311Z</time>
</trkpt>
<trkpt lat="31.7750800" lon="35.0508100">
<ele>574.260010</ele>
<time>2021-04-28T12:17:17.311Z</time>
</trkpt>
<trkpt lat="31.7751300" lon="35.0507100">
<ele>573.369995</ele>
<time>2021-04-28T12:17:17.311Z</time>
</trkpt>
<trkpt lat="31.7751900" lon="35.0506100">
<ele>572.779968</ele>
<time>2021-04-28T12:17:17.311Z</time>
</trkpt>
<trkpt lat="31.7752400" lon="35.0505300">
<ele>572.549988</ele>
<time>2021-04-28T12:17:17.311Z</time>
</trkpt>
<trkpt lat="31.7753000" lon="35.0504200">
<ele>572.190002</ele>
<time>2021-04-28T12:17:17.311Z</time>
</trkpt>
<trkpt lat="31.7753600" lon="35.0503300">
<ele>571.529968</ele>
<time>2021-04-28T12:17:17.311Z</time>
</trkpt>
<trkpt lat="31.7754100" lon="35.0502200">
<ele>571.739990</ele>
<time>2021-04-28T12:17:17.311Z</time>
</trkpt>
<trkpt lat="31.7754600" lon="35.0501200">
<ele>572.290039</ele>
<time>2021-04-28T12:17:17.311Z</time>
</trkpt>
<trkpt lat="31.7754800" lon="35.0500000">
<ele>574.359985</ele>
<time>2021-04-28T12:17:17.311Z</time>
</trkpt>
<trkpt lat="31.7754900" lon="35.0498900">
<ele>578.260010</ele>
<time>2021-04-28T12:17:17.311Z</time>
</trkpt>
<trkpt lat="31.7755100" lon="35.0497800">
<ele>582.139954</ele>
<time>2021-04-28T12:17:17.311Z</time>
</trkpt>
<trkpt lat="31.7755500" lon="35.0496800">
<ele>584.640015</ele>
<time>2021-04-28T12:17:17.311Z</time>
</trkpt>
<trkpt lat="31.7755800" lon="35.0495700">
<ele>585.369995</ele>
<time>2021-04-28T12:17:17.311Z</time>
</trkpt>
<trkpt lat="31.7756100" lon="35.0494700">
<ele>586.010010</ele>
<time>2021-04-28T12:17:17.311Z</time>
</trkpt>
<trkpt lat="31.7756400" lon="35.0493500">
<ele>585.510010</ele>
<time>2021-04-28T12:17:17.311Z</time>
</trkpt>
<trkpt lat="31.7756800" lon="35.0492400">
<ele>584.920044</ele>
<time>2021-04-28T12:17:17.312Z</time>
</trkpt>
<trkpt lat="31.7757300" lon="35.0491300">
<ele>584.690002</ele>
<time>2021-04-28T12:17:17.312Z</time>
</trkpt>
<trkpt lat="31.7757800" lon="35.0490400">
<ele>584.299988</ele>
<time>2021-04-28T12:17:17.312Z</time>
</trkpt>
<trkpt lat="31.7758500" lon="35.0489600">
<ele>584.039978</ele>
<time>2021-04-28T12:17:17.312Z</time>
</trkpt>
<trkpt lat="31.7759000" lon="35.0488600">
<ele>584.260010</ele>
<time>2021-04-28T12:17:17.312Z</time>
</trkpt>
<trkpt lat="31.7759500" lon="35.0487700">
<ele>584.599976</ele>
<time>2021-04-28T12:17:17.312Z</time>
</trkpt>
<trkpt lat="31.7759600" lon="35.0486700">
<ele>584.820007</ele>
<time>2021-04-28T12:17:17.312Z</time>
</trkpt>
<trkpt lat="31.7759600" lon="35.0485500">
<ele>585.010010</ele>
<time>2021-04-28T12:17:17.312Z</time>
</trkpt>
<trkpt lat="31.7759500" lon="35.0484500">
<ele>585.080017</ele>
<time>2021-04-28T12:17:17.312Z</time>
</trkpt>
<trkpt lat="31.7758800" lon="35.0484100">
<ele>584.459961</ele>
<time>2021-04-28T12:17:17.312Z</time>
</trkpt>
<trkpt lat="31.7757800" lon="35.0484100">
<ele>584.190002</ele>
<time>2021-04-28T12:17:17.312Z</time>
</trkpt>
<trkpt lat="31.7756800" lon="35.0484100">
<ele>584.549988</ele>
<time>2021-04-28T12:17:17.312Z</time>
</trkpt>
<trkpt lat="31.7755800" lon="35.0484100">
<ele>584.910034</ele>
<time>2021-04-28T12:17:17.312Z</time>
</trkpt>
<trkpt lat="31.7754900" lon="35.0484400">
<ele>585.799988</ele>
<time>2021-04-28T12:17:17.312Z</time>
</trkpt>
<trkpt lat="31.7754000" lon="35.0484700">
<ele>586.960022</ele>
<time>2021-04-28T12:17:17.312Z</time>
</trkpt>
<trkpt lat="31.7753000" lon="35.0485100">
<ele>588.349976</ele>
<time>2021-04-28T12:17:17.312Z</time>
</trkpt>
<trkpt lat="31.7752000" lon="35.0485500">
<ele>589.219971</ele>
<time>2021-04-28T12:17:17.312Z</time>
</trkpt>
<trkpt lat="31.7751100" lon="35.0485900">
<ele>590.039978</ele>
<time>2021-04-28T12:17:17.312Z</time>
</trkpt>
<trkpt lat="31.7750000" lon="35.0486300">
<ele>591.070007</ele>
<time>2021-04-28T12:17:17.312Z</time>
</trkpt>
<trkpt lat="31.7749100" lon="35.0486700">
<ele>591.089966</ele>
<time>2021-04-28T12:17:17.312Z</time>
</trkpt>
<trkpt lat="31.7748100" lon="35.0487100">
<ele>591.400024</ele>
<time>2021-04-28T12:17:17.312Z</time>
</trkpt>
<trkpt lat="31.7747200" lon="35.0487300">
<ele>591.700012</ele>
<time>2021-04-28T12:17:17.312Z</time>
</trkpt>
<trkpt lat="31.7746200" lon="35.0487600">
<ele>591.799988</ele>
<time>2021-04-28T12:17:17.312Z</time>
</trkpt>
<trkpt lat="31.7745200" lon="35.0487700">
<ele>591.659973</ele>
<time>2021-04-28T12:17:17.312Z</time>
</trkpt>
<trkpt lat="31.7744300" lon="35.0487900">
<ele>592.210022</ele>
<time>2021-04-28T12:17:17.312Z</time>
</trkpt>
<trkpt lat="31.7743300" lon="35.0487900">
<ele>594.599976</ele>
<time>2021-04-28T12:17:17.312Z</time>
</trkpt>
<trkpt lat="31.7742300" lon="35.0488000">
<ele>597.239990</ele>
<time>2021-04-28T12:17:17.312Z</time>
</trkpt>
<trkpt lat="31.7741300" lon="35.0487900">
<ele>598.900024</ele>
<time>2021-04-28T12:17:17.313Z</time>
</trkpt>
<trkpt lat="31.7740300" lon="35.0487900">
<ele>599.979980</ele>
<time>2021-04-28T12:17:17.313Z</time>
</trkpt>
<trkpt lat="31.7739400" lon="35.0487800">
<ele>600.700012</ele>
<time>2021-04-28T12:17:17.313Z</time>
</trkpt>
<trkpt lat="31.7738400" lon="35.0487700">
<ele>602.309998</ele>
<time>2021-04-28T12:17:17.313Z</time>
</trkpt>
<trkpt lat="31.7737500" lon="35.0487500">
<ele>604.250000</ele>
<time>2021-04-28T12:17:17.313Z</time>
</trkpt>
<trkpt lat="31.7736500" lon="35.0487100">
<ele>606.070007</ele>
<time>2021-04-28T12:17:17.313Z</time>
</trkpt>
<trkpt lat="31.7735500" lon="35.0486900">
<ele>608.429993</ele>
<time>2021-04-28T12:17:17.313Z</time>
</trkpt>
<trkpt lat="31.7734600" lon="35.0486500">
<ele>609.880005</ele>
<time>2021-04-28T12:17:17.313Z</time>
</trkpt>
<trkpt lat="31.7733600" lon="35.0486100">
<ele>611.290039</ele>
<time>2021-04-28T12:17:17.313Z</time>
</trkpt>
<trkpt lat="31.7732700" lon="35.0485700">
<ele>613.059998</ele>
<time>2021-04-28T12:17:17.313Z</time>
</trkpt>
<trkpt lat="31.7731800" lon="35.0485200">
<ele>614.970032</ele>
<time>2021-04-28T12:17:17.313Z</time>
</trkpt>
<trkpt lat="31.7731000" lon="35.0484500">
<ele>615.929993</ele>
<time>2021-04-28T12:17:17.313Z</time>
</trkpt>
<trkpt lat="31.7730200" lon="35.0483900">
<ele>616.880005</ele>
<time>2021-04-28T12:17:17.313Z</time>
</trkpt>
<trkpt lat="31.7729200" lon="35.0483400">
<ele>618.559998</ele>
<time>2021-04-28T12:17:17.313Z</time>
</trkpt>
<trkpt lat="31.7728400" lon="35.0482900">
<ele>620.530029</ele>
<time>2021-04-28T12:17:17.313Z</time>
</trkpt>
<trkpt lat="31.7727500" lon="35.0482400">
<ele>622.989990</ele>
<time>2021-04-28T12:17:17.313Z</time>
</trkpt>
<trkpt lat="31.7726700" lon="35.0481800">
<ele>624.399963</ele>
<time>2021-04-28T12:17:17.313Z</time>
</trkpt>
<trkpt lat="31.7726300" lon="35.0480700">
<ele>624.320007</ele>
<time>2021-04-28T12:17:17.313Z</time>
</trkpt>
<trkpt lat="31.7726000" lon="35.0479600">
<ele>623.220032</ele>
<time>2021-04-28T12:17:17.313Z</time>
</trkpt>
<trkpt lat="31.7725800" lon="35.0478500">
<ele>621.890015</ele>
<time>2021-04-28T12:17:17.313Z</time>
</trkpt>
<trkpt lat="31.7725700" lon="35.0477300">
<ele>620.469971</ele>
<time>2021-04-28T12:17:17.313Z</time>
</trkpt>
<trkpt lat="31.7725600" lon="35.0476300">
<ele>619.679993</ele>
<time>2021-04-28T12:17:17.313Z</time>
</trkpt>
<trkpt lat="31.7725500" lon="35.0475000">
<ele>618.559998</ele>
<time>2021-04-28T12:17:17.313Z</time>
</trkpt>
<trkpt lat="31.7725400" lon="35.0473800">
<ele>618.849976</ele>
<time>2021-04-28T12:17:17.313Z</time>
</trkpt>
<trkpt lat="31.7725300" lon="35.0472600">
<ele>619.140015</ele>
<time>2021-04-28T12:17:17.313Z</time>
</trkpt>
<trkpt lat="31.7725200" lon="35.0471500">
<ele>618.829956</ele>
<time>2021-04-28T12:17:17.313Z</time>
</trkpt>
<trkpt lat="31.7725100" lon="35.0470300">
<ele>618.229980</ele>
<time>2021-04-28T12:17:17.313Z</time>
</trkpt>
<trkpt lat="31.7725000" lon="35.0469100">
<ele>617.880005</ele>
<time>2021-04-28T12:17:17.314Z</time>
</trkpt>
<trkpt lat="31.7724800" lon="35.0468000">
<ele>618.019958</ele>
<time>2021-04-28T12:17:17.314Z</time>
</trkpt>
<trkpt lat="31.7724500" lon="35.0466900">
<ele>618.510010</ele>
<time>2021-04-28T12:17:17.314Z</time>
</trkpt>
<trkpt lat="31.7724000" lon="35.0465900">
<ele>620.230042</ele>
<time>2021-04-28T12:17:17.314Z</time>
</trkpt>
<trkpt lat="31.7723300" lon="35.0465100">
<ele>622.330017</ele>
<time>2021-04-28T12:17:17.314Z</time>
</trkpt>
<trkpt lat="31.7722600" lon="35.0464400">
<ele>624.130005</ele>
<time>2021-04-28T12:17:17.314Z</time>
</trkpt>
<trkpt lat="31.7721800" lon="35.0463800">
<ele>625.980042</ele>
<time>2021-04-28T12:17:17.314Z</time>
</trkpt>
<trkpt lat="31.7720700" lon="35.0463200">
<ele>628.780029</ele>
<time>2021-04-28T12:17:17.314Z</time>
</trkpt>
<trkpt lat="31.7720100" lon="35.0462600">
<ele>630.510010</ele>
<time>2021-04-28T12:17:17.314Z</time>
</trkpt>
<trkpt lat="31.7720100" lon="35.0461400">
<ele>631.380005</ele>
<time>2021-04-28T12:17:17.314Z</time>
</trkpt>
<trkpt lat="31.7720000" lon="35.0460300">
<ele>632.209961</ele>
<time>2021-04-28T12:17:17.314Z</time>
</trkpt>
<trkpt lat="31.7720100" lon="35.0459100">
<ele>632.649963</ele>
<time>2021-04-28T12:17:17.314Z</time>
</trkpt>
<trkpt lat="31.7720200" lon="35.0458000">
<ele>633.100037</ele>
<time>2021-04-28T12:17:17.314Z</time>
</trkpt>
<trkpt lat="31.7720400" lon="35.0456900">
<ele>633.500000</ele>
<time>2021-04-28T12:17:17.314Z</time>
</trkpt>
<trkpt lat="31.7720800" lon="35.0455700">
<ele>633.919983</ele>
<time>2021-04-28T12:17:17.314Z</time>
</trkpt>
<trkpt lat="31.7721000" lon="35.0454600">
<ele>634.219971</ele>
<time>2021-04-28T12:17:17.314Z</time>
</trkpt>
<trkpt lat="31.7721300" lon="35.0453300">
<ele>634.479980</ele>
<time>2021-04-28T12:17:17.314Z</time>
</trkpt>
<trkpt lat="31.7721500" lon="35.0452000">
<ele>634.449951</ele>
<time>2021-04-28T12:17:17.314Z</time>
</trkpt>
<trkpt lat="31.7721800" lon="35.0450900">
<ele>634.200012</ele>
<time>2021-04-28T12:17:17.314Z</time>
</trkpt>
<trkpt lat="31.7722100" lon="35.0449700">
<ele>633.919983</ele>
<time>2021-04-28T12:17:17.314Z</time>
</trkpt>
<trkpt lat="31.7722500" lon="35.0448400">
<ele>632.809998</ele>
<time>2021-04-28T12:17:17.314Z</time>
</trkpt>
<trkpt lat="31.7722900" lon="35.0447100">
<ele>631.980042</ele>
<time>2021-04-28T12:17:17.314Z</time>
</trkpt>
<trkpt lat="31.7723200" lon="35.0445800">
<ele>631.289978</ele>
<time>2021-04-28T12:17:17.314Z</time>
</trkpt>
<trkpt lat="31.7723600" lon="35.0444700">
<ele>631.000000</ele>
<time>2021-04-28T12:17:17.314Z</time>
</trkpt>
<trkpt lat="31.7723900" lon="35.0443500">
<ele>630.940002</ele>
<time>2021-04-28T12:17:17.314Z</time>
</trkpt>
<trkpt lat="31.7724100" lon="35.0442900">
<ele>631.020020</ele>
<time>2021-04-28T12:17:17.315Z</time>
</trkpt>
<trkpt lat="31.7724100" lon="35.0442600">
<ele>631.020020</ele>
<time>2021-04-28T12:17:17.315Z</time>
</trkpt>
<trkpt lat="31.7724100" lon="35.0443000">
<ele>631.009949</ele>
<time>2021-04-28T12:17:17.315Z</time>
</trkpt>
<trkpt lat="31.7724000" lon="35.0443600">
<ele>630.979980</ele>
<time>2021-04-28T12:17:17.315Z</time>
</trkpt>
<trkpt lat="31.7723600" lon="35.0444800">
<ele>631.000000</ele>
<time>2021-04-28T12:17:17.315Z</time>
</trkpt>
<trkpt lat="31.7723300" lon="35.0445900">
<ele>631.229980</ele>
<time>2021-04-28T12:17:17.315Z</time>
</trkpt>
<trkpt lat="31.7722900" lon="35.0447100">
<ele>631.980042</ele>
<time>2021-04-28T12:17:17.315Z</time>
</trkpt>
<trkpt lat="31.7722600" lon="35.0448200">
<ele>632.570007</ele>
<time>2021-04-28T12:17:17.315Z</time>
</trkpt>
<trkpt lat="31.7722200" lon="35.0449300">
<ele>633.749939</ele>
<time>2021-04-28T12:17:17.315Z</time>
</trkpt>
<trkpt lat="31.7721900" lon="35.0450300">
<ele>634.130005</ele>
<time>2021-04-28T12:17:17.315Z</time>
</trkpt>
<trkpt lat="31.7721600" lon="35.0451500">
<ele>634.340027</ele>
<time>2021-04-28T12:17:17.315Z</time>
</trkpt>
<trkpt lat="31.7721400" lon="35.0452600">
<ele>634.570007</ele>
<time>2021-04-28T12:17:17.315Z</time>
</trkpt>
<trkpt lat="31.7721100" lon="35.0453700">
<ele>634.479980</ele>
<time>2021-04-28T12:17:17.315Z</time>
</trkpt>
<trkpt lat="31.7720800" lon="35.0455100">
<ele>634.190002</ele>
<time>2021-04-28T12:17:17.315Z</time>
</trkpt>
<trkpt lat="31.7720500" lon="35.0456200">
<ele>633.829956</ele>
<time>2021-04-28T12:17:17.315Z</time>
</trkpt>
<trkpt lat="31.7720200" lon="35.0457600">
<ele>633.320007</ele>
<time>2021-04-28T12:17:17.315Z</time>
</trkpt>
<trkpt lat="31.7719900" lon="35.0459300">
<ele>632.880005</ele>
<time>2021-04-28T12:17:17.315Z</time>
</trkpt>
<trkpt lat="31.7719500" lon="35.0461100">
<ele>632.880005</ele>
<time>2021-04-28T12:17:17.315Z</time>
</trkpt>
<trkpt lat="31.7719200" lon="35.0463200">
<ele>631.170044</ele>
<time>2021-04-28T12:17:17.315Z</time>
</trkpt>
<trkpt lat="31.7718900" lon="35.0464800">
<ele>629.630005</ele>
<time>2021-04-28T12:17:17.315Z</time>
</trkpt>
<trkpt lat="31.7718400" lon="35.0465700">
<ele>628.080017</ele>
<time>2021-04-28T12:17:17.315Z</time>
</trkpt>
<trkpt lat="31.7717300" lon="35.0465800">
<ele>626.250000</ele>
<time>2021-04-28T12:17:17.315Z</time>
</trkpt>
<trkpt lat="31.7716200" lon="35.0466000">
<ele>623.660034</ele>
<time>2021-04-28T12:17:17.315Z</time>
</trkpt>
<trkpt lat="31.7715300" lon="35.0466200">
<ele>620.979980</ele>
<time>2021-04-28T12:17:17.315Z</time>
</trkpt>
<trkpt lat="31.7714300" lon="35.0466700">
<ele>618.039978</ele>
<time>2021-04-28T12:17:17.315Z</time>
</trkpt>
<trkpt lat="31.7713300" lon="35.0467200">
<ele>615.849976</ele>
<time>2021-04-28T12:17:17.315Z</time>
</trkpt>
<trkpt lat="31.7712400" lon="35.0467900">
<ele>614.500000</ele>
<time>2021-04-28T12:17:17.315Z</time>
</trkpt>
<trkpt lat="31.7711500" lon="35.0468400">
<ele>613.450012</ele>
<time>2021-04-28T12:17:17.315Z</time>
</trkpt>
<trkpt lat="31.7710400" lon="35.0469100">
<ele>612.539978</ele>
<time>2021-04-28T12:17:17.316Z</time>
</trkpt>
<trkpt lat="31.7709400" lon="35.0469700">
<ele>611.869995</ele>
<time>2021-04-28T12:17:17.316Z</time>
</trkpt>
<trkpt lat="31.7708400" lon="35.0470200">
<ele>611.179993</ele>
<time>2021-04-28T12:17:17.316Z</time>
</trkpt>
<trkpt lat="31.7707300" lon="35.0471100">
<ele>611.049988</ele>
<time>2021-04-28T12:17:17.316Z</time>
</trkpt>
<trkpt lat="31.7706500" lon="35.0471700">
<ele>610.730042</ele>
<time>2021-04-28T12:17:17.316Z</time>
</trkpt>
<trkpt lat="31.7705600" lon="35.0472800">
<ele>610.690002</ele>
<time>2021-04-28T12:17:17.316Z</time>
</trkpt>
<trkpt lat="31.7704800" lon="35.0473800">
<ele>610.340027</ele>
<time>2021-04-28T12:17:17.316Z</time>
</trkpt>
<trkpt lat="31.7704000" lon="35.0475000">
<ele>610.200012</ele>
<time>2021-04-28T12:17:17.316Z</time>
</trkpt>
<trkpt lat="31.7703400" lon="35.0476200">
<ele>609.750000</ele>
<time>2021-04-28T12:17:17.316Z</time>
</trkpt>
<trkpt lat="31.7703000" lon="35.0477300">
<ele>609.359985</ele>
<time>2021-04-28T12:17:17.316Z</time>
</trkpt>
<trkpt lat="31.7702500" lon="35.0478400">
<ele>608.630005</ele>
<time>2021-04-28T12:17:17.316Z</time>
</trkpt>
<trkpt lat="31.7702100" lon="35.0479600">
<ele>608.200012</ele>
<time>2021-04-28T12:17:17.316Z</time>
</trkpt>
<trkpt lat="31.7701900" lon="35.0480700">
<ele>608.209961</ele>
<time>2021-04-28T12:17:17.316Z</time>
</trkpt>
<trkpt lat="31.7701400" lon="35.0481800">
<ele>607.200012</ele>
<time>2021-04-28T12:17:17.316Z</time>
</trkpt>
<trkpt lat="31.7700600" lon="35.0482300">
<ele>605.419983</ele>
<time>2021-04-28T12:17:17.316Z</time>
</trkpt>
<trkpt lat="31.7699500" lon="35.0482400">
<ele>603.510010</ele>
<time>2021-04-28T12:17:17.316Z</time>
</trkpt>
<trkpt lat="31.7698900" lon="35.0482400">
<ele>602.940002</ele>
<time>2021-04-28T12:17:17.316Z</time>
</trkpt>
<trkpt lat="31.7698900" lon="35.0480700">
<ele>601.340027</ele>
<time>2021-04-28T12:17:17.316Z</time>
</trkpt>
<trkpt lat="31.7699000" lon="35.0479500">
<ele>600.899963</ele>
<time>2021-04-28T12:17:17.316Z</time>
</trkpt>
<trkpt lat="31.7699300" lon="35.0478400">
<ele>600.719971</ele>
<time>2021-04-28T12:17:17.316Z</time>
</trkpt>
<trkpt lat="31.7699500" lon="35.0477300">
<ele>600.780029</ele>
<time>2021-04-28T12:17:17.316Z</time>
</trkpt>
<trkpt lat="31.7699700" lon="35.0476200">
<ele>601.289978</ele>
<time>2021-04-28T12:17:17.316Z</time>
</trkpt>
<trkpt lat="31.7699800" lon="35.0474600">
<ele>601.750000</ele>
<time>2021-04-28T12:17:17.316Z</time>
</trkpt>
<trkpt lat="31.7699900" lon="35.0473400">
<ele>601.830017</ele>
<time>2021-04-28T12:17:17.316Z</time>
</trkpt>
<trkpt lat="31.7700100" lon="35.0472100">
<ele>601.839966</ele>
<time>2021-04-28T12:17:17.316Z</time>
</trkpt>
<trkpt lat="31.7700300" lon="35.0470800">
<ele>599.250000</ele>
<time>2021-04-28T12:17:17.316Z</time>
</trkpt>
<trkpt lat="31.7700400" lon="35.0469700">
<ele>596.979980</ele>
<time>2021-04-28T12:17:17.316Z</time>
</trkpt>
<trkpt lat="31.7700700" lon="35.0468500">
<ele>594.799988</ele>
<time>2021-04-28T12:17:17.316Z</time>
</trkpt>
<trkpt lat="31.7700800" lon="35.0467400">
<ele>592.660034</ele>
<time>2021-04-28T12:17:17.317Z</time>
</trkpt>
<trkpt lat="31.7701000" lon="35.0466300">
<ele>591.479980</ele>
<time>2021-04-28T12:17:17.317Z</time>
</trkpt>
<trkpt lat="31.7701400" lon="35.0465100">
<ele>592.010010</ele>
<time>2021-04-28T12:17:17.317Z</time>
</trkpt>
<trkpt lat="31.7701700" lon="35.0463800">
<ele>592.190002</ele>
<time>2021-04-28T12:17:17.317Z</time>
</trkpt>
<trkpt lat="31.7702100" lon="35.0462600">
<ele>592.169983</ele>
<time>2021-04-28T12:17:17.317Z</time>
</trkpt>
<trkpt lat="31.7702600" lon="35.0461500">
<ele>592.710022</ele>
<time>2021-04-28T12:17:17.317Z</time>
</trkpt>
<trkpt lat="31.7703100" lon="35.0460500">
<ele>593.330017</ele>
<time>2021-04-28T12:17:17.317Z</time>
</trkpt>
<trkpt lat="31.7703400" lon="35.0459000">
<ele>593.190002</ele>
<time>2021-04-28T12:17:17.317Z</time>
</trkpt>
<trkpt lat="31.7703600" lon="35.0457700">
<ele>592.110046</ele>
<time>2021-04-28T12:17:17.317Z</time>
</trkpt>
<trkpt lat="31.7703700" lon="35.0456600">
<ele>590.419983</ele>
<time>2021-04-28T12:17:17.317Z</time>
</trkpt>
<trkpt lat="31.7703800" lon="35.0455500">
<ele>588.750000</ele>
<time>2021-04-28T12:17:17.317Z</time>
</trkpt>
<trkpt lat="31.7703800" lon="35.0454300">
<ele>586.909973</ele>
<time>2021-04-28T12:17:17.317Z</time>
</trkpt>
<trkpt lat="31.7703900" lon="35.0453100">
<ele>585.309998</ele>
<time>2021-04-28T12:17:17.317Z</time>
</trkpt>
<trkpt lat="31.7703900" lon="35.0452000">
<ele>583.820007</ele>
<time>2021-04-28T12:17:17.317Z</time>
</trkpt>
<trkpt lat="31.7703900" lon="35.0450800">
<ele>582.269958</ele>
<time>2021-04-28T12:17:17.317Z</time>
</trkpt>
<trkpt lat="31.7704000" lon="35.0449700">
<ele>581.100037</ele>
<time>2021-04-28T12:17:17.317Z</time>
</trkpt>
<trkpt lat="31.7704000" lon="35.0448500">
<ele>579.419983</ele>
<time>2021-04-28T12:17:17.317Z</time>
</trkpt>
<trkpt lat="31.7704000" lon="35.0447200">
<ele>577.619995</ele>
<time>2021-04-28T12:17:17.317Z</time>
</trkpt>
<trkpt lat="31.7704000" lon="35.0445900">
<ele>576.210022</ele>
<time>2021-04-28T12:17:17.317Z</time>
</trkpt>
<trkpt lat="31.7704000" lon="35.0444400">
<ele>574.580017</ele>
<time>2021-04-28T12:17:17.317Z</time>
</trkpt>
<trkpt lat="31.7703900" lon="35.0443100">
<ele>572.679993</ele>
<time>2021-04-28T12:17:17.317Z</time>
</trkpt>
<trkpt lat="31.7703900" lon="35.0441900">
<ele>571.130005</ele>
<time>2021-04-28T12:17:17.317Z</time>
</trkpt>
<trkpt lat="31.7703800" lon="35.0440800">
<ele>570.260010</ele>
<time>2021-04-28T12:17:17.317Z</time>
</trkpt>
<trkpt lat="31.7703700" lon="35.0439500">
<ele>569.539978</ele>
<time>2021-04-28T12:17:17.317Z</time>
</trkpt>
<trkpt lat="31.7703600" lon="35.0438400">
<ele>570.090027</ele>
<time>2021-04-28T12:17:17.317Z</time>
</trkpt>
<trkpt lat="31.7703400" lon="35.0437200">
<ele>571.820007</ele>
<time>2021-04-28T12:17:17.317Z</time>
</trkpt>
<trkpt lat="31.7703100" lon="35.0435800">
<ele>572.809998</ele>
<time>2021-04-28T12:17:17.317Z</time>
</trkpt>
<trkpt lat="31.7702700" lon="35.0434400">
<ele>572.429993</ele>
<time>2021-04-28T12:17:17.318Z</time>
</trkpt>
<trkpt lat="31.7702200" lon="35.0432900">
<ele>570.719971</ele>
<time>2021-04-28T12:17:17.318Z</time>
</trkpt>
<trkpt lat="31.7701900" lon="35.0431800">
<ele>569.700012</ele>
<time>2021-04-28T12:17:17.318Z</time>
</trkpt>
<trkpt lat="31.7701600" lon="35.0430700">
<ele>568.950012</ele>
<time>2021-04-28T12:17:17.318Z</time>
</trkpt>
<trkpt lat="31.7701400" lon="35.0429700">
<ele>567.589966</ele>
<time>2021-04-28T12:17:17.318Z</time>
</trkpt>
<trkpt lat="31.7701100" lon="35.0428300">
<ele>565.750000</ele>
<time>2021-04-28T12:17:17.318Z</time>
</trkpt>
<trkpt lat="31.7700700" lon="35.0427200">
<ele>564.479980</ele>
<time>2021-04-28T12:17:17.318Z</time>
</trkpt>
<trkpt lat="31.7700400" lon="35.0426200">
<ele>563.859985</ele>
<time>2021-04-28T12:17:17.318Z</time>
</trkpt>
<trkpt lat="31.7700100" lon="35.0425100">
<ele>563.289978</ele>
<time>2021-04-28T12:17:17.318Z</time>
</trkpt>
<trkpt lat="31.7699600" lon="35.0423800">
<ele>560.219971</ele>
<time>2021-04-28T12:17:17.318Z</time>
</trkpt>
<trkpt lat="31.7699300" lon="35.0422700">
<ele>558.330017</ele>
<time>2021-04-28T12:17:17.318Z</time>
</trkpt>
<trkpt lat="31.7699100" lon="35.0421600">
<ele>556.210022</ele>
<time>2021-04-28T12:17:17.318Z</time>
</trkpt>
<trkpt lat="31.7699000" lon="35.0420500">
<ele>553.849976</ele>
<time>2021-04-28T12:17:17.318Z</time>
</trkpt>
<trkpt lat="31.7698800" lon="35.0419400">
<ele>551.350037</ele>
<time>2021-04-28T12:17:17.318Z</time>
</trkpt>
<trkpt lat="31.7698600" lon="35.0418100">
<ele>549.289978</ele>
<time>2021-04-28T12:17:17.318Z</time>
</trkpt>
<trkpt lat="31.7698400" lon="35.0416900">
<ele>547.549988</ele>
<time>2021-04-28T12:17:17.318Z</time>
</trkpt>
<trkpt lat="31.7698400" lon="35.0415800">
<ele>546.020020</ele>
<time>2021-04-28T12:17:17.318Z</time>
</trkpt>
<trkpt lat="31.7698400" lon="35.0414600">
<ele>544.299988</ele>
<time>2021-04-28T12:17:17.318Z</time>
</trkpt>
<trkpt lat="31.7698400" lon="35.0413500">
<ele>542.729980</ele>
<time>2021-04-28T12:17:17.318Z</time>
</trkpt>
<trkpt lat="31.7698600" lon="35.0412500">
<ele>541.489990</ele>
<time>2021-04-28T12:17:17.318Z</time>
</trkpt>
<trkpt lat="31.7699200" lon="35.0411400">
<ele>540.169983</ele>
<time>2021-04-28T12:17:17.318Z</time>
</trkpt>
<trkpt lat="31.7699700" lon="35.0410300">
<ele>539.440002</ele>
<time>2021-04-28T12:17:17.318Z</time>
</trkpt>
<trkpt lat="31.7700100" lon="35.0409300">
<ele>539.580017</ele>
<time>2021-04-28T12:17:17.318Z</time>
</trkpt>
<trkpt lat="31.7700800" lon="35.0407900">
<ele>540.239990</ele>
<time>2021-04-28T12:17:17.318Z</time>
</trkpt>
<trkpt lat="31.7701000" lon="35.0406500">
<ele>539.900024</ele>
<time>2021-04-28T12:17:17.318Z</time>
</trkpt>
<trkpt lat="31.7701100" lon="35.0404900">
<ele>539.109985</ele>
<time>2021-04-28T12:17:17.318Z</time>
</trkpt>
<trkpt lat="31.7701100" lon="35.0403800">
<ele>538.320007</ele>
<time>2021-04-28T12:17:17.318Z</time>
</trkpt>
<trkpt lat="31.7701000" lon="35.0402200">
<ele>537.159973</ele>
<time>2021-04-28T12:17:17.318Z</time>
</trkpt>
<trkpt lat="31.7700900" lon="35.0401200">
<ele>536.540039</ele>
<time>2021-04-28T12:17:17.319Z</time>
</trkpt>
<trkpt lat="31.7700600" lon="35.0400100">
<ele>535.690002</ele>
<time>2021-04-28T12:17:17.319Z</time>
</trkpt>
<trkpt lat="31.7700300" lon="35.0399000">
<ele>536.039978</ele>
<time>2021-04-28T12:17:17.319Z</time>
</trkpt>
<trkpt lat="31.7700000" lon="35.0398000">
<ele>536.440002</ele>
<time>2021-04-28T12:17:17.319Z</time>
</trkpt>
<trkpt lat="31.7699600" lon="35.0396800">
<ele>536.450012</ele>
<time>2021-04-28T12:17:17.319Z</time>
</trkpt>
<trkpt lat="31.7699200" lon="35.0395700">
<ele>536.270020</ele>
<time>2021-04-28T12:17:17.319Z</time>
</trkpt>
<trkpt lat="31.7698700" lon="35.0394300">
<ele>536.079956</ele>
<time>2021-04-28T12:17:17.319Z</time>
</trkpt>
<trkpt lat="31.7698300" lon="35.0392900">
<ele>534.869995</ele>
<time>2021-04-28T12:17:17.319Z</time>
</trkpt>
<trkpt lat="31.7697900" lon="35.0391500">
<ele>533.349976</ele>
<time>2021-04-28T12:17:17.319Z</time>
</trkpt>
<trkpt lat="31.7697700" lon="35.0390300">
<ele>532.200012</ele>
<time>2021-04-28T12:17:17.319Z</time>
</trkpt>
<trkpt lat="31.7697500" lon="35.0389300">
<ele>531.409973</ele>
<time>2021-04-28T12:17:17.319Z</time>
</trkpt>
<trkpt lat="31.7697200" lon="35.0387800">
<ele>530.150024</ele>
<time>2021-04-28T12:17:17.319Z</time>
</trkpt>
<trkpt lat="31.7697000" lon="35.0386300">
<ele>528.570007</ele>
<time>2021-04-28T12:17:17.319Z</time>
</trkpt>
<trkpt lat="31.7696700" lon="35.0385100">
<ele>527.250000</ele>
<time>2021-04-28T12:17:17.319Z</time>
</trkpt>
<trkpt lat="31.7696400" lon="35.0384000">
<ele>525.940002</ele>
<time>2021-04-28T12:17:17.319Z</time>
</trkpt>
<trkpt lat="31.7696100" lon="35.0383000">
<ele>524.049988</ele>
<time>2021-04-28T12:17:17.319Z</time>
</trkpt>
<trkpt lat="31.7695800" lon="35.0381600">
<ele>520.510010</ele>
<time>2021-04-28T12:17:17.319Z</time>
</trkpt>
<trkpt lat="31.7695700" lon="35.0380400">
<ele>517.910034</ele>
<time>2021-04-28T12:17:17.319Z</time>
</trkpt>
<trkpt lat="31.7695700" lon="35.0379000">
<ele>513.929993</ele>
<time>2021-04-28T12:17:17.319Z</time>
</trkpt>
<trkpt lat="31.7695700" lon="35.0377900">
<ele>510.799988</ele>
<time>2021-04-28T12:17:17.319Z</time>
</trkpt>
<trkpt lat="31.7695900" lon="35.0376800">
<ele>508.410004</ele>
<time>2021-04-28T12:17:17.319Z</time>
</trkpt>
<trkpt lat="31.7696100" lon="35.0375600">
<ele>505.890015</ele>
<time>2021-04-28T12:17:17.319Z</time>
</trkpt>
<trkpt lat="31.7696600" lon="35.0374500">
<ele>504.430023</ele>
<time>2021-04-28T12:17:17.319Z</time>
</trkpt>
<trkpt lat="31.7697400" lon="35.0373600">
<ele>504.430023</ele>
<time>2021-04-28T12:17:17.319Z</time>
</trkpt>
<trkpt lat="31.7698300" lon="35.0372900">
<ele>503.660004</ele>
<time>2021-04-28T12:17:17.319Z</time>
</trkpt>
<trkpt lat="31.7699300" lon="35.0372300">
<ele>502.570007</ele>
<time>2021-04-28T12:17:17.319Z</time>
</trkpt>
<trkpt lat="31.7700300" lon="35.0371500">
<ele>502.810028</ele>
<time>2021-04-28T12:17:17.319Z</time>
</trkpt>
<trkpt lat="31.7701100" lon="35.0370700">
<ele>504.730011</ele>
<time>2021-04-28T12:17:17.319Z</time>
</trkpt>
<trkpt lat="31.7701700" lon="35.0369600">
<ele>505.739990</ele>
<time>2021-04-28T12:17:17.320Z</time>
</trkpt>
<trkpt lat="31.7701900" lon="35.0368500">
<ele>505.890015</ele>
<time>2021-04-28T12:17:17.320Z</time>
</trkpt>
<trkpt lat="31.7702000" lon="35.0367300">
<ele>505.890015</ele>
<time>2021-04-28T12:17:17.320Z</time>
</trkpt>
<trkpt lat="31.7702100" lon="35.0366200">
<ele>505.920013</ele>
<time>2021-04-28T12:17:17.320Z</time>
</trkpt>
<trkpt lat="31.7702100" lon="35.0365100">
<ele>505.619995</ele>
<time>2021-04-28T12:17:17.320Z</time>
</trkpt>
<trkpt lat="31.7702100" lon="35.0364000">
<ele>505.320007</ele>
<time>2021-04-28T12:17:17.320Z</time>
</trkpt>
<trkpt lat="31.7702100" lon="35.0362800">
<ele>504.600006</ele>
<time>2021-04-28T12:17:17.320Z</time>
</trkpt>
<trkpt lat="31.7702000" lon="35.0361600">
<ele>503.620026</ele>
<time>2021-04-28T12:17:17.320Z</time>
</trkpt>
<trkpt lat="31.7702000" lon="35.0360400">
<ele>502.440002</ele>
<time>2021-04-28T12:17:17.320Z</time>
</trkpt>
<trkpt lat="31.7702100" lon="35.0359000">
<ele>500.869995</ele>
<time>2021-04-28T12:17:17.320Z</time>
</trkpt>
<trkpt lat="31.7702100" lon="35.0357600">
<ele>499.170013</ele>
<time>2021-04-28T12:17:17.320Z</time>
</trkpt>
<trkpt lat="31.7702200" lon="35.0356300">
<ele>497.820007</ele>
<time>2021-04-28T12:17:17.320Z</time>
</trkpt>
<trkpt lat="31.7702300" lon="35.0355200">
<ele>496.730011</ele>
<time>2021-04-28T12:17:17.320Z</time>
</trkpt>
<trkpt lat="31.7702600" lon="35.0353700">
<ele>495.629974</ele>
<time>2021-04-28T12:17:17.320Z</time>
</trkpt>
<trkpt lat="31.7703100" lon="35.0352300">
<ele>494.809998</ele>
<time>2021-04-28T12:17:17.320Z</time>
</trkpt>
<trkpt lat="31.7703500" lon="35.0351200">
<ele>493.929993</ele>
<time>2021-04-28T12:17:17.320Z</time>
</trkpt>
<trkpt lat="31.7703900" lon="35.0350300">
<ele>493.180023</ele>
<time>2021-04-28T12:17:17.320Z</time>
</trkpt>
<trkpt lat="31.7704100" lon="35.0349200">
<ele>491.949982</ele>
<time>2021-04-28T12:17:17.320Z</time>
</trkpt>
<trkpt lat="31.7704300" lon="35.0348000">
<ele>490.539978</ele>
<time>2021-04-28T12:17:17.320Z</time>
</trkpt>
<trkpt lat="31.7704300" lon="35.0346700">
<ele>488.900024</ele>
<time>2021-04-28T12:17:17.320Z</time>
</trkpt>
<trkpt lat="31.7704400" lon="35.0345400">
<ele>487.339996</ele>
<time>2021-04-28T12:17:17.320Z</time>
</trkpt>
<trkpt lat="31.7704300" lon="35.0344200">
<ele>486.059998</ele>
<time>2021-04-28T12:17:17.320Z</time>
</trkpt>
<trkpt lat="31.7704200" lon="35.0343100">
<ele>485.790009</ele>
<time>2021-04-28T12:17:17.320Z</time>
</trkpt>
<trkpt lat="31.7704100" lon="35.0342000">
<ele>485.489990</ele>
<time>2021-04-28T12:17:17.320Z</time>
</trkpt>
<trkpt lat="31.7703900" lon="35.0340800">
<ele>484.899994</ele>
<time>2021-04-28T12:17:17.320Z</time>
</trkpt>
<trkpt lat="31.7703600" lon="35.0339700">
<ele>484.180023</ele>
<time>2021-04-28T12:17:17.320Z</time>
</trkpt>
<trkpt lat="31.7703300" lon="35.0338500">
<ele>483.679993</ele>
<time>2021-04-28T12:17:17.320Z</time>
</trkpt>
<trkpt lat="31.7702900" lon="35.0337400">
<ele>483.639984</ele>
<time>2021-04-28T12:17:17.321Z</time>
</trkpt>
<trkpt lat="31.7702500" lon="35.0336100">
<ele>483.389984</ele>
<time>2021-04-28T12:17:17.321Z</time>
</trkpt>
<trkpt lat="31.7702300" lon="35.0334700">
<ele>481.709991</ele>
<time>2021-04-28T12:17:17.321Z</time>
</trkpt>
<trkpt lat="31.7702000" lon="35.0333500">
<ele>480.290009</ele>
<time>2021-04-28T12:17:17.321Z</time>
</trkpt>
<trkpt lat="31.7701700" lon="35.0332500">
<ele>479.470001</ele>
<time>2021-04-28T12:17:17.321Z</time>
</trkpt>
<trkpt lat="31.7701200" lon="35.0331100">
<ele>478.600006</ele>
<time>2021-04-28T12:17:17.321Z</time>
</trkpt>
<trkpt lat="31.7701000" lon="35.0329900">
<ele>477.819977</ele>
<time>2021-04-28T12:17:17.321Z</time>
</trkpt>
<trkpt lat="31.7700900" lon="35.0328700">
<ele>476.750000</ele>
<time>2021-04-28T12:17:17.321Z</time>
</trkpt>
<trkpt lat="31.7700900" lon="35.0327300">
<ele>474.829987</ele>
<time>2021-04-28T12:17:17.321Z</time>
</trkpt>
<trkpt lat="31.7700900" lon="35.0326200">
<ele>472.200012</ele>
<time>2021-04-28T12:17:17.321Z</time>
</trkpt>
<trkpt lat="31.7701000" lon="35.0325300">
<ele>470.089996</ele>
<time>2021-04-28T12:17:17.321Z</time>
</trkpt>
<trkpt lat="31.7701300" lon="35.0324400">
<ele>467.830017</ele>
<time>2021-04-28T12:17:17.321Z</time>
</trkpt>
<trkpt lat="31.7702200" lon="35.0323400">
<ele>465.980011</ele>
<time>2021-04-28T12:17:17.321Z</time>
</trkpt>
<trkpt lat="31.7703300" lon="35.0322500">
<ele>464.220001</ele>
<time>2021-04-28T12:17:17.321Z</time>
</trkpt>
<trkpt lat="31.7704200" lon="35.0321900">
<ele>462.520020</ele>
<time>2021-04-28T12:17:17.321Z</time>
</trkpt>
<trkpt lat="31.7705000" lon="35.0321200">
<ele>461.370026</ele>
<time>2021-04-28T12:17:17.321Z</time>
</trkpt>
<trkpt lat="31.7705800" lon="35.0320400">
<ele>460.630005</ele>
<time>2021-04-28T12:17:17.321Z</time>
</trkpt>
<trkpt lat="31.7706600" lon="35.0319700">
<ele>459.839996</ele>
<time>2021-04-28T12:17:17.321Z</time>
</trkpt>
<trkpt lat="31.7707600" lon="35.0319100">
<ele>458.890015</ele>
<time>2021-04-28T12:17:17.321Z</time>
</trkpt>
<trkpt lat="31.7708500" lon="35.0318600">
<ele>458.209991</ele>
<time>2021-04-28T12:17:17.321Z</time>
</trkpt>
<trkpt lat="31.7709600" lon="35.0318100">
<ele>458.460022</ele>
<time>2021-04-28T12:17:17.321Z</time>
</trkpt>
<trkpt lat="31.7710700" lon="35.0317300">
<ele>458.389984</ele>
<time>2021-04-28T12:17:17.321Z</time>
</trkpt>
<trkpt lat="31.7711400" lon="35.0316400">
<ele>458.020020</ele>
<time>2021-04-28T12:17:17.321Z</time>
</trkpt>
<trkpt lat="31.7712100" lon="35.0315400">
<ele>457.699982</ele>
<time>2021-04-28T12:17:17.321Z</time>
</trkpt>
<trkpt lat="31.7712800" lon="35.0314200">
<ele>457.160004</ele>
<time>2021-04-28T12:17:17.321Z</time>
</trkpt>
<trkpt lat="31.7713300" lon="35.0312900">
<ele>456.150024</ele>
<time>2021-04-28T12:17:17.321Z</time>
</trkpt>
<trkpt lat="31.7713800" lon="35.0311600">
<ele>455.380005</ele>
<time>2021-04-28T12:17:17.321Z</time>
</trkpt>
<trkpt lat="31.7714300" lon="35.0310300">
<ele>453.769989</ele>
<time>2021-04-28T12:17:17.321Z</time>
</trkpt>
<trkpt lat="31.7714800" lon="35.0309100">
<ele>452.179993</ele>
<time>2021-04-28T12:17:17.322Z</time>
</trkpt>
<trkpt lat="31.7715000" lon="35.0308200">
<ele>451.040009</ele>
<time>2021-04-28T12:17:17.322Z</time>
</trkpt>
<trkpt lat="31.7715000" lon="35.0307000">
<ele>449.569977</ele>
<time>2021-04-28T12:17:17.322Z</time>
</trkpt>
<trkpt lat="31.7715000" lon="35.0305900">
<ele>448.220001</ele>
<time>2021-04-28T12:17:17.322Z</time>
</trkpt>
<trkpt lat="31.7715000" lon="35.0304800">
<ele>447.419983</ele>
<time>2021-04-28T12:17:17.322Z</time>
</trkpt>
<trkpt lat="31.7715000" lon="35.0303400">
<ele>446.709991</ele>
<time>2021-04-28T12:17:17.322Z</time>
</trkpt>
<trkpt lat="31.7714900" lon="35.0302100">
<ele>446.589996</ele>
<time>2021-04-28T12:17:17.322Z</time>
</trkpt>
<trkpt lat="31.7714800" lon="35.0300800">
<ele>447.049988</ele>
<time>2021-04-28T12:17:17.322Z</time>
</trkpt>
<trkpt lat="31.7714600" lon="35.0299800">
<ele>447.599976</ele>
<time>2021-04-28T12:17:17.322Z</time>
</trkpt>
<trkpt lat="31.7714200" lon="35.0298900">
<ele>448.480011</ele>
<time>2021-04-28T12:17:17.322Z</time>
</trkpt>
<trkpt lat="31.7713100" lon="35.0298300">
<ele>449.510010</ele>
<time>2021-04-28T12:17:17.322Z</time>
</trkpt>
<trkpt lat="31.7712400" lon="35.0297700">
<ele>450.190002</ele>
<time>2021-04-28T12:17:17.322Z</time>
</trkpt>
<trkpt lat="31.7712200" lon="35.0296400">
<ele>450.429993</ele>
<time>2021-04-28T12:17:17.322Z</time>
</trkpt>
<trkpt lat="31.7712100" lon="35.0295300">
<ele>450.200012</ele>
<time>2021-04-28T12:17:17.322Z</time>
</trkpt>
<trkpt lat="31.7712000" lon="35.0294200">
<ele>449.940002</ele>
<time>2021-04-28T12:17:17.322Z</time>
</trkpt>
<trkpt lat="31.7711900" lon="35.0292900">
<ele>449.600006</ele>
<time>2021-04-28T12:17:17.322Z</time>
</trkpt>
<trkpt lat="31.7711900" lon="35.0292000">
<ele>449.369995</ele>
<time>2021-04-28T12:17:17.322Z</time>
</trkpt>
<trkpt lat="31.7711800" lon="35.0291100">
<ele>449.149994</ele>
<time>2021-04-28T12:17:17.322Z</time>
</trkpt>
<trkpt lat="31.7711600" lon="35.0289900">
<ele>448.759979</ele>
<time>2021-04-28T12:17:17.322Z</time>
</trkpt>
<trkpt lat="31.7711300" lon="35.0288700">
<ele>448.279999</ele>
<time>2021-04-28T12:17:17.322Z</time>
</trkpt>
<trkpt lat="31.7711200" lon="35.0287700">
<ele>448.539978</ele>
<time>2021-04-28T12:17:17.322Z</time>
</trkpt>
<trkpt lat="31.7711100" lon="35.0286600">
<ele>448.809998</ele>
<time>2021-04-28T12:17:17.322Z</time>
</trkpt>
<trkpt lat="31.7711200" lon="35.0285700">
<ele>449.119995</ele>
<time>2021-04-28T12:17:17.322Z</time>
</trkpt>
<trkpt lat="31.7711600" lon="35.0284800">
<ele>449.619995</ele>
<time>2021-04-28T12:17:17.322Z</time>
</trkpt>
<trkpt lat="31.7712300" lon="35.0283700">
<ele>450.339996</ele>
<time>2021-04-28T12:17:17.322Z</time>
</trkpt>
<trkpt lat="31.7712700" lon="35.0282700">
<ele>450.260010</ele>
<time>2021-04-28T12:17:17.322Z</time>
</trkpt>
<trkpt lat="31.7713100" lon="35.0281400">
<ele>449.760010</ele>
<time>2021-04-28T12:17:17.322Z</time>
</trkpt>
<trkpt lat="31.7713400" lon="35.0280300">
<ele>449.290009</ele>
<time>2021-04-28T12:17:17.323Z</time>
</trkpt>
<trkpt lat="31.7713900" lon="35.0279200">
<ele>449.029999</ele>
<time>2021-04-28T12:17:17.323Z</time>
</trkpt>
<trkpt lat="31.7714400" lon="35.0278300">
<ele>448.740021</ele>
<time>2021-04-28T12:17:17.323Z</time>
</trkpt>
<trkpt lat="31.7714600" lon="35.0277100">
<ele>448.029999</ele>
<time>2021-04-28T12:17:17.323Z</time>
</trkpt>
<trkpt lat="31.7714700" lon="35.0275900">
<ele>447.350006</ele>
<time>2021-04-28T12:17:17.323Z</time>
</trkpt>
<trkpt lat="31.7714700" lon="35.0274700">
<ele>446.819977</ele>
<time>2021-04-28T12:17:17.323Z</time>
</trkpt>
<trkpt lat="31.7714600" lon="35.0273800">
<ele>446.760010</ele>
<time>2021-04-28T12:17:17.323Z</time>
</trkpt>
<trkpt lat="31.7713900" lon="35.0273100">
<ele>445.029999</ele>
<time>2021-04-28T12:17:17.323Z</time>
</trkpt>
<trkpt lat="31.7712900" lon="35.0272800">
<ele>442.660004</ele>
<time>2021-04-28T12:17:17.323Z</time>
</trkpt>
<trkpt lat="31.7711700" lon="35.0272500">
<ele>439.639984</ele>
<time>2021-04-28T12:17:17.323Z</time>
</trkpt>
<trkpt lat="31.7711000" lon="35.0272400">
<ele>437.970001</ele>
<time>2021-04-28T12:17:17.323Z</time>
</trkpt>
<trkpt lat="31.7711000" lon="35.0271400">
<ele>438.699982</ele>
<time>2021-04-28T12:17:17.323Z</time>
</trkpt>
<trkpt lat="31.7711000" lon="35.0269900">
<ele>440.279999</ele>
<time>2021-04-28T12:17:17.323Z</time>
</trkpt>
<trkpt lat="31.7711000" lon="35.0268400">
<ele>441.479980</ele>
<time>2021-04-28T12:17:17.323Z</time>
</trkpt>
<trkpt lat="31.7711100" lon="35.0267000">
<ele>442.730011</ele>
<time>2021-04-28T12:17:17.323Z</time>
</trkpt>
<trkpt lat="31.7711100" lon="35.0265500">
<ele>442.130005</ele>
<time>2021-04-28T12:17:17.323Z</time>
</trkpt>
<trkpt lat="31.7711200" lon="35.0264000">
<ele>441.169983</ele>
<time>2021-04-28T12:17:17.323Z</time>
</trkpt>
<trkpt lat="31.7711300" lon="35.0262800">
<ele>440.310028</ele>
<time>2021-04-28T12:17:17.323Z</time>
</trkpt>
<trkpt lat="31.7711400" lon="35.0261400">
<ele>439.150024</ele>
<time>2021-04-28T12:17:17.323Z</time>
</trkpt>
<trkpt lat="31.7711600" lon="35.0260200">
<ele>436.320007</ele>
<time>2021-04-28T12:17:17.323Z</time>
</trkpt>
<trkpt lat="31.7712100" lon="35.0259600">
<ele>434.679993</ele>
<time>2021-04-28T12:17:17.323Z</time>
</trkpt>
<trkpt lat="31.7713200" lon="35.0259000">
<ele>433.309998</ele>
<time>2021-04-28T12:17:17.323Z</time>
</trkpt>
<trkpt lat="31.7714200" lon="35.0258500">
<ele>432.160004</ele>
<time>2021-04-28T12:17:17.323Z</time>
</trkpt>
<trkpt lat="31.7715300" lon="35.0257800">
<ele>429.929993</ele>
<time>2021-04-28T12:17:17.323Z</time>
</trkpt>
<trkpt lat="31.7716100" lon="35.0257200">
<ele>428.280029</ele>
<time>2021-04-28T12:17:17.323Z</time>
</trkpt>
<trkpt lat="31.7716900" lon="35.0256500">
<ele>426.950012</ele>
<time>2021-04-28T12:17:17.323Z</time>
</trkpt>
<trkpt lat="31.7717500" lon="35.0255600">
<ele>425.979980</ele>
<time>2021-04-28T12:17:17.323Z</time>
</trkpt>
<trkpt lat="31.7718200" lon="35.0254700">
<ele>425.419983</ele>
<time>2021-04-28T12:17:17.324Z</time>
</trkpt>
<trkpt lat="31.7719000" lon="35.0253900">
<ele>425.140015</ele>
<time>2021-04-28T12:17:17.324Z</time>
</trkpt>
<trkpt lat="31.7719800" lon="35.0253200">
<ele>424.839996</ele>
<time>2021-04-28T12:17:17.324Z</time>
</trkpt>
<trkpt lat="31.7720600" lon="35.0252300">
<ele>424.489990</ele>
<time>2021-04-28T12:17:17.324Z</time>
</trkpt>
<trkpt lat="31.7721200" lon="35.0251300">
<ele>424.200012</ele>
<time>2021-04-28T12:17:17.324Z</time>
</trkpt>
<trkpt lat="31.7722000" lon="35.0250600">
<ele>424.269989</ele>
<time>2021-04-28T12:17:17.324Z</time>
</trkpt>
<trkpt lat="31.7722800" lon="35.0249900">
<ele>423.089996</ele>
<time>2021-04-28T12:17:17.324Z</time>
</trkpt>
<trkpt lat="31.7723700" lon="35.0249300">
<ele>421.229980</ele>
<time>2021-04-28T12:17:17.324Z</time>
</trkpt>
<trkpt lat="31.7724400" lon="35.0248700">
<ele>419.559998</ele>
<time>2021-04-28T12:17:17.324Z</time>
</trkpt>
<trkpt lat="31.7725200" lon="35.0247300">
<ele>416.809967</ele>
<time>2021-04-28T12:17:17.324Z</time>
</trkpt>
<trkpt lat="31.7725600" lon="35.0246700">
<ele>415.569977</ele>
<time>2021-04-28T12:17:17.324Z</time>
</trkpt>
<trkpt lat="31.7725600" lon="35.0246700">
<ele>415.569977</ele>
<time>2021-04-28T12:17:17.324Z</time>
</trkpt>
<trkpt lat="31.7725600" lon="35.0246800">
<ele>415.679993</ele>
<time>2021-04-28T12:17:17.324Z</time>
</trkpt>
<trkpt lat="31.7725700" lon="35.0246600">
<ele>415.319977</ele>
<time>2021-04-28T12:17:17.324Z</time>
</trkpt>
<trkpt lat="31.7727700" lon="35.0244300">
<ele>410.100006</ele>
<time>2021-04-28T12:17:17.324Z</time>
</trkpt>
<trkpt lat="31.7728600" lon="35.0243400">
<ele>409.589996</ele>
<time>2021-04-28T12:17:17.324Z</time>
</trkpt>
<trkpt lat="31.7730000" lon="35.0242900">
<ele>408.760010</ele>
<time>2021-04-28T12:17:17.324Z</time>
</trkpt>
<trkpt lat="31.7730700" lon="35.0242900">
<ele>407.990021</ele>
<time>2021-04-28T12:17:17.324Z</time>
</trkpt>
<trkpt lat="31.7732900" lon="35.0243600">
<ele>402.349976</ele>
<time>2021-04-28T12:17:17.324Z</time>
</trkpt>
<trkpt lat="31.7740100" lon="35.0244600">
<ele>398.149994</ele>
<time>2021-04-28T12:17:17.324Z</time>
</trkpt>
<trkpt lat="31.7745300" lon="35.0244800">
<ele>406.610016</ele>
<time>2021-04-28T12:17:17.324Z</time>
</trkpt>
<trkpt lat="31.7747400" lon="35.0243400">
<ele>402.790009</ele>
<time>2021-04-28T12:17:17.324Z</time>
</trkpt>
<trkpt lat="31.7748800" lon="35.0241600">
<ele>400.070007</ele>
<time>2021-04-28T12:17:17.324Z</time>
</trkpt>
<trkpt lat="31.7749500" lon="35.0240400">
<ele>399.559998</ele>
<time>2021-04-28T12:17:17.324Z</time>
</trkpt>
<trkpt lat="31.7750700" lon="35.0238400">
<ele>398.769989</ele>
<time>2021-04-28T12:17:17.324Z</time>
</trkpt>
<trkpt lat="31.7752300" lon="35.0238000">
<ele>399.129974</ele>
<time>2021-04-28T12:17:17.324Z</time>
</trkpt>
<trkpt lat="31.7753700" lon="35.0236900">
<ele>398.659973</ele>
<time>2021-04-28T12:17:17.324Z</time>
</trkpt>
<trkpt lat="31.7756000" lon="35.0235300">
<ele>397.609985</ele>
<time>2021-04-28T12:17:17.324Z</time>
</trkpt>
<trkpt lat="31.7759100" lon="35.0234300">
<ele>395.850006</ele>
<time>2021-04-28T12:17:17.325Z</time>
</trkpt>
<trkpt lat="31.7760500" lon="35.0237000">
<ele>396.829987</ele>
<time>2021-04-28T12:17:17.325Z</time>
</trkpt>
<trkpt lat="31.7760300" lon="35.0239800">
<ele>397.840027</ele>
<time>2021-04-28T12:17:17.325Z</time>
</trkpt>
<trkpt lat="31.7760400" lon="35.0240900">
<ele>397.600006</ele>
<time>2021-04-28T12:17:17.325Z</time>
</trkpt>
<trkpt lat="31.7760400" lon="35.0243700">
<ele>398.119995</ele>
<time>2021-04-28T12:17:17.325Z</time>
</trkpt>
<trkpt lat="31.7761400" lon="35.0246600">
<ele>392.350006</ele>
<time>2021-04-28T12:17:17.325Z</time>
</trkpt>
<trkpt lat="31.7761600" lon="35.0248800">
<ele>386.989990</ele>
<time>2021-04-28T12:17:17.325Z</time>
</trkpt>
<trkpt lat="31.7760500" lon="35.0251700">
<ele>381.820007</ele>
<time>2021-04-28T12:17:17.325Z</time>
</trkpt>
<trkpt lat="31.7760500" lon="35.0251700">
<ele>381.820007</ele>
<time>2021-04-28T12:17:17.325Z</time>
</trkpt>
<trkpt lat="31.7761600" lon="35.0248800">
<ele>386.989990</ele>
<time>2021-04-28T12:17:17.325Z</time>
</trkpt>
<trkpt lat="31.7761400" lon="35.0246600">
<ele>392.350006</ele>
<time>2021-04-28T12:17:17.325Z</time>
</trkpt>
<trkpt lat="31.7760400" lon="35.0243700">
<ele>398.119995</ele>
<time>2021-04-28T12:17:17.325Z</time>
</trkpt>
<trkpt lat="31.7760400" lon="35.0240900">
<ele>397.600006</ele>
<time>2021-04-28T12:17:17.325Z</time>
</trkpt>
<trkpt lat="31.7761800" lon="35.0240900">
<ele>392.470001</ele>
<time>2021-04-28T12:17:17.325Z</time>
</trkpt>
<trkpt lat="31.7763100" lon="35.0240200">
<ele>386.620026</ele>
<time>2021-04-28T12:17:17.325Z</time>
</trkpt>
<trkpt lat="31.7763600" lon="35.0239100">
<ele>386.660004</ele>
<time>2021-04-28T12:17:17.325Z</time>
</trkpt>
<trkpt lat="31.7765400" lon="35.0235900">
<ele>387.319977</ele>
<time>2021-04-28T12:17:17.325Z</time>
</trkpt>
<trkpt lat="31.7766800" lon="35.0234000">
<ele>386.549988</ele>
<time>2021-04-28T12:17:17.325Z</time>
</trkpt>
<trkpt lat="31.7768400" lon="35.0232200">
<ele>383.849976</ele>
<time>2021-04-28T12:17:17.325Z</time>
</trkpt>
<trkpt lat="31.7770400" lon="35.0229200">
<ele>381.520020</ele>
<time>2021-04-28T12:17:17.325Z</time>
</trkpt>
<trkpt lat="31.7771300" lon="35.0227400">
<ele>381.980011</ele>
<time>2021-04-28T12:17:17.325Z</time>
</trkpt>
<trkpt lat="31.7771800" lon="35.0224000">
<ele>382.399994</ele>
<time>2021-04-28T12:17:17.325Z</time>
</trkpt>
<trkpt lat="31.7772600" lon="35.0222100">
<ele>379.660004</ele>
<time>2021-04-28T12:17:17.325Z</time>
</trkpt>
<trkpt lat="31.7773000" lon="35.0220100">
<ele>374.890015</ele>
<time>2021-04-28T12:17:17.325Z</time>
</trkpt>
<trkpt lat="31.7772700" lon="35.0219300">
<ele>375.459991</ele>
<time>2021-04-28T12:17:17.325Z</time>
</trkpt>
<trkpt lat="31.7771400" lon="35.0217900">
<ele>376.890015</ele>
<time>2021-04-28T12:17:17.325Z</time>
</trkpt>
<trkpt lat="31.7770700" lon="35.0216900">
<ele>375.889984</ele>
<time>2021-04-28T12:17:17.326Z</time>
</trkpt>
<trkpt lat="31.7770200" lon="35.0215300">
<ele>373.040009</ele>
<time>2021-04-28T12:17:17.326Z</time>
</trkpt>
<trkpt lat="31.7769600" lon="35.0214300">
<ele>370.929993</ele>
<time>2021-04-28T12:17:17.326Z</time>
</trkpt>
<trkpt lat="31.7769700" lon="35.0213500">
<ele>369.420013</ele>
<time>2021-04-28T12:17:17.326Z</time>
</trkpt>
<trkpt lat="31.7770300" lon="35.0213000">
<ele>368.909973</ele>
<time>2021-04-28T12:17:17.326Z</time>
</trkpt>
<trkpt lat="31.7772400" lon="35.0212200">
<ele>369.000000</ele>
<time>2021-04-28T12:17:17.326Z</time>
</trkpt>
<trkpt lat="31.7773600" lon="35.0211400">
<ele>367.220001</ele>
<time>2021-04-28T12:17:17.326Z</time>
</trkpt>
<trkpt lat="31.7775700" lon="35.0210600">
<ele>364.399994</ele>
<time>2021-04-28T12:17:17.326Z</time>
</trkpt>
<trkpt lat="31.7777500" lon="35.0210500">
<ele>360.779999</ele>
<time>2021-04-28T12:17:17.326Z</time>
</trkpt>
<trkpt lat="31.7778500" lon="35.0210900">
<ele>358.039978</ele>
<time>2021-04-28T12:17:17.326Z</time>
</trkpt>
<trkpt lat="31.7779600" lon="35.0212000">
<ele>352.729980</ele>
<time>2021-04-28T12:17:17.326Z</time>
</trkpt>
<trkpt lat="31.7780000" lon="35.0212100">
<ele>351.250000</ele>
<time>2021-04-28T12:17:17.326Z</time>
</trkpt>
<trkpt lat="31.7780300" lon="35.0211900">
<ele>350.799988</ele>
<time>2021-04-28T12:17:17.326Z</time>
</trkpt>
<trkpt lat="31.7780900" lon="35.0210300">
<ele>351.760010</ele>
<time>2021-04-28T12:17:17.326Z</time>
</trkpt>
<trkpt lat="31.7781600" lon="35.0209300">
<ele>350.570007</ele>
<time>2021-04-28T12:17:17.326Z</time>
</trkpt>
<trkpt lat="31.7782700" lon="35.0208200">
<ele>348.170013</ele>
<time>2021-04-28T12:17:17.326Z</time>
</trkpt>
<trkpt lat="31.7785000" lon="35.0206300">
<ele>341.230011</ele>
<time>2021-04-28T12:17:17.326Z</time>
</trkpt>
<trkpt lat="31.7785700" lon="35.0205300">
<ele>340.180023</ele>
<time>2021-04-28T12:17:17.326Z</time>
</trkpt>
<trkpt lat="31.7788300" lon="35.0203000">
<ele>337.780029</ele>
<time>2021-04-28T12:17:17.326Z</time>
</trkpt>
<trkpt lat="31.7789100" lon="35.0201600">
<ele>336.039978</ele>
<time>2021-04-28T12:17:17.326Z</time>
</trkpt>
<trkpt lat="31.7789400" lon="35.0200800">
<ele>334.040009</ele>
<time>2021-04-28T12:17:17.326Z</time>
</trkpt>
<trkpt lat="31.7789500" lon="35.0200000">
<ele>332.560028</ele>
<time>2021-04-28T12:17:17.326Z</time>
</trkpt>
<trkpt lat="31.7789400" lon="35.0199100">
<ele>331.720001</ele>
<time>2021-04-28T12:17:17.326Z</time>
</trkpt>
<trkpt lat="31.7789200" lon="35.0198900">
<ele>331.630005</ele>
<time>2021-04-28T12:17:17.326Z</time>
</trkpt>
<trkpt lat="31.7789200" lon="35.0198900">
<ele>331.630005</ele>
<time>2021-04-28T12:17:17.326Z</time>
</trkpt>
<trkpt lat="31.7789200" lon="35.0198900">
<ele>331.630005</ele>
<time>2021-04-28T12:17:17.326Z</time>
</trkpt>
<trkpt lat="31.7788400" lon="35.0197900">
<ele>330.639984</ele>
<time>2021-04-28T12:17:17.326Z</time>
</trkpt>
<trkpt lat="31.7785500" lon="35.0196200">
<ele>328.339996</ele>
<time>2021-04-28T12:17:17.326Z</time>
</trkpt>
<trkpt lat="31.7782200" lon="35.0194600">
<ele>327.720001</ele>
<time>2021-04-28T12:17:17.327Z</time>
</trkpt>
<trkpt lat="31.7780700" lon="35.0194400">
<ele>326.940002</ele>
<time>2021-04-28T12:17:17.327Z</time>
</trkpt>
<trkpt lat="31.7777100" lon="35.0194900">
<ele>330.020020</ele>
<time>2021-04-28T12:17:17.327Z</time>
</trkpt>
<trkpt lat="31.7775800" lon="35.0194300">
<ele>330.279999</ele>
<time>2021-04-28T12:17:17.327Z</time>
</trkpt>
<trkpt lat="31.7775400" lon="35.0193600">
<ele>329.970001</ele>
<time>2021-04-28T12:17:17.327Z</time>
</trkpt>
<trkpt lat="31.7775100" lon="35.0192000">
<ele>329.070007</ele>
<time>2021-04-28T12:17:17.327Z</time>
</trkpt>
<trkpt lat="31.7774200" lon="35.0190200">
<ele>328.230011</ele>
<time>2021-04-28T12:17:17.327Z</time>
</trkpt>
<trkpt lat="31.7774500" lon="35.0189900">
<ele>327.910004</ele>
<time>2021-04-28T12:17:17.327Z</time>
</trkpt>
<trkpt lat="31.7775200" lon="35.0189700">
<ele>327.070007</ele>
<time>2021-04-28T12:17:17.327Z</time>
</trkpt>
<trkpt lat="31.7775400" lon="35.0189400">
<ele>326.300018</ele>
<time>2021-04-28T12:17:17.327Z</time>
</trkpt>
<trkpt lat="31.7775400" lon="35.0188600">
<ele>325.280029</ele>
<time>2021-04-28T12:17:17.327Z</time>
</trkpt>
<trkpt lat="31.7775200" lon="35.0188200">
<ele>325.130005</ele>
<time>2021-04-28T12:17:17.327Z</time>
</trkpt>
<trkpt lat="31.7774200" lon="35.0187000">
<ele>324.279999</ele>
<time>2021-04-28T12:17:17.327Z</time>
</trkpt>
<trkpt lat="31.7772500" lon="35.0186300">
<ele>324.920013</ele>
<time>2021-04-28T12:17:17.327Z</time>
</trkpt>
<trkpt lat="31.7771600" lon="35.0185600">
<ele>324.239990</ele>
<time>2021-04-28T12:17:17.327Z</time>
</trkpt>
<trkpt lat="31.7770700" lon="35.0184300">
<ele>322.710022</ele>
<time>2021-04-28T12:17:17.327Z</time>
</trkpt>
<trkpt lat="31.7769400" lon="35.0182800">
<ele>321.909973</ele>
<time>2021-04-28T12:17:17.327Z</time>
</trkpt>
<trkpt lat="31.7767800" lon="35.0180000">
<ele>316.779999</ele>
<time>2021-04-28T12:17:17.327Z</time>
</trkpt>
<trkpt lat="31.7767400" lon="35.0179300">
<ele>314.690002</ele>
<time>2021-04-28T12:17:17.327Z</time>
</trkpt>
<trkpt lat="31.7766100" lon="35.0177800">
<ele>311.709991</ele>
<time>2021-04-28T12:17:17.327Z</time>
</trkpt>
<trkpt lat="31.7764700" lon="35.0176500">
<ele>312.119995</ele>
<time>2021-04-28T12:17:17.327Z</time>
</trkpt>
<trkpt lat="31.7761300" lon="35.0172700">
<ele>316.169983</ele>
<time>2021-04-28T12:17:17.327Z</time>
</trkpt>
<trkpt lat="31.7759900" lon="35.0170800">
<ele>315.410004</ele>
<time>2021-04-28T12:17:17.327Z</time>
</trkpt>
<trkpt lat="31.7758700" lon="35.0168600">
<ele>313.779999</ele>
<time>2021-04-28T12:17:17.327Z</time>
</trkpt>
<trkpt lat="31.7758600" lon="35.0168200">
<ele>313.240021</ele>
<time>2021-04-28T12:17:17.327Z</time>
</trkpt>
<trkpt lat="31.7758800" lon="35.0167900">
<ele>312.290009</ele>
<time>2021-04-28T12:17:17.327Z</time>
</trkpt>
<trkpt lat="31.7759400" lon="35.0167500">
<ele>310.309998</ele>
<time>2021-04-28T12:17:17.327Z</time>
</trkpt>
<trkpt lat="31.7759700" lon="35.0167500">
<ele>309.700012</ele>
<time>2021-04-28T12:17:17.327Z</time>
</trkpt>
<trkpt lat="31.7760700" lon="35.0168200">
<ele>309.119995</ele>
<time>2021-04-28T12:17:17.328Z</time>
</trkpt>
<trkpt lat="31.7761600" lon="35.0169500">
<ele>309.679993</ele>
<time>2021-04-28T12:17:17.328Z</time>
</trkpt>
<trkpt lat="31.7762000" lon="35.0169600">
<ele>308.679993</ele>
<time>2021-04-28T12:17:17.328Z</time>
</trkpt>
<trkpt lat="31.7762300" lon="35.0169300">
<ele>307.330017</ele>
<time>2021-04-28T12:17:17.328Z</time>
</trkpt>
<trkpt lat="31.7762400" lon="35.0168500">
<ele>305.720001</ele>
<time>2021-04-28T12:17:17.328Z</time>
</trkpt>
<trkpt lat="31.7762100" lon="35.0166900">
<ele>303.630005</ele>
<time>2021-04-28T12:17:17.328Z</time>
</trkpt>
<trkpt lat="31.7762200" lon="35.0166000">
<ele>302.079987</ele>
<time>2021-04-28T12:17:17.328Z</time>
</trkpt>
<trkpt lat="31.7762700" lon="35.0164500">
<ele>299.019989</ele>
<time>2021-04-28T12:17:17.328Z</time>
</trkpt>
<trkpt lat="31.7763200" lon="35.0163900">
<ele>297.260010</ele>
<time>2021-04-28T12:17:17.328Z</time>
</trkpt>
<trkpt lat="31.7763600" lon="35.0163100">
<ele>295.920013</ele>
<time>2021-04-28T12:17:17.328Z</time>
</trkpt>
<trkpt lat="31.7763600" lon="35.0161900">
<ele>295.009979</ele>
<time>2021-04-28T12:17:17.328Z</time>
</trkpt>
<trkpt lat="31.7763500" lon="35.0161000">
<ele>294.429993</ele>
<time>2021-04-28T12:17:17.328Z</time>
</trkpt>
<trkpt lat="31.7762300" lon="35.0157900">
<ele>292.110016</ele>
<time>2021-04-28T12:17:17.328Z</time>
</trkpt>
<trkpt lat="31.7762000" lon="35.0156300">
<ele>290.380005</ele>
<time>2021-04-28T12:17:17.328Z</time>
</trkpt>
<trkpt lat="31.7761000" lon="35.0154500">
<ele>290.259979</ele>
<time>2021-04-28T12:17:17.328Z</time>
</trkpt>
<trkpt lat="31.7758800" lon="35.0151700">
<ele>288.220001</ele>
<time>2021-04-28T12:17:17.328Z</time>
</trkpt>
<trkpt lat="31.7758500" lon="35.0151500">
<ele>288.079987</ele>
<time>2021-04-28T12:17:17.328Z</time>
</trkpt>
<trkpt lat="31.7757100" lon="35.0151300">
<ele>288.350006</ele>
<time>2021-04-28T12:17:17.328Z</time>
</trkpt>
<trkpt lat="31.7756900" lon="35.0147300">
<ele>284.549988</ele>
<time>2021-04-28T12:17:17.328Z</time>
</trkpt>
<trkpt lat="31.7757000" lon="35.0140900">
<ele>271.989990</ele>
<time>2021-04-28T12:17:17.328Z</time>
</trkpt>
<trkpt lat="31.7754100" lon="35.0138600">
<ele>272.779999</ele>
<time>2021-04-28T12:17:17.328Z</time>
</trkpt>
<trkpt lat="31.7752400" lon="35.0140000">
<ele>273.949982</ele>
<time>2021-04-28T12:17:17.328Z</time>
</trkpt>
<trkpt lat="31.7753100" lon="35.0142700">
<ele>274.589996</ele>
<time>2021-04-28T12:17:17.328Z</time>
</trkpt>
<trkpt lat="31.7752000" lon="35.0144600">
<ele>273.959991</ele>
<time>2021-04-28T12:17:17.328Z</time>
</trkpt>
<trkpt lat="31.7749800" lon="35.0142400">
<ele>272.070007</ele>
<time>2021-04-28T12:17:17.328Z</time>
</trkpt>
<trkpt lat="31.7749200" lon="35.0135400">
<ele>272.970001</ele>
<time>2021-04-28T12:17:17.328Z</time>
</trkpt>
<trkpt lat="31.7749100" lon="35.0132400">
<ele>268.799988</ele>
<time>2021-04-28T12:17:17.328Z</time>
</trkpt>
<trkpt lat="31.7749600" lon="35.0130800">
<ele>267.320007</ele>
<time>2021-04-28T12:17:17.328Z</time>
</trkpt>
<trkpt lat="31.7750800" lon="35.0128700">
<ele>263.520020</ele>
<time>2021-04-28T12:17:17.329Z</time>
</trkpt>
<trkpt lat="31.7751200" lon="35.0128100">
<ele>262.510010</ele>
<time>2021-04-28T12:17:17.329Z</time>
</trkpt>
<trkpt lat="31.7751100" lon="35.0128100">
<ele>262.369995</ele>
<time>2021-04-28T12:17:17.329Z</time>
</trkpt>
<trkpt lat="31.7751100" lon="35.0128100">
<ele>262.369995</ele>
<time>2021-04-28T12:17:17.329Z</time>
</trkpt>
<trkpt lat="31.7754600" lon="35.0123100">
<ele>261.239990</ele>
<time>2021-04-28T12:17:17.329Z</time>
</trkpt>
<trkpt lat="31.7755700" lon="35.0121700">
<ele>262.420013</ele>
<time>2021-04-28T12:17:17.329Z</time>
</trkpt>
<trkpt lat="31.7756900" lon="35.0120800">
<ele>262.510010</ele>
<time>2021-04-28T12:17:17.329Z</time>
</trkpt>
<trkpt lat="31.7758200" lon="35.0120000">
<ele>260.930023</ele>
<time>2021-04-28T12:17:17.329Z</time>
</trkpt>
<trkpt lat="31.7764400" lon="35.0116900">
<ele>248.900009</ele>
<time>2021-04-28T12:17:17.329Z</time>
</trkpt>
<trkpt lat="31.7764700" lon="35.0116400">
<ele>248.880005</ele>
<time>2021-04-28T12:17:17.329Z</time>
</trkpt>
<trkpt lat="31.7764900" lon="35.0116100">
<ele>248.720001</ele>
<time>2021-04-28T12:17:17.329Z</time>
</trkpt>
<trkpt lat="31.7765100" lon="35.0115800">
<ele>248.550003</ele>
<time>2021-04-28T12:17:17.329Z</time>
</trkpt>
<trkpt lat="31.7765200" lon="35.0115500">
<ele>248.380005</ele>
<time>2021-04-28T12:17:17.329Z</time>
</trkpt>
<trkpt lat="31.7765300" lon="35.0115100">
<ele>248.150009</ele>
<time>2021-04-28T12:17:17.329Z</time>
</trkpt>
<trkpt lat="31.7765500" lon="35.0114800">
<ele>247.939987</ele>
<time>2021-04-28T12:17:17.329Z</time>
</trkpt>
<trkpt lat="31.7765800" lon="35.0114400">
<ele>247.619995</ele>
<time>2021-04-28T12:17:17.329Z</time>
</trkpt>
<trkpt lat="31.7766000" lon="35.0114100">
<ele>247.369995</ele>
<time>2021-04-28T12:17:17.329Z</time>
</trkpt>
<trkpt lat="31.7767000" lon="35.0113900">
<ele>247.009995</ele>
<time>2021-04-28T12:17:17.329Z</time>
</trkpt>
<trkpt lat="31.7767300" lon="35.0113900">
<ele>247.009995</ele>
<time>2021-04-28T12:17:17.329Z</time>
</trkpt>
<trkpt lat="31.7767600" lon="35.0114000">
<ele>247.120010</ele>
<time>2021-04-28T12:17:17.329Z</time>
</trkpt>
<trkpt lat="31.7768000" lon="35.0114200">
<ele>247.389999</ele>
<time>2021-04-28T12:17:17.329Z</time>
</trkpt>
<trkpt lat="31.7768300" lon="35.0114300">
<ele>247.559998</ele>
<time>2021-04-28T12:17:17.329Z</time>
</trkpt>
<trkpt lat="31.7768600" lon="35.0114400">
<ele>247.750000</ele>
<time>2021-04-28T12:17:17.329Z</time>
</trkpt>
<trkpt lat="31.7769100" lon="35.0114200">
<ele>247.520004</ele>
<time>2021-04-28T12:17:17.329Z</time>
</trkpt>
<trkpt lat="31.7770500" lon="35.0113600">
<ele>246.869995</ele>
<time>2021-04-28T12:17:17.329Z</time>
</trkpt>
<trkpt lat="31.7771400" lon="35.0113300">
<ele>246.869995</ele>
<time>2021-04-28T12:17:17.329Z</time>
</trkpt>
<trkpt lat="31.7772600" lon="35.0113100">
<ele>247.510010</ele>
<time>2021-04-28T12:17:17.330Z</time>
</trkpt>
<trkpt lat="31.7774600" lon="35.0112800">
<ele>250.089996</ele>
<time>2021-04-28T12:17:17.330Z</time>
</trkpt>
<trkpt lat="31.7775800" lon="35.0112400">
<ele>252.190002</ele>
<time>2021-04-28T12:17:17.330Z</time>
</trkpt>
<trkpt lat="31.7777500" lon="35.0112000">
<ele>255.720001</ele>
<time>2021-04-28T12:17:17.330Z</time>
</trkpt>
<trkpt lat="31.7779400" lon="35.0111100">
<ele>256.000000</ele>
<time>2021-04-28T12:17:17.330Z</time>
</trkpt>
<trkpt lat="31.7784700" lon="35.0108000">
<ele>260.220001</ele>
<time>2021-04-28T12:17:17.330Z</time>
</trkpt>
<trkpt lat="31.7785900" lon="35.0107300">
<ele>261.880005</ele>
<time>2021-04-28T12:17:17.330Z</time>
</trkpt>
<trkpt lat="31.7786100" lon="35.0108000">
<ele>262.739990</ele>
<time>2021-04-28T12:17:17.330Z</time>
</trkpt>
<trkpt lat="31.7790800" lon="35.0106700">
<ele>263.009979</ele>
<time>2021-04-28T12:17:17.330Z</time>
</trkpt>
<trkpt lat="31.7791300" lon="35.0107100">
<ele>263.619995</ele>
<time>2021-04-28T12:17:17.330Z</time>
</trkpt>
<trkpt lat="31.7794200" lon="35.0112800">
<ele>267.239990</ele>
<time>2021-04-28T12:17:17.330Z</time>
</trkpt>
<trkpt lat="31.7798700" lon="35.0119500">
<ele>275.149994</ele>
<time>2021-04-28T12:17:17.330Z</time>
</trkpt>
<trkpt lat="31.7800000" lon="35.0121500">
<ele>277.739990</ele>
<time>2021-04-28T12:17:17.330Z</time>
</trkpt>
<trkpt lat="31.7801600" lon="35.0123900">
<ele>277.619995</ele>
<time>2021-04-28T12:17:17.330Z</time>
</trkpt>
<trkpt lat="31.7803000" lon="35.0124800">
<ele>277.380005</ele>
<time>2021-04-28T12:17:17.330Z</time>
</trkpt>
<trkpt lat="31.7803800" lon="35.0125100">
<ele>277.920013</ele>
<time>2021-04-28T12:17:17.330Z</time>
</trkpt>
<trkpt lat="31.7806200" lon="35.0125400">
<ele>279.489990</ele>
<time>2021-04-28T12:17:17.330Z</time>
</trkpt>
<trkpt lat="31.7812900" lon="35.0125500">
<ele>286.260010</ele>
<time>2021-04-28T12:17:17.330Z</time>
</trkpt>
<trkpt lat="31.7814800" lon="35.0125600">
<ele>287.830017</ele>
<time>2021-04-28T12:17:17.330Z</time>
</trkpt>
<trkpt lat="31.7819000" lon="35.0125700">
<ele>288.000000</ele>
<time>2021-04-28T12:17:17.330Z</time>
</trkpt>
<trkpt lat="31.7820300" lon="35.0125700">
<ele>288.089996</ele>
<time>2021-04-28T12:17:17.330Z</time>
</trkpt>
<trkpt lat="31.7823200" lon="35.0125400">
<ele>288.759979</ele>
<time>2021-04-28T12:17:17.330Z</time>
</trkpt>
<trkpt lat="31.7824100" lon="35.0125200">
<ele>289.809998</ele>
<time>2021-04-28T12:17:17.330Z</time>
</trkpt>
<trkpt lat="31.7831300" lon="35.0124900">
<ele>298.660004</ele>
<time>2021-04-28T12:17:17.330Z</time>
</trkpt>
<trkpt lat="31.7832900" lon="35.0125000">
<ele>299.690002</ele>
<time>2021-04-28T12:17:17.330Z</time>
</trkpt>
<trkpt lat="31.7840100" lon="35.0125900">
<ele>302.779999</ele>
<time>2021-04-28T12:17:17.330Z</time>
</trkpt>
<trkpt lat="31.7841300" lon="35.0126300">
<ele>303.720001</ele>
<time>2021-04-28T12:17:17.330Z</time>
</trkpt>
<trkpt lat="31.7844200" lon="35.0127000">
<ele>302.679993</ele>
<time>2021-04-28T12:17:17.330Z</time>
</trkpt>
<trkpt lat="31.7847300" lon="35.0127000">
<ele>302.019989</ele>
<time>2021-04-28T12:17:17.331Z</time>
</trkpt>
<trkpt lat="31.7848300" lon="35.0127000">
<ele>302.809998</ele>
<time>2021-04-28T12:17:17.331Z</time>
</trkpt>
<trkpt lat="31.7850000" lon="35.0126400">
<ele>303.510010</ele>
<time>2021-04-28T12:17:17.331Z</time>
</trkpt>
<trkpt lat="31.7850400" lon="35.0126100">
<ele>303.390015</ele>
<time>2021-04-28T12:17:17.331Z</time>
</trkpt>
<trkpt lat="31.7854500" lon="35.0125500">
<ele>306.790009</ele>
<time>2021-04-28T12:17:17.331Z</time>
</trkpt>
<trkpt lat="31.7858500" lon="35.0123800">
<ele>304.250000</ele>
<time>2021-04-28T12:17:17.331Z</time>
</trkpt>
<trkpt lat="31.7860000" lon="35.0123600">
<ele>304.220001</ele>
<time>2021-04-28T12:17:17.331Z</time>
</trkpt>
<trkpt lat="31.7864600" lon="35.0123500">
<ele>301.149994</ele>
<time>2021-04-28T12:17:17.331Z</time>
</trkpt>
<trkpt lat="31.7866300" lon="35.0123300">
<ele>299.940002</ele>
<time>2021-04-28T12:17:17.331Z</time>
</trkpt>
<trkpt lat="31.7870300" lon="35.0121400">
<ele>299.309998</ele>
<time>2021-04-28T12:17:17.331Z</time>
</trkpt>
<trkpt lat="31.7871300" lon="35.0121200">
<ele>299.649994</ele>
<time>2021-04-28T12:17:17.331Z</time>
</trkpt>
<trkpt lat="31.7872500" lon="35.0121000">
<ele>299.559998</ele>
<time>2021-04-28T12:17:17.331Z</time>
</trkpt>
<trkpt lat="31.7875400" lon="35.0121000">
<ele>296.660004</ele>
<time>2021-04-28T12:17:17.331Z</time>
</trkpt>
<trkpt lat="31.7876800" lon="35.0120900">
<ele>296.890015</ele>
<time>2021-04-28T12:17:17.331Z</time>
</trkpt>
<trkpt lat="31.7879100" lon="35.0120500">
<ele>299.930023</ele>
<time>2021-04-28T12:17:17.331Z</time>
</trkpt>
<trkpt lat="31.7880100" lon="35.0120200">
<ele>301.940002</ele>
<time>2021-04-28T12:17:17.331Z</time>
</trkpt>
<trkpt lat="31.7883300" lon="35.0119000">
<ele>308.890015</ele>
<time>2021-04-28T12:17:17.331Z</time>
</trkpt>
<trkpt lat="31.7885800" lon="35.0117600">
<ele>317.910004</ele>
<time>2021-04-28T12:17:17.331Z</time>
</trkpt>
<trkpt lat="31.7886900" lon="35.0117500">
<ele>319.570007</ele>
<time>2021-04-28T12:17:17.331Z</time>
</trkpt>
<trkpt lat="31.7888400" lon="35.0117500">
<ele>321.019989</ele>
<time>2021-04-28T12:17:17.331Z</time>
</trkpt>
<trkpt lat="31.7890700" lon="35.0117700">
<ele>320.489990</ele>
<time>2021-04-28T12:17:17.331Z</time>
</trkpt>
<trkpt lat="31.7896600" lon="35.0119400">
<ele>305.119995</ele>
<time>2021-04-28T12:17:17.331Z</time>
</trkpt>
<trkpt lat="31.7900000" lon="35.0119400">
<ele>308.100006</ele>
<time>2021-04-28T12:17:17.331Z</time>
</trkpt>
<trkpt lat="31.7900900" lon="35.0119400">
<ele>309.700012</ele>
<time>2021-04-28T12:17:17.331Z</time>
</trkpt>
<trkpt lat="31.7902100" lon="35.0118900">
<ele>312.359985</ele>
<time>2021-04-28T12:17:17.331Z</time>
</trkpt>
<trkpt lat="31.7902700" lon="35.0118200">
<ele>313.810028</ele>
<time>2021-04-28T12:17:17.331Z</time>
</trkpt>
<trkpt lat="31.7904300" lon="35.0115300">
<ele>318.139984</ele>
<time>2021-04-28T12:17:17.331Z</time>
</trkpt>
<trkpt lat="31.7904900" lon="35.0115000">
<ele>318.789978</ele>
<time>2021-04-28T12:17:17.331Z</time>
</trkpt>
<trkpt lat="31.7905500" lon="35.0114900">
<ele>319.309998</ele>
<time>2021-04-28T12:17:17.332Z</time>
</trkpt>
<trkpt lat="31.7907300" lon="35.0114900">
<ele>322.330017</ele>
<time>2021-04-28T12:17:17.332Z</time>
</trkpt>
<trkpt lat="31.7909300" lon="35.0115000">
<ele>326.839996</ele>
<time>2021-04-28T12:17:17.332Z</time>
</trkpt>
<trkpt lat="31.7911800" lon="35.0116100">
<ele>333.240021</ele>
<time>2021-04-28T12:17:17.332Z</time>
</trkpt>
<trkpt lat="31.7914800" lon="35.0121300">
<ele>339.580017</ele>
<time>2021-04-28T12:17:17.332Z</time>
</trkpt>
<trkpt lat="31.7916300" lon="35.0122500">
<ele>338.320007</ele>
<time>2021-04-28T12:17:17.332Z</time>
</trkpt>
<trkpt lat="31.7920800" lon="35.0124000">
<ele>340.449982</ele>
<time>2021-04-28T12:17:17.332Z</time>
</trkpt>
<trkpt lat="31.7922600" lon="35.0124300">
<ele>345.199982</ele>
<time>2021-04-28T12:17:17.332Z</time>
</trkpt>
<trkpt lat="31.7924800" lon="35.0124400">
<ele>350.710022</ele>
<time>2021-04-28T12:17:17.332Z</time>
</trkpt>
<trkpt lat="31.7926000" lon="35.0124500">
<ele>352.200012</ele>
<time>2021-04-28T12:17:17.332Z</time>
</trkpt>
<trkpt lat="31.7927500" lon="35.0124900">
<ele>353.700012</ele>
<time>2021-04-28T12:17:17.332Z</time>
</trkpt>
<trkpt lat="31.7929300" lon="35.0126100">
<ele>350.399994</ele>
<time>2021-04-28T12:17:17.332Z</time>
</trkpt>
<trkpt lat="31.7931800" lon="35.0128400">
<ele>346.200012</ele>
<time>2021-04-28T12:17:17.332Z</time>
</trkpt>
<trkpt lat="31.7933000" lon="35.0128700">
<ele>346.800018</ele>
<time>2021-04-28T12:17:17.332Z</time>
</trkpt>
<trkpt lat="31.7934300" lon="35.0128800">
<ele>347.480011</ele>
<time>2021-04-28T12:17:17.332Z</time>
</trkpt>
<trkpt lat="31.7935200" lon="35.0128800">
<ele>347.920013</ele>
<time>2021-04-28T12:17:17.332Z</time>
</trkpt>
<trkpt lat="31.7935700" lon="35.0128600">
<ele>348.100006</ele>
<time>2021-04-28T12:17:17.332Z</time>
</trkpt>
<trkpt lat="31.7938400" lon="35.0131500">
<ele>347.379974</ele>
<time>2021-04-28T12:17:17.332Z</time>
</trkpt>
<trkpt lat="31.7940300" lon="35.0137000">
<ele>341.880005</ele>
<time>2021-04-28T12:17:17.332Z</time>
</trkpt>
<trkpt lat="31.7941600" lon="35.0138800">
<ele>340.070007</ele>
<time>2021-04-28T12:17:17.332Z</time>
</trkpt>
<trkpt lat="31.7945500" lon="35.0140100">
<ele>337.290009</ele>
<time>2021-04-28T12:17:17.332Z</time>
</trkpt>
<trkpt lat="31.7959600" lon="35.0142500">
<ele>320.740021</ele>
<time>2021-04-28T12:17:17.332Z</time>
</trkpt>
<trkpt lat="31.7960300" lon="35.0142500">
<ele>320.489990</ele>
<time>2021-04-28T12:17:17.332Z</time>
</trkpt>
<trkpt lat="31.7963100" lon="35.0142900">
<ele>316.720032</ele>
<time>2021-04-28T12:17:17.332Z</time>
</trkpt>
<trkpt lat="31.7964000" lon="35.0142900">
<ele>314.960022</ele>
<time>2021-04-28T12:17:17.332Z</time>
</trkpt>
<trkpt lat="31.7967300" lon="35.0142900">
<ele>310.450012</ele>
<time>2021-04-28T12:17:17.332Z</time>
</trkpt>
<trkpt lat="31.7970000" lon="35.0142900">
<ele>307.270020</ele>
<time>2021-04-28T12:17:17.332Z</time>
</trkpt>
<trkpt lat="31.7976900" lon="35.0140800">
<ele>305.510010</ele>
<time>2021-04-28T12:17:17.332Z</time>
</trkpt>
<trkpt lat="31.7980100" lon="35.0139100">
<ele>303.260010</ele>
<time>2021-04-28T12:17:17.333Z</time>
</trkpt>
<trkpt lat="31.7981100" lon="35.0137900">
<ele>302.559998</ele>
<time>2021-04-28T12:17:17.333Z</time>
</trkpt>
<trkpt lat="31.7981800" lon="35.0137200">
<ele>301.450012</ele>
<time>2021-04-28T12:17:17.333Z</time>
</trkpt>
<trkpt lat="31.7983600" lon="35.0138400">
<ele>299.119995</ele>
<time>2021-04-28T12:17:17.333Z</time>
</trkpt>
<trkpt lat="31.7985200" lon="35.0134000">
<ele>297.769989</ele>
<time>2021-04-28T12:17:17.333Z</time>
</trkpt>
<trkpt lat="31.7985500" lon="35.0133300">
<ele>298.269989</ele>
<time>2021-04-28T12:17:17.333Z</time>
</trkpt>
<trkpt lat="31.7985900" lon="35.0132900">
<ele>298.720001</ele>
<time>2021-04-28T12:17:17.333Z</time>
</trkpt>
<trkpt lat="31.7986400" lon="35.0132600">
<ele>298.609985</ele>
<time>2021-04-28T12:17:17.333Z</time>
</trkpt>
<trkpt lat="31.7987000" lon="35.0132400">
<ele>297.960022</ele>
<time>2021-04-28T12:17:17.333Z</time>
</trkpt>
<trkpt lat="31.7987500" lon="35.0132300">
<ele>297.299988</ele>
<time>2021-04-28T12:17:17.333Z</time>
</trkpt>
<trkpt lat="31.7988100" lon="35.0132300">
<ele>296.359985</ele>
<time>2021-04-28T12:17:17.333Z</time>
</trkpt>
<trkpt lat="31.7988600" lon="35.0132200">
<ele>295.679993</ele>
<time>2021-04-28T12:17:17.333Z</time>
</trkpt>
<trkpt lat="31.7989200" lon="35.0132200">
<ele>294.549988</ele>
<time>2021-04-28T12:17:17.333Z</time>
</trkpt>
<trkpt lat="31.7990100" lon="35.0132200">
<ele>292.610016</ele>
<time>2021-04-28T12:17:17.333Z</time>
</trkpt>
<trkpt lat="31.7991400" lon="35.0126400">
<ele>297.960022</ele>
<time>2021-04-28T12:17:17.333Z</time>
</trkpt>
<trkpt lat="31.7991700" lon="35.0126000">
<ele>298.130005</ele>
<time>2021-04-28T12:17:17.333Z</time>
</trkpt>
<trkpt lat="31.7991900" lon="35.0125500">
<ele>298.600006</ele>
<time>2021-04-28T12:17:17.333Z</time>
</trkpt>
<trkpt lat="31.7992200" lon="35.0125100">
<ele>298.669983</ele>
<time>2021-04-28T12:17:17.333Z</time>
</trkpt>
<trkpt lat="31.7992500" lon="35.0124800">
<ele>298.649994</ele>
<time>2021-04-28T12:17:17.333Z</time>
</trkpt>
<trkpt lat="31.7992900" lon="35.0124500">
<ele>298.500000</ele>
<time>2021-04-28T12:17:17.333Z</time>
</trkpt>
<trkpt lat="31.7993200" lon="35.0124300">
<ele>298.339996</ele>
<time>2021-04-28T12:17:17.333Z</time>
</trkpt>
<trkpt lat="31.7993400" lon="35.0124100">
<ele>298.399994</ele>
<time>2021-04-28T12:17:17.333Z</time>
</trkpt>
<trkpt lat="31.7993600" lon="35.0123700">
<ele>298.959991</ele>
<time>2021-04-28T12:17:17.333Z</time>
</trkpt>
<trkpt lat="31.7993800" lon="35.0123400">
<ele>299.289978</ele>
<time>2021-04-28T12:17:17.333Z</time>
</trkpt>
<trkpt lat="31.7994100" lon="35.0123200">
<ele>299.200012</ele>
<time>2021-04-28T12:17:17.333Z</time>
</trkpt>
<trkpt lat="31.7994400" lon="35.0123100">
<ele>298.869995</ele>
<time>2021-04-28T12:17:17.333Z</time>
</trkpt>
<trkpt lat="31.7994700" lon="35.0123000">
<ele>298.609985</ele>
<time>2021-04-28T12:17:17.334Z</time>
</trkpt>
<trkpt lat="31.7995500" lon="35.0122800">
<ele>297.720001</ele>
<time>2021-04-28T12:17:17.334Z</time>
</trkpt>
<trkpt lat="31.7999900" lon="35.0122500">
<ele>296.169983</ele>
<time>2021-04-28T12:17:17.334Z</time>
</trkpt>
<trkpt lat="31.8003300" lon="35.0122200">
<ele>294.729980</ele>
<time>2021-04-28T12:17:17.334Z</time>
</trkpt>
<trkpt lat="31.8008600" lon="35.0121800">
<ele>291.429993</ele>
<time>2021-04-28T12:17:17.334Z</time>
</trkpt>
<trkpt lat="31.8009500" lon="35.0121600">
<ele>289.720001</ele>
<time>2021-04-28T12:17:17.334Z</time>
</trkpt>
<trkpt lat="31.8010400" lon="35.0121400">
<ele>288.329987</ele>
<time>2021-04-28T12:17:17.334Z</time>
</trkpt>
<trkpt lat="31.8011300" lon="35.0121100">
<ele>287.750000</ele>
<time>2021-04-28T12:17:17.334Z</time>
</trkpt>
<trkpt lat="31.8012300" lon="35.0120800">
<ele>287.929993</ele>
<time>2021-04-28T12:17:17.334Z</time>
</trkpt>
<trkpt lat="31.8013100" lon="35.0120400">
<ele>288.179993</ele>
<time>2021-04-28T12:17:17.334Z</time>
</trkpt>
<trkpt lat="31.8014000" lon="35.0120000">
<ele>288.119995</ele>
<time>2021-04-28T12:17:17.334Z</time>
</trkpt>
<trkpt lat="31.8014700" lon="35.0119500">
<ele>288.339996</ele>
<time>2021-04-28T12:17:17.334Z</time>
</trkpt>
<trkpt lat="31.8015400" lon="35.0118900">
<ele>288.299988</ele>
<time>2021-04-28T12:17:17.334Z</time>
</trkpt>
<trkpt lat="31.8015700" lon="35.0118700">
<ele>288.230011</ele>
<time>2021-04-28T12:17:17.334Z</time>
</trkpt>
<trkpt lat="31.8016000" lon="35.0118300">
<ele>288.299988</ele>
<time>2021-04-28T12:17:17.334Z</time>
</trkpt>
<trkpt lat="31.8016500" lon="35.0117700">
<ele>288.380005</ele>
<time>2021-04-28T12:17:17.334Z</time>
</trkpt>
<trkpt lat="31.8016800" lon="35.0117300">
<ele>288.329987</ele>
<time>2021-04-28T12:17:17.334Z</time>
</trkpt>
<trkpt lat="31.8017100" lon="35.0117000">
<ele>288.100006</ele>
<time>2021-04-28T12:17:17.334Z</time>
</trkpt>
<trkpt lat="31.8017300" lon="35.0116800">
<ele>287.970001</ele>
<time>2021-04-28T12:17:17.334Z</time>
</trkpt>
<trkpt lat="31.8017600" lon="35.0116600">
<ele>287.669983</ele>
<time>2021-04-28T12:17:17.334Z</time>
</trkpt>
<trkpt lat="31.8018000" lon="35.0116400">
<ele>287.170013</ele>
<time>2021-04-28T12:17:17.334Z</time>
</trkpt>
<trkpt lat="31.8018300" lon="35.0116300">
<ele>286.799988</ele>
<time>2021-04-28T12:17:17.334Z</time>
</trkpt>
<trkpt lat="31.8018600" lon="35.0116100">
<ele>286.500000</ele>
<time>2021-04-28T12:17:17.334Z</time>
</trkpt>
<trkpt lat="31.8018800" lon="35.0115800">
<ele>286.410004</ele>
<time>2021-04-28T12:17:17.334Z</time>
</trkpt>
<trkpt lat="31.8019100" lon="35.0115500">
<ele>286.230011</ele>
<time>2021-04-28T12:17:17.334Z</time>
</trkpt>
<trkpt lat="31.8019400" lon="35.0115300">
<ele>286.029999</ele>
<time>2021-04-28T12:17:17.334Z</time>
</trkpt>
<trkpt lat="31.8019800" lon="35.0115100">
<ele>285.940002</ele>
<time>2021-04-28T12:17:17.334Z</time>
</trkpt>
<trkpt lat="31.8020300" lon="35.0114900">
<ele>285.850006</ele>
<time>2021-04-28T12:17:17.334Z</time>
</trkpt>
<trkpt lat="31.8020800" lon="35.0114700">
<ele>285.790009</ele>
<time>2021-04-28T12:17:17.335Z</time>
</trkpt>
<trkpt lat="31.8021300" lon="35.0114400">
<ele>285.839996</ele>
<time>2021-04-28T12:17:17.335Z</time>
</trkpt>
<trkpt lat="31.8021700" lon="35.0114100">
<ele>285.970001</ele>
<time>2021-04-28T12:17:17.335Z</time>
</trkpt>
<trkpt lat="31.8022100" lon="35.0113700">
<ele>286.109985</ele>
<time>2021-04-28T12:17:17.335Z</time>
</trkpt>
<trkpt lat="31.8022500" lon="35.0113400">
<ele>285.480011</ele>
<time>2021-04-28T12:17:17.335Z</time>
</trkpt>
<trkpt lat="31.8022900" lon="35.0113000">
<ele>284.609985</ele>
<time>2021-04-28T12:17:17.335Z</time>
</trkpt>
<trkpt lat="31.8023200" lon="35.0112600">
<ele>284.000000</ele>
<time>2021-04-28T12:17:17.335Z</time>
</trkpt>
<trkpt lat="31.8023500" lon="35.0112200">
<ele>283.389984</ele>
<time>2021-04-28T12:17:17.335Z</time>
</trkpt>
<trkpt lat="31.8023800" lon="35.0111900">
<ele>282.740021</ele>
<time>2021-04-28T12:17:17.335Z</time>
</trkpt>
<trkpt lat="31.8026900" lon="35.0106500">
<ele>279.290009</ele>
<time>2021-04-28T12:17:17.335Z</time>
</trkpt>
<trkpt lat="31.8027100" lon="35.0105400">
<ele>278.429993</ele>
<time>2021-04-28T12:17:17.335Z</time>
</trkpt>
<trkpt lat="31.8027100" lon="35.0104400">
<ele>278.339996</ele>
<time>2021-04-28T12:17:17.335Z</time>
</trkpt>
<trkpt lat="31.8027100" lon="35.0103700">
<ele>278.279999</ele>
<time>2021-04-28T12:17:17.335Z</time>
</trkpt>
<trkpt lat="31.8026800" lon="35.0100800">
<ele>278.209991</ele>
<time>2021-04-28T12:17:17.335Z</time>
</trkpt>
<trkpt lat="31.8026700" lon="35.0099800">
<ele>278.130005</ele>
<time>2021-04-28T12:17:17.335Z</time>
</trkpt>
<trkpt lat="31.8026600" lon="35.0098800">
<ele>278.579987</ele>
<time>2021-04-28T12:17:17.335Z</time>
</trkpt>
<trkpt lat="31.8026500" lon="35.0093300">
<ele>279.000000</ele>
<time>2021-04-28T12:17:17.335Z</time>
</trkpt>
<trkpt lat="31.8026500" lon="35.0092100">
<ele>278.369995</ele>
<time>2021-04-28T12:17:17.335Z</time>
</trkpt>
<trkpt lat="31.8026600" lon="35.0091100">
<ele>277.700012</ele>
<time>2021-04-28T12:17:17.335Z</time>
</trkpt>
<trkpt lat="31.8026600" lon="35.0090200">
<ele>277.510010</ele>
<time>2021-04-28T12:17:17.335Z</time>
</trkpt>
<trkpt lat="31.8033000" lon="35.0088100">
<ele>266.350006</ele>
<time>2021-04-28T12:17:17.335Z</time>
</trkpt>
<trkpt lat="31.8033400" lon="35.0088000">
<ele>266.300018</ele>
<time>2021-04-28T12:17:17.335Z</time>
</trkpt>
<trkpt lat="31.8033800" lon="35.0087900">
<ele>266.239990</ele>
<time>2021-04-28T12:17:17.335Z</time>
</trkpt>
<trkpt lat="31.8034100" lon="35.0087900">
<ele>266.160004</ele>
<time>2021-04-28T12:17:17.335Z</time>
</trkpt>
<trkpt lat="31.8035400" lon="35.0088000">
<ele>265.839996</ele>
<time>2021-04-28T12:17:17.335Z</time>
</trkpt>
<trkpt lat="31.8036300" lon="35.0088300">
<ele>265.869995</ele>
<time>2021-04-28T12:17:17.335Z</time>
</trkpt>
<trkpt lat="31.8036900" lon="35.0088800">
<ele>266.260010</ele>
<time>2021-04-28T12:17:17.335Z</time>
</trkpt>
<trkpt lat="31.8039000" lon="35.0090600">
<ele>267.709991</ele>
<time>2021-04-28T12:17:17.335Z</time>
</trkpt>
<trkpt lat="31.8039600" lon="35.0090700">
<ele>268.250000</ele>
<time>2021-04-28T12:17:17.336Z</time>
</trkpt>
<trkpt lat="31.8040200" lon="35.0090700">
<ele>268.760010</ele>
<time>2021-04-28T12:17:17.336Z</time>
</trkpt>
<trkpt lat="31.8040700" lon="35.0090700">
<ele>269.179993</ele>
<time>2021-04-28T12:17:17.336Z</time>
</trkpt>
<trkpt lat="31.8041400" lon="35.0090300">
<ele>269.760010</ele>
<time>2021-04-28T12:17:17.336Z</time>
</trkpt>
<trkpt lat="31.8043800" lon="35.0087400">
<ele>272.299988</ele>
<time>2021-04-28T12:17:17.336Z</time>
</trkpt>
<trkpt lat="31.8044500" lon="35.0086200">
<ele>273.059998</ele>
<time>2021-04-28T12:17:17.336Z</time>
</trkpt>
<trkpt lat="31.8045100" lon="35.0084800">
<ele>272.540009</ele>
<time>2021-04-28T12:17:17.336Z</time>
</trkpt>
<trkpt lat="31.8046300" lon="35.0081600">
<ele>270.209991</ele>
<time>2021-04-28T12:17:17.336Z</time>
</trkpt>
<trkpt lat="31.8047100" lon="35.0079300">
<ele>268.570007</ele>
<time>2021-04-28T12:17:17.336Z</time>
</trkpt>
<trkpt lat="31.8048400" lon="35.0074400">
<ele>264.989990</ele>
<time>2021-04-28T12:17:17.336Z</time>
</trkpt>
<trkpt lat="31.8048900" lon="35.0073300">
<ele>264.059998</ele>
<time>2021-04-28T12:17:17.336Z</time>
</trkpt>
<trkpt lat="31.8049200" lon="35.0072500">
<ele>263.609985</ele>
<time>2021-04-28T12:17:17.336Z</time>
</trkpt>
<trkpt lat="31.8049800" lon="35.0071600">
<ele>263.390015</ele>
<time>2021-04-28T12:17:17.336Z</time>
</trkpt>
<trkpt lat="31.8050800" lon="35.0070300">
<ele>263.369995</ele>
<time>2021-04-28T12:17:17.336Z</time>
</trkpt>
<trkpt lat="31.8051900" lon="35.0068900">
<ele>263.230011</ele>
<time>2021-04-28T12:17:17.336Z</time>
</trkpt>
<trkpt lat="31.8059600" lon="35.0055900">
<ele>262.589996</ele>
<time>2021-04-28T12:17:17.336Z</time>
</trkpt>
<trkpt lat="31.8060000" lon="35.0055400">
<ele>262.279999</ele>
<time>2021-04-28T12:17:17.336Z</time>
</trkpt>
<trkpt lat="31.8060900" lon="35.0054700">
<ele>261.700012</ele>
<time>2021-04-28T12:17:17.336Z</time>
</trkpt>
<trkpt lat="31.8061600" lon="35.0054200">
<ele>261.339996</ele>
<time>2021-04-28T12:17:17.336Z</time>
</trkpt>
<trkpt lat="31.8065200" lon="35.0052500">
<ele>257.019989</ele>
<time>2021-04-28T12:17:17.336Z</time>
</trkpt>
<trkpt lat="31.8069100" lon="35.0049800">
<ele>251.800003</ele>
<time>2021-04-28T12:17:17.336Z</time>
</trkpt>
<trkpt lat="31.8074800" lon="35.0047300">
<ele>250.959991</ele>
<time>2021-04-28T12:17:17.336Z</time>
</trkpt>
<trkpt lat="31.8076800" lon="35.0047300">
<ele>255.669998</ele>
<time>2021-04-28T12:17:17.336Z</time>
</trkpt>
<trkpt lat="31.8078500" lon="35.0047700">
<ele>258.250000</ele>
<time>2021-04-28T12:17:17.336Z</time>
</trkpt>
<trkpt lat="31.8080000" lon="35.0048600">
<ele>258.089996</ele>
<time>2021-04-28T12:17:17.336Z</time>
</trkpt>
<trkpt lat="31.8081800" lon="35.0049500">
<ele>257.200012</ele>
<time>2021-04-28T12:17:17.336Z</time>
</trkpt>
<trkpt lat="31.8082500" lon="35.0049900">
<ele>256.820007</ele>
<time>2021-04-28T12:17:17.336Z</time>
</trkpt>
<trkpt lat="31.8086700" lon="35.0050000">
<ele>258.420013</ele>
<time>2021-04-28T12:17:17.336Z</time>
</trkpt>
<trkpt lat="31.8088300" lon="35.0050500">
<ele>259.829987</ele>
<time>2021-04-28T12:17:17.337Z</time>
</trkpt>
<trkpt lat="31.8090700" lon="35.0051200">
<ele>259.970001</ele>
<time>2021-04-28T12:17:17.337Z</time>
</trkpt>
<trkpt lat="31.8092500" lon="35.0051300">
<ele>259.130005</ele>
<time>2021-04-28T12:17:17.337Z</time>
</trkpt>
<trkpt lat="31.8093400" lon="35.0051000">
<ele>257.970001</ele>
<time>2021-04-28T12:17:17.337Z</time>
</trkpt>
<trkpt lat="31.8093900" lon="35.0050700">
<ele>257.200012</ele>
<time>2021-04-28T12:17:17.337Z</time>
</trkpt>
<trkpt lat="31.8094400" lon="35.0049600">
<ele>255.459991</ele>
<time>2021-04-28T12:17:17.337Z</time>
</trkpt>
<trkpt lat="31.8095300" lon="35.0047300">
<ele>252.699997</ele>
<time>2021-04-28T12:17:17.337Z</time>
</trkpt>
<trkpt lat="31.8096300" lon="35.0045700">
<ele>252.610001</ele>
<time>2021-04-28T12:17:17.337Z</time>
</trkpt>
<trkpt lat="31.8100800" lon="35.0040100">
<ele>245.309998</ele>
<time>2021-04-28T12:17:17.337Z</time>
</trkpt>
<trkpt lat="31.8101900" lon="35.0039300">
<ele>242.580002</ele>
<time>2021-04-28T12:17:17.337Z</time>
</trkpt>
<trkpt lat="31.8103800" lon="35.0038400">
<ele>243.750000</ele>
<time>2021-04-28T12:17:17.337Z</time>
</trkpt>
<trkpt lat="31.8107000" lon="35.0037900">
<ele>249.399994</ele>
<time>2021-04-28T12:17:17.337Z</time>
</trkpt>
<trkpt lat="31.8107700" lon="35.0037900">
<ele>249.789993</ele>
<time>2021-04-28T12:17:17.337Z</time>
</trkpt>
<trkpt lat="31.8109400" lon="35.0038100">
<ele>251.500000</ele>
<time>2021-04-28T12:17:17.337Z</time>
</trkpt>
<trkpt lat="31.8110400" lon="35.0038400">
<ele>253.079987</ele>
<time>2021-04-28T12:17:17.337Z</time>
</trkpt>
<trkpt lat="31.8112600" lon="35.0040100">
<ele>255.239990</ele>
<time>2021-04-28T12:17:17.337Z</time>
</trkpt>
<trkpt lat="31.8113900" lon="35.0041500">
<ele>255.680008</ele>
<time>2021-04-28T12:17:17.337Z</time>
</trkpt>
<trkpt lat="31.8114600" lon="35.0042400">
<ele>255.580002</ele>
<time>2021-04-28T12:17:17.337Z</time>
</trkpt>
<trkpt lat="31.8115200" lon="35.0043800">
<ele>256.309998</ele>
<time>2021-04-28T12:17:17.337Z</time>
</trkpt>
<trkpt lat="31.8115500" lon="35.0044500">
<ele>256.730011</ele>
<time>2021-04-28T12:17:17.337Z</time>
</trkpt>
<trkpt lat="31.8116200" lon="35.0051200">
<ele>260.179993</ele>
<time>2021-04-28T12:17:17.337Z</time>
</trkpt>
<trkpt lat="31.8116900" lon="35.0053100">
<ele>259.540009</ele>
<time>2021-04-28T12:17:17.337Z</time>
</trkpt>
<trkpt lat="31.8117900" lon="35.0053800">
<ele>257.690002</ele>
<time>2021-04-28T12:17:17.337Z</time>
</trkpt>
<trkpt lat="31.8119300" lon="35.0053800">
<ele>255.490005</ele>
<time>2021-04-28T12:17:17.337Z</time>
</trkpt>
<trkpt lat="31.8120000" lon="35.0053700">
<ele>255.340012</ele>
<time>2021-04-28T12:17:17.337Z</time>
</trkpt>
<trkpt lat="31.8120600" lon="35.0053700">
<ele>255.340012</ele>
<time>2021-04-28T12:17:17.337Z</time>
</trkpt>
<trkpt lat="31.8121100" lon="35.0053400">
<ele>255.550003</ele>
<time>2021-04-28T12:17:17.337Z</time>
</trkpt>
<trkpt lat="31.8124800" lon="35.0051500">
<ele>258.779999</ele>
<time>2021-04-28T12:17:17.337Z</time>
</trkpt>
<trkpt lat="31.8124700" lon="35.0056600">
<ele>258.029999</ele>
<time>2021-04-28T12:17:17.338Z</time>
</trkpt>
<trkpt lat="31.8124300" lon="35.0059400">
<ele>259.940002</ele>
<time>2021-04-28T12:17:17.338Z</time>
</trkpt>
<trkpt lat="31.8123700" lon="35.0068500">
<ele>261.449982</ele>
<time>2021-04-28T12:17:17.338Z</time>
</trkpt>
<trkpt lat="31.8123400" lon="35.0072200">
<ele>260.970001</ele>
<time>2021-04-28T12:17:17.338Z</time>
</trkpt>
<trkpt lat="31.8123100" lon="35.0080500">
<ele>260.529999</ele>
<time>2021-04-28T12:17:17.338Z</time>
</trkpt>
<trkpt lat="31.8123000" lon="35.0086000">
<ele>260.920013</ele>
<time>2021-04-28T12:17:17.338Z</time>
</trkpt>
<trkpt lat="31.8122700" lon="35.0089100">
<ele>261.919983</ele>
<time>2021-04-28T12:17:17.338Z</time>
</trkpt>
<trkpt lat="31.8122200" lon="35.0098800">
<ele>266.549988</ele>
<time>2021-04-28T12:17:17.338Z</time>
</trkpt>
<trkpt lat="31.8121700" lon="35.0102500">
<ele>267.899994</ele>
<time>2021-04-28T12:17:17.338Z</time>
</trkpt>
<trkpt lat="31.8121500" lon="35.0104900">
<ele>269.230011</ele>
<time>2021-04-28T12:17:17.338Z</time>
</trkpt>
<trkpt lat="31.8121400" lon="35.0105600">
<ele>269.559998</ele>
<time>2021-04-28T12:17:17.338Z</time>
</trkpt>
<trkpt lat="31.8121000" lon="35.0106800">
<ele>270.089996</ele>
<time>2021-04-28T12:17:17.338Z</time>
</trkpt>
<trkpt lat="31.8119900" lon="35.0111000">
<ele>275.290009</ele>
<time>2021-04-28T12:17:17.338Z</time>
</trkpt>
<trkpt lat="31.8117500" lon="35.0121400">
<ele>278.899994</ele>
<time>2021-04-28T12:17:17.338Z</time>
</trkpt>
<trkpt lat="31.8115000" lon="35.0129200">
<ele>276.000000</ele>
<time>2021-04-28T12:17:17.338Z</time>
</trkpt>
</trkseg>
</trk>
</gpx>
